GFSCGP_925_spd_000.txt.gz
Wind_Speed
1 4 9 20 13 5 3 6 12 8 8 4 20 23 18 16 13 25 22 18 20 20 22 30 27 25 26 29 32 37 39 41 41 42 42 38 47 49 46 46 43 41 40 38
4 7 17 2 2 6 6 11 18 14 15 5 14 21 18 19 20 21 23 23 17 17 18 20 14 14 20 28 32 34 39 40 44 43 41 28 35 41 48 49 46 44 42 39
12 10 4 6 3 8 4 7 17 14 6 5 10 13 7 9 8 13 19 21 9 14 20 21 7 11 18 25 29 34 39 41 40 38 34 28 26 23 38 42 45 46 44 42
6 4 6 3 7 9 15 11 13 10 6 7 5 15 6 8 10 9 15 8 12 12 9 10 10 8 18 27 27 29 31 35 38 41 41 40 32 25 37 41 49 49 47 46
7 2 2 4 10 7 10 5 7 3 4 5 1 3 1 4 6 11 9 8 7 8 8 11 11 16 22 16 19 25 28 31 34 40 43 44 35 31 28 35 42 46 47 45
7 0 6 8 7 9 2 2 4 4 2 5 9 8 20 4 4 2 8 14 10 9 11 12 10 14 20 13 10 18 25 30 32 36 39 39 33 31 29 35 38 43 44 45
2 5 4 4 3 1 3 4 3 3 1 9 3 3 16 10 16 8 10 9 7 9 9 11 11 11 19 10 4 11 19 25 29 33 36 38 38 40 40 41 39 41 43 48
4 15 6 5 9 9 8 9 6 7 5 12 3 7 18 7 8 11 6 7 6 9 8 10 10 7 15 12 4 10 17 20 26 32 36 37 37 35 36 38 39 41 44 50
4 10 3 6 4 4 4 6 3 3 5 3 12 14 15 18 7 4 3 6 8 10 9 9 10 10 13 12 10 11 15 20 24 29 33 36 38 39 38 38 38 38 40 44
4 11 6 2 3 5 7 2 2 1 4 8 7 14 12 22 26 7 9 10 13 9 9 10 14 18 26 21 18 15 15 18 19 24 31 35 38 40 42 40 41 41 41 41
2 3 6 1 6 11 2 4 4 2 5 12 18 13 10 22 21 9 11 12 15 18 18 18 17 25 28 30 32 27 22 22 23 24 26 29 33 35 37 42 43 43 41 41
9 5 11 19 6 6 5 12 7 10 10 10 11 11 12 13 15 20 19 16 17 17 18 16 13 20 25 27 30 32 34 34 34 35 30 31 34 35 36 42 45 44 44 42
4 3 4 6 6 4 2 2 4 10 5 12 11 7 8 15 19 19 18 17 16 16 17 17 18 16 23 26 27 28 29 31 32 30 33 36 34 36 41 44 46 45 45 46
3 5 12 15 15 8 11 11 11 13 9 13 13 20 12 14 14 16 12 15 18 18 17 16 16 15 22 26 26 28 28 30 33 32 28 32 32 33 37 40 41 43 44 44
2 14 16 18 12 6 7 12 17 16 16 11 19 19 5 10 13 14 12 15 14 17 18 16 16 15 23 25 28 30 29 31 31 30 34 33 28 32 33 36 39 41 43 45
3 3 5 11 18 13 19 17 18 21 20 15 18 9 2 2 7 9 8 10 15 15 14 13 15 14 21 27 29 31 30 34 35 32 31 33 34 28 33 36 36 39 42 41
1 3 5 18 12 8 12 21 20 17 17 2 8 3 2 4 7 11 11 7 12 12 15 12 15 14 22 25 27 28 30 30 31 31 31 36 38 37 32 30 33 37 38 37
9 10 5 12 7 18 7 6 9 10 8 6 5 4 6 6 5 10 5 5 9 11 11 11 12 18 22 28 26 28 30 31 28 27 27 32 37 37 35 29 27 31 31 35
16 10 3 4 7 10 7 3 3 2 5 5 4 7 6 8 6 3 4 4 8 11 8 13 19 22 24 27 28 28 30 29 28 28 31 35 39 39 35 27 26 28 27 28
1 13 8 2 4 6 1 2 1 4 4 7 7 8 8 4 5 9 8 5 8 13 13 17 21 22 22 26 25 26 27 27 27 28 31 33 37 37 33 28 24 25 26 26
3 2 7 6 4 7 4 5 1 5 5 5 5 8 8 5 6 9 10 7 10 14 18 21 21 19 22 22 23 26 25 26 28 31 34 33 32 36 33 28 23 24 24 21
5 4 4 2 2 7 4 4 4 6 4 4 5 11 11 8 9 9 11 11 9 12 21 23 20 23 28 24 22 24 27 29 29 32 32 31 34 31 34 25 25 21 23 20
2 6 4 7 6 4 4 8 12 4 7 7 8 11 7 8 11 10 11 13 13 18 22 22 19 26 32 27 23 24 29 28 32 34 34 33 33 31 30 25 22 21 20 17
5 4 10 15 15 17 17 17 6 8 13 13 8 6 5 10 10 11 12 13 14 21 21 23 23 25 30 32 30 29 31 30 31 33 35 34 32 30 28 26 24 22 20 21
7 5 6 13 17 14 16 15 16 15 10 3 3 2 3 5 12 11 13 15 15 22 27 24 23 26 34 36 36 35 34 31 33 34 34 33 31 30 30 28 26 25 28 29
10 18 9 13 19 15 16 17 3 1 1 2 4 6 6 7 11 12 15 18 21 23 29 28 31 32 36 38 39 36 33 32 34 34 32 29 28 28 28 27 25 27 30 27

GFSCGP_925_spd_003.txt.gz
Wind_Speed
2 4 8 15 15 2 4 5 6 8 9 4 23 19 15 15 13 24 23 21 13 14 18 12 17 20 23 23 28 32 34 37 38 40 38 37 46 47 52 54 54 49 47 44
4 8 18 3 5 8 6 8 15 7 10 3 12 21 22 20 20 20 21 17 9 11 17 11 14 19 20 21 22 27 34 36 41 42 40 27 32 34 43 50 53 50 50 47
8 6 3 5 3 7 3 6 10 9 7 6 8 7 4 6 6 6 8 7 9 11 12 12 14 22 18 19 22 23 29 34 35 37 34 28 19 23 33 41 49 52 51 49
6 3 6 4 6 7 7 10 10 5 5 3 6 11 5 7 9 5 6 3 7 8 8 7 8 20 27 22 15 17 22 26 29 33 32 37 30 21 28 33 41 51 52 51
7 7 4 4 8 7 10 2 2 2 2 4 2 2 6 3 7 6 5 4 6 6 3 18 14 25 31 28 20 12 11 20 25 32 34 32 27 30 24 34 36 43 51 51
6 4 5 7 4 5 5 4 6 4 2 4 8 7 2 4 4 3 6 9 8 17 14 16 17 21 29 36 28 20 7 11 18 24 30 33 31 25 26 30 35 41 46 50
1 5 3 2 2 1 3 4 3 3 1 7 1 1 6 7 13 6 9 10 10 11 13 18 20 22 29 32 34 30 21 12 9 15 21 26 28 29 31 29 27 30 35 44
3 14 8 5 7 8 7 8 6 7 5 8 3 7 13 8 6 5 11 8 16 19 18 17 19 27 31 35 39 38 30 22 16 12 17 21 26 28 30 30 31 34 39 46
5 7 1 5 4 5 4 6 3 2 2 1 9 11 15 14 8 15 17 18 17 16 16 18 21 29 32 35 35 36 36 33 30 23 19 21 25 28 32 30 29 32 34 37
3 7 4 3 1 3 5 0 1 2 3 11 8 14 13 15 11 13 16 15 13 12 14 15 17 23 27 28 30 32 33 31 31 31 25 23 25 27 31 32 31 34 35 35
3 7 7 3 5 6 0 3 3 3 4 11 13 8 3 7 8 9 9 8 9 11 11 10 12 17 21 25 30 32 33 34 36 36 32 27 23 27 31 33 32 34 36 36
5 4 5 10 8 5 5 7 4 4 6 5 11 8 10 9 10 6 3 6 9 12 12 10 13 14 17 22 24 27 30 32 37 38 37 35 32 26 26 30 33 33 36 39
2 2 3 5 4 3 3 2 5 2 2 13 11 7 9 7 6 7 5 7 7 8 9 10 13 16 18 21 22 22 27 28 32 34 36 38 40 35 28 26 29 32 35 38
3 4 12 14 11 5 9 11 4 5 9 14 14 7 4 7 10 8 7 6 6 9 11 9 7 14 19 20 19 21 22 24 28 31 27 25 32 37 39 36 30 29 34 35
3 8 8 13 16 7 3 8 13 13 16 10 17 17 20 2 3 5 7 4 8 9 9 10 9 9 16 20 21 22 21 23 28 28 27 27 28 33 37 37 36 30 29 35
2 7 2 6 6 7 13 16 19 20 19 16 19 23 4 4 4 5 6 1 6 9 11 10 9 12 13 18 21 24 23 24 25 23 25 28 29 33 33 37 38 35 31 29
3 2 3 16 2 6 9 15 14 15 18 9 15 4 2 3 5 6 5 4 5 8 9 11 8 10 16 19 21 20 25 29 32 29 27 29 33 32 37 39 39 36 32 28
4 4 4 9 4 19 5 2 3 7 2 4 4 3 6 7 4 6 5 6 6 8 9 10 11 14 20 24 27 27 27 29 27 25 28 28 31 34 37 40 40 41 34 30
16 9 4 6 8 10 10 5 5 5 5 7 6 4 4 3 3 8 9 8 8 7 10 16 17 21 23 24 27 27 23 26 26 23 24 28 32 35 30 29 34 41 40 33
7 12 8 2 4 7 3 2 3 4 4 7 6 6 6 2 2 9 8 6 7 13 16 17 21 24 23 25 23 24 23 23 24 24 26 28 33 34 33 33 32 32 36 36
3 2 12 11 8 6 6 4 4 5 5 5 6 9 8 7 11 9 4 6 10 14 17 19 22 22 25 25 23 25 25 24 25 27 31 32 30 31 33 34 36 35 35 31
5 4 3 3 1 8 4 3 5 5 4 6 6 11 8 10 14 14 11 9 6 11 20 21 19 24 29 28 24 26 28 29 27 30 32 33 35 34 34 33 36 34 32 28
3 5 4 9 6 3 5 6 13 11 10 13 5 9 8 10 11 10 6 6 8 16 21 23 21 25 31 29 24 26 32 31 30 30 35 38 37 36 35 32 34 31 27 24
5 6 9 13 13 14 16 17 12 10 11 10 7 8 5 8 6 6 6 10 11 19 19 20 21 25 31 31 29 29 34 33 34 37 40 38 36 37 35 33 32 30 28 25
9 4 8 13 14 14 18 16 18 16 9 5 2 0 0 2 6 6 10 11 14 20 22 22 23 25 32 37 37 34 34 34 37 37 37 36 34 34 34 33 32 31 32 31
13 17 11 14 16 13 18 16 1 4 1 3 3 2 1 2 7 8 11 15 18 22 24 26 28 29 34 36 38 36 35 34 35 36 33 31 31 31 31 32 35 36 40 40

GFSCGP_925_spd_006.txt.gz
Wind_Speed
4 6 11 17 18 19 10 14 18 23 20 16 20 19 18 24 22 24 22 16 14 13 14 16 18 20 19 14 12 13 15 17 20 23 24 27 29 28 30 32 32 33 38 42
5 11 19 4 6 11 13 14 21 16 15 3 14 19 23 18 15 14 14 13 10 11 14 20 26 26 27 25 20 12 10 13 17 18 21 22 22 25 26 26 27 31 34 40
16 11 5 8 12 14 13 14 17 16 13 13 11 13 5 9 10 5 4 5 8 13 18 20 26 31 31 30 28 19 11 8 11 14 14 15 10 14 17 21 22 24 28 34
7 2 5 7 11 12 13 10 15 11 6 10 8 11 8 7 9 3 8 15 13 16 18 18 20 26 30 30 27 27 19 7 5 8 10 14 15 15 15 18 21 23 26 29
2 6 5 5 7 9 5 2 2 1 6 7 3 7 1 2 2 7 12 14 15 17 18 19 21 26 27 33 38 31 26 19 10 3 7 10 14 13 12 10 14 19 21 27
11 2 4 4 2 3 4 1 1 0 3 8 4 7 3 3 3 6 11 13 13 15 16 18 24 28 36 36 33 33 31 28 21 12 7 9 12 13 13 12 12 15 18 22
3 5 2 3 6 2 5 3 7 6 6 12 4 6 8 7 8 7 9 11 14 15 16 18 22 27 30 34 33 30 32 32 27 20 15 12 11 13 16 15 13 14 15 19
9 16 8 7 9 6 9 7 6 8 15 17 6 10 9 11 13 13 13 13 14 15 15 18 19 23 23 24 27 28 29 29 28 28 23 16 13 13 15 15 15 15 16 18
11 15 3 4 1 2 6 7 3 7 6 8 16 23 17 9 11 10 11 11 13 14 14 15 18 20 22 22 23 24 25 24 25 25 25 27 20 16 15 15 17 18 15 16
2 9 3 2 2 5 8 3 8 5 8 20 17 20 13 7 5 7 8 9 9 10 11 11 13 16 17 18 20 20 20 23 24 23 24 25 25 23 18 16 16 20 22 21
6 7 16 3 9 19 10 8 6 5 6 7 10 13 7 3 4 5 5 7 9 11 11 11 13 13 15 16 18 22 24 24 26 26 25 23 25 26 25 23 19 16 17 18
10 4 9 22 13 5 4 12 14 10 11 13 14 18 2 3 6 6 4 2 3 6 10 10 13 15 16 18 20 19 19 21 23 23 22 23 24 25 27 26 26 25 22 20
2 4 5 6 6 3 6 8 16 16 4 13 9 3 7 6 5 4 2 3 2 3 7 8 9 14 15 16 17 18 18 18 18 21 21 23 26 29 30 32 30 31 26 23
4 5 13 17 18 12 9 9 12 14 8 14 17 24 20 11 6 3 3 3 2 1 4 7 8 11 14 16 18 18 19 19 19 19 19 20 21 24 28 35 38 36 34 27
4 7 14 13 15 17 17 15 18 20 17 10 21 20 20 16 6 4 2 3 3 4 6 6 7 8 11 13 16 17 18 19 19 19 19 19 19 22 26 30 35 38 38 35
3 7 15 23 22 20 19 18 21 19 20 23 26 27 19 3 3 4 4 5 5 6 9 9 9 10 11 13 14 15 16 18 20 24 23 21 18 19 25 30 31 33 35 35
9 6 9 20 13 14 11 17 19 21 24 24 23 14 5 1 4 6 6 7 8 7 11 12 12 15 15 15 16 17 18 19 20 26 29 29 26 24 24 28 28 27 29 29
11 12 7 13 9 20 14 5 11 18 18 5 2 4 3 4 7 6 9 10 12 9 10 12 14 18 19 20 19 19 20 21 21 22 23 23 24 28 28 27 28 28 28 28
18 14 8 9 15 21 23 16 12 12 18 7 7 4 4 4 6 12 13 14 15 12 12 13 14 18 21 21 21 20 21 21 22 24 25 24 23 27 32 34 33 31 30 32
8 14 11 3 8 13 10 2 4 3 6 8 3 3 7 3 9 11 13 9 12 16 12 14 16 19 20 25 25 22 23 24 26 26 27 27 26 27 30 32 35 39 35 35
1 2 11 12 12 10 4 5 4 5 4 6 5 11 11 10 12 16 14 11 15 13 13 13 17 20 22 24 21 24 26 27 28 27 28 30 31 32 33 34 36 36 38 38
5 4 5 1 4 10 6 6 6 1 6 8 12 14 14 14 14 14 13 14 11 10 13 18 19 22 27 25 23 26 30 30 30 29 32 35 35 35 36 36 36 36 35 36
6 10 5 8 5 0 9 6 11 12 13 16 14 15 12 13 13 13 11 7 8 13 16 17 16 21 29 25 22 27 34 33 35 36 37 37 36 35 35 35 35 32 32 32
12 13 11 10 19 19 19 18 19 17 16 16 14 13 12 13 11 8 7 8 9 14 15 16 18 22 29 28 28 28 34 34 35 38 38 36 35 35 34 33 32 31 30 29
11 3 8 14 19 19 20 19 21 21 17 14 7 4 5 4 6 7 8 9 12 15 17 16 18 23 29 30 30 30 32 33 35 36 36 35 33 33 33 32 32 31 33 33
14 20 12 15 19 15 20 18 17 12 12 3 3 3 1 2 5 7 7 11 13 16 19 21 22 24 28 31 32 33 32 32 33 34 33 32 33 33 33 33 34 35 40 41

GFSCGP_925_spd_009.txt.gz
Wind_Speed
8 9 11 17 17 20 20 19 20 21 19 17 17 16 17 20 20 16 11 8 9 12 16 24 26 27 28 29 26 20 11 5 8 11 14 16 18 18 20 21 21 22 23 25
5 12 17 17 8 12 15 17 19 17 9 1 13 18 21 17 19 7 8 9 12 12 15 20 26 28 29 27 27 24 18 11 3 6 8 10 10 14 16 17 18 20 22 25
17 14 6 11 14 15 16 16 18 17 14 11 11 15 13 9 14 9 12 14 14 14 15 17 24 29 30 32 31 27 22 15 10 5 4 4 5 4 6 11 15 15 18 21
12 7 7 10 16 13 16 11 11 11 6 10 4 11 12 8 8 14 12 12 13 14 14 14 19 27 30 29 28 28 27 22 17 10 5 5 7 9 8 9 11 13 17 22
2 5 4 8 8 7 6 1 4 5 10 12 11 7 8 5 8 13 10 10 12 12 13 14 17 19 21 24 24 25 26 24 22 18 13 9 9 9 9 6 9 11 14 19
17 3 4 10 2 7 2 6 10 7 5 9 14 12 7 1 6 11 9 9 9 10 12 13 16 19 21 20 21 22 22 25 29 24 19 16 12 12 12 12 12 10 11 14
5 9 5 3 7 5 7 8 8 8 9 13 6 6 13 4 8 8 9 8 7 9 10 11 12 16 16 18 18 20 25 28 28 26 25 21 17 13 13 13 12 12 12 11
10 17 5 7 5 7 8 8 8 11 13 14 3 8 8 13 11 11 11 9 6 7 9 11 12 14 15 18 21 22 26 25 23 21 22 23 24 19 16 15 15 14 14 13
10 10 3 3 1 2 3 6 6 6 9 9 13 20 19 14 11 8 9 8 7 7 9 10 11 13 15 19 21 23 21 20 21 21 20 20 21 22 22 20 17 15 15 15
3 9 4 3 1 8 7 1 5 3 4 7 13 20 15 13 8 7 5 5 7 8 9 9 11 13 14 15 16 17 18 19 19 19 19 19 19 19 19 19 21 21 18 16
5 4 15 10 9 14 7 6 11 12 10 13 17 14 11 6 2 6 5 3 4 5 7 6 8 10 10 11 12 13 14 15 16 18 17 18 19 19 20 22 22 27 26 23
9 2 8 23 20 17 10 15 16 13 8 11 12 13 13 2 5 4 5 5 1 3 5 5 5 6 7 9 11 11 12 13 14 15 15 17 17 21 22 27 29 29 27 29
2 3 5 8 10 2 7 11 14 18 18 24 17 14 3 4 5 6 6 6 5 2 1 4 5 6 8 10 11 11 12 12 13 15 16 16 16 18 21 26 29 30 31 31
1 8 14 14 18 19 17 18 16 14 11 14 16 21 17 12 5 6 5 6 6 5 3 2 3 6 7 9 10 13 14 15 15 15 16 17 17 17 17 22 28 32 32 30
5 11 15 18 21 21 21 19 22 23 24 23 25 23 22 19 20 13 8 5 5 5 3 3 4 5 9 9 9 11 13 14 16 18 22 21 21 23 26 26 26 26 30 32
8 9 11 17 18 20 23 24 27 24 24 25 24 25 22 12 7 2 4 4 7 7 5 5 6 8 9 11 11 12 14 14 14 22 26 29 31 31 29 27 28 30 29 26
11 8 8 19 15 18 15 22 22 24 23 23 22 13 8 6 5 5 6 7 8 9 7 7 7 10 12 13 12 14 16 15 18 21 23 26 29 27 27 30 34 35 31 30
12 11 9 13 11 19 13 10 8 13 15 12 10 1 1 2 6 7 7 10 11 11 11 10 10 13 14 14 14 15 16 16 19 22 24 25 24 27 28 29 29 31 31 32
18 15 8 8 15 18 24 18 19 14 18 12 4 5 2 6 9 13 10 7 10 12 13 13 10 12 15 16 15 16 15 17 19 21 24 26 27 30 30 32 33 34 33 33
5 13 11 10 13 16 15 3 4 4 12 6 6 4 6 9 9 11 12 11 11 13 15 11 8 14 15 16 17 17 20 20 21 23 25 27 30 31 33 34 37 37 35 37
2 4 13 13 15 12 4 5 3 7 8 8 4 7 10 11 11 14 12 13 14 13 8 8 12 15 16 16 18 20 23 24 26 27 28 29 29 31 34 37 36 36 37 38
8 7 6 5 7 11 5 5 6 3 5 4 9 13 14 13 12 12 13 11 9 6 6 10 13 16 18 18 19 24 27 29 30 32 32 32 32 31 32 34 37 36 36 38
7 10 7 6 6 2 8 10 10 11 10 14 17 14 12 12 13 12 11 8 5 7 8 10 12 17 20 17 17 23 29 29 32 34 34 33 34 33 32 32 33 33 32 32
14 17 11 13 15 22 18 18 17 16 16 16 15 14 11 12 11 10 6 5 6 8 8 10 13 16 20 19 21 22 27 29 30 33 33 33 33 34 33 32 31 31 29 29
12 4 12 13 19 19 19 20 19 17 17 16 12 10 9 7 7 5 4 4 7 9 11 11 14 18 22 23 24 25 27 28 30 31 32 33 32 32 32 32 31 32 33 33
16 21 12 15 19 16 18 16 14 13 16 11 7 4 2 1 3 2 4 5 7 10 12 15 16 19 24 25 26 27 27 26 29 31 31 30 32 32 31 32 33 33 38 39

GFSCGP_925_spd_015.txt.gz
Wind_Speed
2 4 6 11 11 4 2 3 4 5 9 2 8 6 9 10 12 8 8 10 11 12 14 23 26 28 29 32 31 30 28 26 24 21 15 13 12 9 1 1 7 8 11 15
4 5 13 7 5 6 6 5 6 5 5 1 7 9 9 13 6 8 13 9 10 9 11 17 21 27 32 31 31 30 29 28 26 24 19 15 11 13 14 11 6 4 3 11
8 8 5 6 6 7 4 5 4 8 5 3 3 7 8 3 12 13 9 11 10 11 11 8 16 24 28 30 30 30 29 27 24 21 17 15 14 14 13 15 12 9 7 6
6 10 7 6 6 6 4 5 5 5 2 4 3 6 6 4 7 5 7 8 8 10 9 9 12 19 23 24 26 29 32 32 29 25 24 23 23 20 18 15 12 10 9 10
6 4 4 5 6 8 8 3 2 2 2 3 3 1 7 9 4 6 6 7 8 8 8 8 12 17 18 21 22 25 28 30 30 31 29 27 25 20 17 16 13 13 11 7
5 2 3 5 1 2 5 2 3 4 3 2 7 7 5 5 8 6 6 8 9 7 7 10 15 16 17 16 20 22 26 26 27 28 28 28 29 27 27 25 23 20 15 12
2 4 3 3 2 4 3 5 2 1 0 6 5 2 8 4 5 9 12 8 8 6 7 7 10 14 16 18 19 21 24 26 25 25 26 26 25 24 25 25 25 26 25 23
5 4 8 5 6 6 5 6 4 5 3 4 5 5 4 4 11 14 9 8 7 6 6 6 9 12 13 15 16 17 20 23 21 23 23 24 25 24 24 24 23 24 24 24
5 5 2 2 2 6 4 4 2 3 1 2 4 5 2 5 7 9 9 7 6 6 6 6 9 10 9 9 10 12 16 16 16 18 20 21 20 21 21 20 20 20 21 22
2 2 3 1 3 2 2 5 2 2 2 4 5 5 5 5 7 6 8 8 6 5 6 6 8 9 8 7 8 9 12 14 14 15 16 17 17 16 16 17 21 20 20 22
3 4 3 5 5 7 2 2 3 3 4 4 2 5 3 6 8 9 7 7 8 7 6 6 8 11 11 9 8 8 9 11 12 13 14 15 16 18 18 20 22 25 25 27
1 4 4 8 4 5 5 5 4 3 5 3 4 8 4 8 7 9 8 9 10 9 8 8 11 10 11 10 8 7 6 5 7 9 11 14 15 19 20 23 24 26 28 28
5 1 2 9 3 3 2 3 4 3 3 9 8 9 3 6 7 9 10 10 11 9 7 7 10 10 10 9 7 5 4 2 4 8 10 15 18 21 22 24 25 26 26 28
6 4 6 8 4 3 3 6 3 4 4 4 10 11 17 9 5 7 9 9 9 9 9 6 7 9 8 7 6 5 2 6 9 10 13 16 22 27 27 29 30 31 32 34
5 5 4 4 4 2 3 7 11 5 11 8 20 15 18 12 2 2 1 2 7 7 8 8 7 10 9 6 5 7 10 10 11 14 17 19 25 30 30 32 34 36 37 39
1 2 2 4 3 4 7 14 11 14 16 14 18 21 18 3 3 2 2 4 5 5 7 7 9 14 14 14 13 11 8 7 9 12 16 20 28 29 31 34 37 36 33 33
4 5 3 6 2 2 7 17 17 12 13 7 11 11 3 4 4 4 3 2 2 3 3 7 8 16 17 16 12 8 6 7 10 14 19 24 24 27 29 31 32 31 33 33
6 6 3 4 3 2 8 4 6 7 7 6 1 4 6 5 5 4 4 5 6 5 6 7 10 11 11 10 6 4 5 7 12 18 20 22 23 23 27 32 32 33 33 34
6 5 1 3 5 6 12 6 5 5 6 6 5 4 6 4 2 3 2 1 3 4 7 8 7 10 11 6 5 2 5 11 14 18 19 18 23 29 33 33 31 31 31 33
8 8 7 3 6 9 6 3 4 5 9 8 5 6 6 4 1 4 5 5 7 11 10 8 11 10 9 6 1 6 9 12 14 12 17 22 24 26 28 29 31 31 31 33
3 2 15 14 8 6 5 6 4 4 8 3 5 6 6 4 6 6 4 7 12 11 8 10 9 10 6 1 6 10 12 13 12 19 21 21 23 26 28 30 29 31 32 32
7 6 4 2 2 7 7 2 7 7 2 5 6 7 7 7 8 6 8 7 9 9 11 9 7 4 1 5 10 12 13 15 20 20 22 24 26 26 26 29 31 28 29 31
2 7 5 9 6 5 7 6 7 5 5 6 7 9 9 8 6 8 7 7 9 13 10 7 4 2 3 7 11 13 17 20 21 22 25 26 26 25 25 27 27 27 27 27
5 3 4 4 5 7 9 8 7 8 9 9 8 9 7 8 8 8 7 6 9 12 9 5 3 4 7 9 12 15 18 20 21 24 26 26 25 27 24 23 24 25 27 26
7 5 4 5 11 8 10 10 13 9 9 8 7 8 10 8 8 9 6 5 10 11 7 4 4 6 8 11 15 17 17 17 20 24 25 24 21 23 24 22 25 26 28 29
9 15 9 12 15 9 11 10 6 7 10 10 8 6 7 8 8 5 5 11 10 7 4 4 6 8 11 15 17 16 15 15 18 23 20 23 23 23 23 24 27 27 28 30

GFSCGP_925_spd_018.txt.gz
Wind_Speed
1 4 7 12 12 4 3 4 6 5 7 4 9 7 10 10 6 8 7 7 6 7 7 16 23 26 27 28 28 27 25 23 18 13 14 18 19 19 16 14 11 7 3 7
4 6 14 3 4 7 5 5 8 5 7 4 6 7 11 5 4 4 11 8 7 5 5 12 21 28 31 30 29 29 27 24 22 18 15 15 14 19 20 17 16 13 10 6
8 7 5 6 4 6 4 6 4 8 4 4 3 6 8 3 7 11 9 7 7 6 5 6 16 24 29 32 32 31 29 27 23 18 14 14 13 15 15 17 16 17 12 10
6 7 5 5 5 5 5 8 8 5 3 4 1 5 5 4 5 5 6 6 6 6 6 8 13 20 26 26 26 29 30 30 27 23 24 25 24 22 19 18 16 17 16 15
6 2 3 6 8 7 8 3 3 1 3 1 4 2 6 5 3 5 5 6 5 5 6 6 14 19 21 23 23 25 28 28 28 29 28 27 27 24 23 22 20 18 16 17
6 2 4 6 1 2 3 4 7 5 2 2 8 7 2 3 3 6 6 7 7 7 6 9 15 17 18 19 21 24 27 27 26 27 28 29 28 28 29 30 30 29 28 27
2 5 4 4 4 2 3 5 2 4 2 6 3 2 6 4 2 10 15 9 7 7 7 6 10 13 16 18 18 23 25 27 26 27 27 27 27 28 28 28 27 28 28 28
6 4 8 6 8 9 7 8 6 7 4 5 1 6 3 3 6 11 11 9 7 6 6 7 9 11 12 13 15 18 19 21 18 20 22 22 23 24 25 25 24 24 24 23
5 6 2 0 0 4 4 4 2 5 2 2 5 3 3 5 6 8 8 8 7 6 6 7 10 11 11 11 12 13 12 14 15 15 15 17 17 17 18 18 21 22 22 22
4 3 2 1 2 4 2 4 3 2 2 4 4 5 5 8 8 7 8 7 7 6 7 7 12 12 10 10 10 10 10 11 11 11 12 14 16 17 17 19 19 20 21 22
5 5 2 4 5 9 2 3 2 2 5 5 2 6 3 7 11 13 9 9 9 10 10 9 15 16 14 13 12 11 9 9 8 8 11 12 13 16 17 18 19 20 22 23
4 4 4 7 1 2 1 5 6 5 6 4 3 9 1 5 7 9 10 11 10 10 8 9 15 17 16 15 12 11 8 6 6 6 6 9 11 15 18 19 20 21 22 24
7 2 1 5 4 2 4 4 2 2 3 5 4 7 2 1 5 7 10 9 9 9 8 8 13 17 17 16 14 11 8 5 2 2 3 6 10 16 21 22 23 24 27 29
6 5 7 12 5 3 3 4 3 3 2 3 7 5 6 7 6 6 7 8 9 9 9 7 9 16 18 16 14 12 10 7 3 2 6 10 14 20 25 28 29 30 32 35
4 6 5 3 4 4 4 9 6 8 8 8 17 11 15 5 7 8 8 6 5 7 9 10 8 14 17 16 15 14 13 10 6 6 8 11 14 19 25 27 29 31 34 38
2 1 2 3 4 6 6 11 5 11 13 10 15 19 14 7 3 3 6 4 4 6 7 7 9 15 19 21 19 16 15 12 9 8 9 12 17 23 26 27 30 34 38 37
6 6 3 5 3 4 8 8 16 14 10 8 11 12 2 5 7 5 5 3 4 4 5 8 8 17 23 24 24 19 13 10 8 9 10 15 19 22 23 27 33 36 38 39
4 5 3 3 2 2 7 1 3 7 8 5 3 4 6 4 2 5 4 5 6 6 7 7 14 20 23 21 17 14 11 9 7 8 11 15 17 19 25 29 31 33 34 33
4 5 3 4 5 6 9 6 7 7 7 6 6 3 5 3 3 4 4 6 5 6 10 13 14 15 16 16 15 13 10 9 10 11 12 12 17 22 24 27 30 30 31 32
4 1 6 3 5 9 7 2 5 5 6 6 6 6 7 6 3 5 6 5 8 12 14 15 14 12 17 15 13 10 7 7 8 9 12 17 19 21 24 26 28 30 30 30
3 1 14 10 4 7 7 5 2 5 7 4 6 6 8 5 8 5 7 6 13 16 14 13 16 18 17 14 10 6 6 6 6 10 14 15 18 21 23 26 27 30 32 28
7 8 5 3 3 9 8 5 8 6 2 5 6 6 11 12 7 8 8 7 13 13 10 16 19 18 14 11 8 6 5 7 10 12 13 16 17 18 21 23 28 30 30 29
2 7 5 9 7 3 8 7 11 5 6 6 7 8 12 10 8 9 8 8 12 16 18 19 21 18 14 10 7 5 6 9 10 11 13 16 17 17 19 22 26 29 26 24
4 4 3 4 5 6 9 11 5 8 8 8 8 10 9 11 10 10 8 8 10 16 21 20 17 14 12 9 7 6 7 9 10 12 14 16 17 19 20 21 24 24 24 22
6 6 6 3 5 3 8 9 9 10 10 9 8 10 13 11 10 11 8 7 15 17 17 17 16 13 11 9 7 6 8 9 10 12 14 16 17 18 21 21 21 23 25 24
7 10 4 6 15 11 8 8 8 10 11 12 12 10 10 12 12 8 8 15 14 17 17 15 12 11 10 8 7 7 7 9 9 11 14 16 18 19 20 20 23 23 23 24

GFSCGP_925_spd_021.txt.gz
Wind_Speed
2 4 7 13 11 3 4 4 5 4 4 1 7 6 12 4 4 6 7 7 7 7 9 19 23 24 25 27 28 28 26 24 18 16 19 22 23 23 22 19 16 14 9 7
4 7 13 4 5 6 2 1 7 5 4 6 7 8 10 4 2 3 9 6 7 6 7 15 22 27 29 28 29 30 31 28 25 24 18 18 22 27 25 23 21 18 16 14
8 6 4 6 5 6 4 7 3 6 4 3 4 6 7 3 5 9 7 7 6 7 6 7 16 23 25 29 31 32 31 31 28 22 18 18 18 22 25 26 24 23 21 20
6 5 4 3 5 7 5 8 8 7 3 5 3 5 5 5 4 4 6 6 6 6 6 7 12 19 22 23 26 29 32 32 30 27 29 31 31 28 25 25 24 26 25 23
7 4 4 5 8 6 6 2 5 2 2 2 3 2 6 5 3 5 5 6 6 5 6 6 12 16 18 20 23 27 28 29 29 29 29 31 32 29 27 27 27 28 29 30
6 1 4 7 3 6 4 4 6 4 2 1 9 8 3 4 2 5 5 6 7 7 7 10 11 13 16 18 21 24 27 28 26 27 27 27 29 27 27 27 27 27 27 28
2 5 3 3 3 2 3 6 2 3 2 6 1 2 7 1 2 6 14 10 7 5 5 6 10 11 13 15 19 21 24 25 24 25 25 25 25 25 26 24 23 23 24 25
5 4 9 5 8 7 7 8 6 7 3 4 1 6 5 1 2 6 13 11 7 7 7 6 10 11 11 13 15 17 19 21 20 20 21 21 21 21 20 19 17 17 19 20
5 5 1 4 4 5 5 4 4 5 3 2 4 4 0 2 5 6 7 7 9 8 7 7 13 12 13 13 12 13 15 16 15 16 15 17 16 15 15 14 14 16 17 17
4 3 2 2 3 2 3 5 3 2 2 4 4 6 5 7 7 7 8 10 7 7 9 8 14 15 13 12 12 11 11 13 13 12 12 13 13 12 11 11 13 15 15 16
6 5 2 1 5 8 2 2 3 3 4 5 2 7 4 7 9 13 12 9 9 10 10 7 14 15 14 13 12 11 11 11 11 10 10 9 9 10 11 13 14 15 17 19
6 5 4 8 2 2 2 6 7 6 7 3 2 12 3 3 8 9 9 9 8 8 8 9 17 19 19 17 15 14 13 11 10 8 6 4 4 7 10 13 15 17 19 20
7 2 1 4 2 2 3 3 3 4 3 6 5 7 3 5 5 7 8 9 8 8 7 7 14 19 21 20 19 18 15 13 10 8 5 2 3 8 12 16 20 22 24 26
6 5 7 13 6 4 4 5 5 5 3 7 15 8 3 4 6 5 6 6 8 7 6 7 8 18 24 22 21 19 17 14 11 9 5 2 5 10 14 18 22 24 25 29
3 6 4 4 5 5 6 6 8 7 5 8 4 7 7 9 11 9 7 7 6 8 8 10 11 16 23 22 21 19 18 16 13 10 6 4 6 10 15 20 24 25 28 31
0 3 3 2 4 5 8 9 9 12 10 9 14 19 12 3 5 4 8 7 6 7 7 7 7 13 20 24 24 22 20 19 16 13 10 7 9 14 18 22 25 28 31 33
5 5 3 10 2 4 9 10 14 10 9 8 13 16 2 5 7 7 7 6 7 7 6 7 9 17 22 24 25 24 22 19 17 15 10 9 13 16 19 21 24 28 30 32
6 5 2 2 2 8 3 3 4 8 7 7 1 4 5 4 2 4 5 7 6 5 5 5 8 15 21 25 25 23 19 19 17 13 11 12 15 17 20 23 25 27 29 31
2 5 3 3 5 8 8 6 7 8 9 8 9 4 5 2 3 4 6 5 5 6 9 11 11 14 17 19 21 19 18 17 14 12 12 13 16 18 20 23 24 26 28 31
2 3 4 3 4 9 5 3 5 6 6 7 6 6 6 5 2 6 5 5 8 10 10 12 14 15 16 17 17 20 20 17 13 11 11 14 16 17 19 20 22 24 25 29
3 1 10 8 6 8 6 4 3 6 7 5 6 5 6 5 7 5 5 7 15 14 15 16 15 18 19 18 20 20 18 16 13 13 14 15 14 15 16 19 20 23 26 28
8 8 5 2 2 9 7 5 8 5 1 6 6 6 8 9 7 6 7 8 12 14 17 18 17 19 20 21 21 18 16 14 14 15 15 14 14 15 17 19 20 21 24 26
3 7 6 11 7 0 7 6 9 5 6 6 5 5 8 8 8 9 8 10 15 21 24 22 21 22 23 22 20 18 15 14 14 14 13 13 14 14 15 18 21 23 23 23
5 4 3 4 4 6 9 7 4 7 7 6 6 8 8 9 10 10 8 8 11 21 22 22 22 24 26 23 19 16 14 14 14 14 13 12 14 14 14 16 18 21 22 23
5 8 5 2 4 1 8 8 7 8 8 6 5 8 10 9 11 9 8 8 17 21 19 21 26 26 27 22 18 15 13 14 13 13 12 12 12 13 15 16 17 19 22 19
7 7 4 5 7 6 6 8 13 11 12 11 9 8 9 10 13 9 11 18 20 19 17 20 24 22 21 19 17 15 14 14 13 14 13 12 12 13 14 16 22 18 18 19

GFSCGP_925_spd_024.txt.gz
Wind_Speed
2 4 8 13 10 3 5 5 6 3 3 2 6 6 12 5 6 7 6 6 6 6 6 15 18 18 19 20 21 22 22 20 21 24 26 27 29 28 27 25 23 24 22 20
4 7 10 4 5 5 3 4 6 5 3 4 7 8 11 2 2 3 8 7 6 4 5 13 19 21 23 22 24 25 25 25 24 26 26 26 28 30 27 25 24 22 21 20
7 5 6 6 5 6 5 8 4 7 3 3 2 6 8 3 3 6 6 5 5 7 7 5 13 18 21 24 23 26 27 25 24 23 25 25 26 25 27 28 28 27 25 23
6 4 5 4 6 7 6 8 7 5 3 4 1 5 5 4 4 4 7 7 7 6 4 6 10 15 18 20 22 25 27 29 29 27 26 28 31 31 28 28 27 28 28 28
7 5 4 6 6 7 7 5 6 4 3 1 3 2 7 6 6 7 6 5 4 3 3 5 9 13 14 18 20 23 26 28 27 28 28 30 33 30 26 25 26 26 26 26
5 2 6 7 2 4 6 5 6 4 3 2 9 8 4 5 4 4 5 8 9 7 6 4 8 11 14 16 19 21 24 26 25 26 27 28 28 26 25 23 24 23 24 24
2 5 3 3 4 2 4 5 1 3 2 6 1 2 5 2 2 1 11 10 8 7 7 5 7 9 12 14 16 18 21 23 23 24 25 24 24 23 22 21 20 20 20 22
7 4 10 6 7 6 7 7 5 6 3 4 2 6 4 2 4 4 7 9 8 7 7 8 11 11 11 12 13 15 17 20 19 20 21 20 19 20 20 19 18 18 18 17
5 4 1 3 4 7 5 5 4 4 2 2 4 4 3 1 3 4 8 10 9 8 8 8 13 13 13 12 12 13 15 16 16 17 17 17 16 16 16 15 14 15 14 15
6 2 0 2 3 4 4 6 3 2 2 5 4 4 5 6 7 6 8 10 9 8 8 7 13 14 14 14 13 12 12 14 14 14 13 13 12 12 12 11 11 11 10 11
5 3 1 3 5 9 3 2 3 3 4 5 3 5 5 6 7 11 11 10 10 9 9 7 16 20 18 16 14 13 13 13 13 11 11 10 9 8 8 8 8 9 10 11
7 4 4 8 2 2 3 7 7 6 7 3 2 12 1 3 9 8 8 8 8 8 8 10 19 20 19 20 18 17 15 14 13 12 11 9 7 5 3 4 7 9 11 13
9 3 2 5 1 2 5 5 3 3 3 7 5 8 1 1 5 8 9 9 9 9 8 8 14 20 23 23 21 19 18 16 15 14 12 9 6 3 1 5 9 13 16 18
6 6 8 9 6 5 4 6 5 6 6 8 14 17 4 5 7 6 7 7 8 8 9 7 7 17 24 26 25 23 20 19 17 16 14 12 9 5 4 7 11 15 18 21
4 5 3 2 3 4 6 7 9 10 11 12 14 15 7 11 9 9 7 6 5 7 7 7 8 14 20 26 25 23 23 22 21 19 17 14 10 7 6 8 13 18 21 23
2 3 3 2 2 4 6 11 11 15 6 6 4 13 7 6 5 4 8 8 6 8 7 7 7 13 21 28 28 27 25 25 24 23 20 16 13 10 10 12 16 20 22 24
7 6 4 8 4 6 10 13 15 7 5 10 14 14 3 5 8 8 8 6 7 8 7 6 7 13 19 26 29 28 28 25 26 25 22 18 15 13 12 14 17 20 22 24
7 6 3 3 3 8 2 2 3 14 10 9 1 4 6 5 5 5 6 8 9 7 7 6 10 13 16 19 23 25 24 23 25 25 22 19 16 14 13 15 17 19 22 24
1 5 4 4 6 7 6 5 7 8 10 10 11 7 5 5 4 4 6 7 7 8 12 14 11 8 7 11 15 19 21 22 23 25 23 19 16 14 14 16 18 20 22 24
3 3 6 4 4 7 3 2 4 5 6 8 9 9 7 6 2 5 5 6 9 13 13 13 10 8 10 13 14 16 20 22 26 25 20 17 14 14 15 17 19 20 21 24
4 0 8 6 7 7 5 5 4 5 7 4 6 6 7 5 5 4 4 7 16 18 17 12 10 14 16 15 15 19 21 25 22 19 17 14 14 15 17 18 18 19 21 24
7 8 4 2 3 10 7 4 8 5 3 5 6 7 7 7 6 6 6 6 10 16 16 14 14 17 19 17 17 21 23 21 18 17 15 14 14 15 16 18 17 18 20 23
2 6 6 10 6 1 10 4 4 5 6 5 6 7 8 7 7 8 8 9 12 18 22 18 18 20 21 20 20 23 23 19 18 16 15 14 15 15 15 17 18 20 19 22
4 3 3 3 3 5 9 5 3 7 7 8 7 6 7 8 7 8 7 7 9 19 25 28 20 20 23 22 22 23 20 18 18 17 15 15 15 15 15 16 18 19 21 22
5 7 6 1 1 2 7 8 8 9 9 5 5 7 9 6 8 8 7 7 15 21 25 23 21 24 27 23 23 22 19 18 17 16 15 15 15 16 17 18 18 19 19 19
6 7 4 4 8 6 7 12 12 10 9 10 9 7 7 9 10 6 8 17 20 21 23 19 21 22 23 20 22 22 20 18 17 17 16 16 16 16 17 18 21 16 17 18

GFSCGP_925_spd_027.txt.gz
Wind_Speed
2 4 8 12 9 3 5 4 6 2 2 3 6 6 13 7 5 7 7 7 5 5 5 12 15 14 15 16 16 16 18 21 24 26 26 28 30 29 28 25 24 23 21 20
4 7 8 4 4 4 4 4 6 5 3 3 6 9 12 3 3 4 9 8 8 5 5 10 14 17 19 19 20 19 18 19 22 24 27 28 29 30 27 25 24 22 21 20
8 4 7 8 4 6 5 7 4 6 3 2 3 7 6 1 2 4 4 4 4 6 6 6 11 16 17 20 21 20 20 22 25 26 27 29 30 28 29 30 30 29 27 26
5 2 5 4 5 7 5 8 6 4 3 4 1 5 6 0 2 3 5 5 6 6 4 6 7 11 14 17 20 22 22 18 16 16 19 24 30 30 27 30 29 30 29 29
7 7 5 5 7 7 6 6 7 4 4 2 3 1 7 1 5 4 6 6 7 8 7 7 7 9 11 13 20 23 24 26 25 25 26 30 34 31 27 27 26 27 26 25
4 1 6 7 2 5 9 6 6 4 3 1 8 7 4 4 5 4 6 8 6 4 4 5 6 7 11 13 17 21 24 24 23 24 25 27 29 27 25 23 24 23 23 23
1 5 3 4 6 2 1 6 0 1 0 5 1 5 7 6 5 4 11 11 9 8 7 8 11 10 9 11 15 19 22 24 22 23 24 24 24 23 22 21 21 20 19 20
7 5 11 7 7 8 7 6 5 7 4 3 2 6 6 3 2 1 4 11 10 9 7 8 13 14 15 13 13 15 18 21 20 20 22 20 20 21 20 19 18 18 17 17
7 5 1 2 3 5 5 5 2 5 3 2 4 4 4 1 1 3 6 10 12 11 10 9 16 17 16 14 13 14 15 17 17 18 19 18 17 17 18 16 15 14 13 13
7 3 0 3 3 3 4 6 3 2 1 4 4 4 4 6 7 5 7 11 12 9 9 9 17 21 19 17 15 15 15 16 17 16 16 16 15 14 13 12 11 10 9 8
5 3 1 4 7 11 4 3 3 3 4 5 2 4 5 8 8 12 12 13 14 14 13 11 18 22 20 19 18 18 17 18 17 16 15 14 13 11 9 7 7 6 6 6
9 4 4 8 2 1 3 8 7 5 6 3 3 5 0 3 6 8 9 11 11 12 13 14 18 22 22 22 22 22 21 20 18 17 15 13 11 9 7 6 4 3 4 5
10 4 2 5 2 2 5 5 4 4 3 8 5 5 3 4 4 6 8 9 11 10 7 7 13 21 26 26 26 25 23 22 20 19 17 15 13 11 9 6 3 0 3 6
11 6 9 15 6 6 6 6 6 7 4 5 13 13 6 6 9 7 8 8 8 9 11 9 8 17 24 28 28 27 26 24 23 21 20 18 16 13 11 8 4 2 5 8
8 8 6 4 3 4 7 7 11 12 13 11 11 13 7 13 11 11 8 6 8 9 8 8 9 14 21 25 29 31 29 27 26 24 24 23 19 17 14 10 6 5 6 9
3 5 5 4 3 2 4 9 11 15 11 10 11 15 6 7 5 7 8 8 9 7 7 7 7 12 19 26 31 32 31 29 28 27 29 26 22 20 16 12 9 8 8 10
9 7 5 6 3 4 8 15 16 8 6 12 12 17 6 6 7 7 9 9 9 7 7 7 8 13 16 19 24 29 31 29 29 31 30 27 25 22 19 15 12 10 11 13
8 7 4 3 4 7 1 1 7 16 8 6 1 4 7 6 4 4 6 7 7 6 6 6 9 10 10 11 15 20 24 26 27 29 30 28 26 24 20 15 13 12 13 14
1 5 4 5 6 6 4 5 8 8 9 10 12 7 5 5 4 3 4 5 6 7 12 14 12 10 9 11 12 15 18 21 23 28 30 29 28 24 19 16 14 13 14 14
2 1 5 3 5 10 2 2 5 5 6 8 12 8 8 7 3 4 6 5 8 12 14 16 15 13 13 12 11 13 17 19 23 27 28 27 25 22 18 15 13 14 14 16
4 2 8 5 4 5 5 5 4 6 5 4 6 5 8 5 5 6 6 6 14 17 19 15 18 20 17 13 13 14 15 19 20 19 20 22 21 19 16 14 13 14 14 16
6 8 4 2 2 8 8 4 8 5 1 6 6 7 9 6 7 6 6 5 8 13 14 19 20 20 17 16 16 17 19 19 17 17 19 20 19 16 15 14 14 14 15 17
3 6 6 9 5 2 14 3 4 4 6 6 8 7 8 9 7 7 6 8 11 15 20 23 24 23 18 18 20 21 23 19 17 19 20 19 18 17 16 15 15 14 15 16
4 3 3 4 4 4 11 2 2 5 5 6 6 7 9 8 8 7 7 6 9 18 19 23 23 23 24 21 23 25 21 18 19 21 21 19 18 16 15 14 14 15 15 16
3 7 6 0 1 1 6 8 6 7 5 3 3 7 9 8 6 8 6 6 14 19 21 20 23 27 31 25 24 23 22 20 22 21 20 18 16 14 13 14 14 16 16 16
5 6 4 4 8 5 5 10 9 10 10 9 9 6 6 9 10 6 7 14 17 19 21 19 20 22 25 22 22 22 21 20 20 20 19 17 16 15 15 15 16 15 14 13

GFSCGP_925_spd_030.txt.gz
Wind_Speed
2 7 12 17 15 6 1 4 11 2 1 4 10 12 10 12 10 10 8 7 7 4 4 5 5 5 6 8 11 14 16 18 18 20 21 21 20 19 19 20 19 18 17 16
5 13 13 3 8 8 5 9 14 6 3 4 9 14 16 10 11 11 10 9 8 7 5 5 7 9 9 11 11 11 11 11 10 11 15 13 17 18 18 19 20 19 18 17
12 2 6 8 7 10 11 14 12 9 1 5 5 15 18 7 4 5 8 10 10 11 10 8 8 8 8 11 14 17 16 16 16 17 19 20 19 19 18 18 22 23 23 24
8 3 6 8 8 12 14 12 10 8 4 8 2 7 6 7 8 8 11 12 12 12 9 9 8 8 9 8 11 14 16 19 17 15 13 14 15 16 15 17 19 21 22 23
6 9 10 11 9 11 6 5 9 6 9 5 9 6 7 4 10 12 13 14 14 12 11 9 9 8 8 10 12 13 15 15 15 18 20 20 22 18 15 15 18 20 21 21
5 1 5 4 3 7 12 6 5 3 1 8 15 13 7 7 7 7 13 13 14 14 12 12 10 10 9 11 15 16 18 18 19 20 19 18 20 18 16 13 15 14 16 18
4 10 4 3 5 2 6 10 4 4 5 7 1 9 9 7 2 2 14 15 15 13 12 12 13 12 11 11 12 13 15 16 16 17 19 17 18 16 16 13 13 12 12 13
9 7 15 12 14 9 16 12 5 7 6 2 2 7 5 2 4 4 5 15 15 15 13 13 16 14 13 12 12 14 15 16 15 17 19 18 18 14 15 12 12 12 12 13
9 6 2 4 3 10 7 10 1 3 1 2 6 5 6 4 6 5 9 14 17 17 16 14 16 16 16 15 15 15 16 16 15 17 17 17 16 15 16 14 12 12 12 10
6 5 2 3 3 0 5 11 4 4 5 6 5 6 8 8 13 9 11 15 16 16 16 15 20 20 19 17 16 15 15 16 17 17 16 16 15 15 15 13 11 10 9 8
6 4 4 5 12 17 6 7 4 3 4 4 4 5 5 12 13 14 13 15 17 19 18 15 20 20 19 18 18 17 17 17 18 18 17 18 16 15 13 12 10 8 6 4
10 3 6 11 1 3 11 12 12 7 6 4 2 6 2 2 6 9 10 13 15 17 17 18 21 21 21 21 19 20 19 19 19 18 19 18 17 16 13 11 10 8 6 3
12 5 6 4 4 2 8 9 15 11 2 11 7 3 1 1 4 7 9 12 14 16 16 16 20 22 23 22 21 22 21 20 19 20 20 18 18 16 14 12 10 8 7 5
17 9 16 18 8 10 12 15 16 18 10 13 19 8 8 10 10 11 11 12 14 16 17 15 16 22 21 22 22 23 22 21 22 23 21 20 19 19 17 15 12 11 9 7
13 16 18 22 12 9 10 19 21 25 27 15 17 20 15 15 15 15 15 12 15 17 16 16 15 19 21 21 22 22 21 23 23 24 22 22 22 20 18 17 16 13 11 8
5 14 16 16 13 12 9 18 25 26 24 23 15 18 8 14 8 9 12 14 15 15 15 15 13 17 20 21 23 22 23 24 24 23 25 23 23 24 22 19 18 15 13 11
12 11 7 15 9 5 9 23 21 18 17 19 19 17 6 8 12 13 13 16 15 14 14 13 14 17 17 19 19 21 24 24 30 32 31 29 27 26 24 23 21 17 15 13
16 19 8 7 6 11 7 0 19 21 17 16 4 4 9 7 6 5 7 12 10 9 9 10 12 13 13 14 16 16 18 23 29 31 31 31 29 29 27 25 23 19 17 15
1 13 5 5 10 4 2 4 8 13 14 10 18 6 5 5 4 4 6 7 9 10 11 12 13 13 13 13 13 13 14 18 23 27 31 32 31 31 30 28 23 20 18 16
3 5 9 4 7 11 2 4 4 5 5 9 12 8 9 10 7 8 11 8 7 9 11 13 14 14 13 13 14 15 16 18 23 26 28 29 29 31 32 27 23 21 19 17
5 2 12 6 5 5 4 5 2 7 2 3 8 7 12 8 3 5 11 9 10 11 13 13 14 16 17 17 17 17 18 21 21 20 20 22 24 27 27 25 22 20 18 17
9 9 4 3 5 9 6 5 9 3 3 5 5 8 10 5 8 8 10 8 9 10 11 14 15 19 20 21 20 21 22 21 19 18 19 21 22 23 24 22 20 19 17 17
4 3 4 6 2 2 9 3 2 2 5 5 7 7 10 10 9 10 8 8 9 14 16 20 22 22 23 24 24 24 26 22 20 20 20 21 21 22 21 21 20 18 17 16
3 3 2 3 2 2 9 2 0 3 4 6 3 7 11 12 10 11 8 7 7 15 18 20 22 22 25 28 27 28 25 21 21 22 22 21 22 22 22 21 20 20 19 16
1 7 6 2 1 3 3 6 5 5 2 4 3 7 12 8 10 8 7 6 12 17 19 21 23 26 31 32 32 29 25 23 24 23 22 22 22 22 20 21 19 19 19 18
6 6 4 3 9 5 5 11 12 8 10 8 7 4 4 7 8 7 8 15 16 17 21 21 25 26 29 27 25 26 26 26 26 24 22 20 19 18 18 16 16 19 18 15

GFSCGP_925_spd_033.txt.gz
Wind_Speed
8 9 13 17 16 17 8 9 13 9 3 4 13 15 14 13 14 15 15 12 10 9 7 5 4 6 7 8 9 11 14 18 20 22 20 21 20 16 17 17 15 14 15 14
5 15 17 10 9 12 12 13 16 14 3 4 12 17 16 16 17 19 17 14 12 10 9 8 7 7 8 8 8 8 12 14 11 13 15 13 15 16 16 17 19 18 17 17
17 3 4 9 8 11 14 15 15 14 2 11 13 20 24 24 21 17 10 12 12 12 11 9 9 9 10 10 10 8 9 9 9 13 18 21 19 18 16 16 18 19 20 20
13 9 6 9 14 13 15 13 13 12 7 10 4 9 9 7 13 13 12 12 13 12 10 11 10 10 11 10 9 9 9 11 11 11 13 15 15 18 16 16 17 18 18 19
5 9 12 13 16 10 8 2 6 9 11 13 16 8 11 16 17 16 14 14 14 13 12 12 12 10 9 10 11 10 10 10 10 10 13 17 19 18 16 17 17 17 17 17
8 2 6 6 4 6 9 5 3 3 6 9 17 16 9 10 8 12 14 15 16 15 14 14 13 12 11 9 10 11 12 12 13 13 13 16 19 18 18 16 14 12 12 14
13 14 6 5 6 3 12 8 4 5 6 8 2 12 15 6 7 6 16 18 18 16 15 14 15 14 13 11 11 11 12 13 13 14 14 15 15 15 15 14 13 12 11 12
12 9 22 16 20 9 20 16 6 6 6 4 2 8 6 3 8 5 11 16 16 16 14 14 17 16 14 13 12 13 13 14 13 13 13 14 15 13 12 11 12 11 11 11
13 9 7 9 5 14 7 12 10 4 2 4 7 10 8 7 8 9 11 16 18 17 16 16 18 17 16 15 13 14 14 15 15 14 14 14 12 12 13 13 13 12 12 11
5 5 6 5 3 4 9 9 5 6 5 8 10 14 10 9 15 15 15 17 17 17 17 16 20 21 20 19 17 15 14 14 15 14 13 13 13 13 13 13 12 11 12 10
9 6 6 7 13 18 8 9 9 5 8 5 6 9 9 15 16 19 17 17 19 19 17 16 20 22 22 21 21 19 18 16 16 15 13 15 15 14 13 13 13 12 11 9
12 3 9 13 2 10 16 14 20 7 6 5 6 14 3 5 12 15 17 16 17 18 16 15 21 23 23 22 21 21 19 18 17 16 15 16 16 16 14 14 13 12 10 9
13 6 3 6 3 1 9 16 13 18 1 16 8 7 4 4 7 10 13 15 15 16 17 16 19 23 24 25 24 22 20 19 19 17 19 18 18 17 16 16 15 13 11 9
15 7 14 19 10 9 10 15 21 19 12 18 27 17 8 11 13 13 12 14 17 16 17 17 15 22 25 25 25 23 21 21 22 21 21 21 20 20 18 17 16 14 12 11
11 13 17 24 22 17 11 18 23 28 35 16 27 25 16 16 16 17 15 13 14 14 15 17 17 18 24 25 24 23 23 24 24 23 23 22 22 21 19 19 19 17 14 12
2 11 17 25 23 22 25 20 25 30 31 30 30 29 10 17 13 11 13 13 14 15 17 17 15 18 22 24 24 24 24 25 25 26 25 23 23 23 24 23 21 19 17 15
11 7 8 17 15 18 6 39 23 27 30 26 28 29 5 10 13 14 13 12 14 15 15 15 15 19 21 23 24 24 25 24 28 28 28 27 26 28 28 26 23 22 19 17
14 16 9 11 3 13 22 17 24 33 29 25 23 3 12 11 9 5 8 12 11 9 12 12 16 19 20 20 21 20 21 24 28 30 29 30 31 30 28 27 26 23 20 19
16 13 7 7 14 11 15 5 10 14 27 23 20 8 6 6 6 4 7 5 9 10 11 14 17 18 18 19 19 21 22 24 25 26 29 31 32 31 30 31 29 25 22 20
3 15 13 4 8 11 6 5 4 7 14 7 12 11 11 11 9 9 12 8 8 12 14 16 18 19 18 18 19 20 21 22 24 25 26 28 29 31 31 31 30 27 24 22
6 9 18 18 9 4 2 5 3 9 3 2 8 11 10 6 2 6 11 8 10 12 16 18 18 18 17 18 20 21 20 22 20 19 21 22 24 25 26 27 26 27 25 22
11 10 6 8 6 11 6 4 7 1 2 4 4 5 7 6 5 7 9 9 9 11 14 15 16 17 18 19 21 21 22 20 18 17 19 20 21 22 23 24 25 25 24 23
4 2 3 5 1 3 5 3 1 3 3 2 3 4 8 7 6 8 8 8 7 13 15 17 18 18 17 20 23 24 25 21 19 20 21 21 21 21 22 23 25 24 23 22
2 0 1 2 2 1 4 3 3 2 2 2 1 5 9 10 9 7 8 7 6 13 15 17 18 17 19 22 26 29 26 21 20 22 22 22 22 22 22 22 23 23 22 21
2 8 5 4 2 4 7 5 8 8 3 2 3 5 8 8 8 8 6 6 9 15 16 15 18 21 25 25 28 30 29 23 21 21 22 22 22 23 22 24 24 26 25 24
5 5 4 2 11 5 12 14 13 7 9 6 6 3 3 6 8 6 6 11 14 15 15 15 18 21 26 25 26 27 26 25 24 22 21 22 21 20 20 17 18 18 18 15

GFSCGP_925_spd_036.txt.gz
Wind_Speed
6 4 7 12 11 10 9 6 8 6 4 4 9 9 11 12 9 10 10 10 10 8 11 9 8 8 9 9 10 13 17 20 23 21 21 21 20 21 20 18 17 17 16 15
3 9 12 9 6 6 9 7 9 7 8 2 7 12 10 7 14 16 14 11 11 10 8 10 10 11 12 12 12 14 18 19 17 11 15 14 20 20 21 20 19 17 17 18
11 3 3 11 3 4 6 7 7 7 4 4 5 8 13 12 16 15 11 7 12 15 12 9 12 12 14 14 14 15 16 14 12 14 16 21 22 22 21 22 23 22 22 22
9 12 3 6 7 8 7 4 11 5 3 4 7 6 8 8 12 16 11 9 11 13 11 12 15 15 15 15 14 16 16 15 14 15 20 21 22 21 19 23 23 23 22 22
5 7 8 7 6 8 4 6 3 2 5 4 4 6 7 15 16 12 11 11 10 11 12 12 17 18 17 17 17 16 18 18 17 15 17 21 23 23 23 22 22 21 21 20
2 2 3 4 4 3 9 5 2 1 1 5 13 12 6 12 15 7 10 11 11 12 11 15 19 19 17 18 18 18 19 18 18 19 19 21 25 25 24 21 21 20 18 18
7 8 4 4 5 4 4 6 2 2 1 7 2 9 15 5 2 3 15 14 11 12 11 11 15 20 20 21 21 21 22 22 22 21 22 24 23 22 22 19 20 20 17 16
11 6 16 9 12 7 10 8 5 6 4 4 4 7 6 3 6 4 11 13 12 13 11 12 17 21 24 25 25 25 25 25 23 22 23 22 21 21 19 18 18 17 16 15
8 7 5 5 3 9 5 7 9 3 2 1 6 7 6 5 4 2 10 13 14 14 13 14 19 22 25 27 27 27 27 25 24 24 24 24 22 22 20 19 16 16 15 15
4 3 2 4 3 3 4 6 3 1 2 6 6 11 8 6 11 9 12 17 16 15 13 13 19 22 25 28 27 26 25 26 25 24 24 23 21 20 20 19 18 17 16 14
3 0 1 6 8 13 4 4 5 4 4 4 4 7 3 15 16 19 15 16 17 17 16 14 18 21 26 26 27 26 26 26 25 24 23 22 21 22 21 20 18 17 16 14
9 3 5 9 2 1 3 8 10 5 6 7 2 19 2 4 12 15 16 15 15 16 15 14 20 23 26 28 30 30 27 27 27 25 24 24 23 23 21 20 19 18 17 15
12 5 1 2 1 3 6 7 16 14 1 20 5 12 3 6 6 9 13 14 15 16 15 14 17 23 25 26 29 30 29 29 28 27 25 25 25 24 22 21 20 19 17 16
15 6 14 18 7 7 7 10 19 18 11 7 25 19 2 5 5 7 11 15 15 16 17 16 15 21 25 27 28 31 31 30 30 28 27 28 27 25 23 22 22 21 19 18
12 8 9 20 18 7 7 11 21 25 27 15 27 24 20 12 13 16 10 12 15 15 16 17 17 17 25 26 27 29 32 32 32 30 30 29 26 24 24 24 23 22 22 20
2 8 13 23 18 9 14 18 19 23 24 27 32 34 5 10 13 9 14 16 16 17 19 18 15 18 24 27 28 30 31 33 32 33 32 29 27 27 27 26 26 25 23 21
8 5 5 21 8 8 10 38 22 24 24 25 26 37 12 15 14 15 17 17 17 16 17 17 17 21 24 28 30 31 32 33 33 33 32 30 30 30 30 29 28 27 26 23
10 15 6 12 4 12 20 5 26 29 30 25 29 24 9 12 12 13 12 18 15 12 12 12 13 17 26 28 31 30 31 31 34 33 32 30 30 30 31 31 30 29 26 25
14 12 7 8 13 16 20 3 11 14 30 27 28 21 9 6 5 3 5 7 9 9 10 17 22 23 28 26 33 30 30 30 33 34 32 31 32 33 32 32 32 30 28 27
14 20 12 5 8 13 6 3 3 5 20 14 18 21 11 10 11 6 8 6 9 11 18 21 25 25 28 28 30 30 31 32 33 32 31 30 31 32 33 33 32 30 30 29
8 11 21 18 15 6 4 5 0 8 7 2 3 7 13 10 4 7 11 6 8 14 19 24 26 26 29 28 29 29 30 31 29 26 24 24 26 30 31 31 30 30 29 29
12 10 10 10 11 15 6 2 10 2 4 1 4 4 6 7 6 7 8 10 9 10 18 23 22 22 24 26 28 28 28 24 21 20 21 21 22 24 26 27 27 27 28 28
4 1 3 4 2 2 3 3 2 2 3 4 4 4 5 7 4 6 7 9 7 14 18 22 25 22 21 24 25 24 21 19 20 20 21 22 22 23 24 25 26 26 26 28
2 2 1 3 4 2 4 3 3 3 4 8 4 5 7 7 8 6 7 7 7 13 17 19 19 19 19 20 21 19 19 21 22 22 22 21 22 23 23 23 25 27 28 28
1 4 4 2 1 1 5 5 5 4 1 3 3 2 4 7 6 6 6 6 8 15 16 19 19 18 19 20 21 22 20 21 21 20 19 20 20 22 22 22 23 24 24 24
4 4 3 3 6 3 6 11 10 7 4 4 3 2 2 4 7 6 5 10 15 16 16 15 16 16 17 17 18 20 20 20 19 18 18 19 19 20 20 20 20 15 14 16

GFSCGP_925_spd_039.txt.gz
Wind_Speed
2 4 7 12 9 6 3 3 4 4 4 4 9 9 10 10 7 9 10 12 13 13 15 20 17 15 14 15 16 18 19 21 24 26 27 25 24 21 20 19 18 18 17 16
3 8 10 7 7 8 7 7 7 5 4 5 6 11 9 6 9 14 17 15 15 9 11 19 20 19 18 19 18 20 23 24 23 22 21 23 26 20 20 19 17 17 17 17
8 7 6 8 5 6 6 6 5 7 1 3 5 7 8 9 13 8 13 14 14 20 17 13 22 24 21 22 23 24 26 23 20 22 22 26 25 25 23 22 22 21 21 22
9 9 3 5 7 8 7 4 6 5 1 5 4 8 6 7 10 8 18 14 17 14 10 14 20 25 27 25 24 27 27 24 23 23 25 29 32 31 26 27 26 25 23 23
9 8 7 8 7 8 7 3 2 3 3 1 3 5 6 8 11 20 15 14 13 17 18 17 21 27 27 26 27 29 26 25 24 24 26 29 31 31 30 29 28 25 24 23
5 1 6 8 2 3 8 5 6 5 3 3 9 10 4 7 10 9 4 8 15 16 14 15 23 28 28 26 27 28 28 26 24 27 28 31 34 36 34 30 29 26 24 23
2 4 3 5 5 5 4 7 2 3 1 8 4 6 13 10 8 6 10 12 13 15 15 15 16 23 29 28 28 29 28 27 26 28 29 30 34 36 35 33 32 29 26 23
10 6 13 7 9 9 8 9 6 7 5 5 2 7 6 9 9 4 6 11 12 14 14 16 21 23 28 32 32 31 30 29 29 30 30 32 34 34 32 31 29 27 25 23
7 6 3 1 5 12 5 7 3 2 2 1 6 8 8 6 8 2 6 11 17 16 15 15 19 24 27 31 33 33 32 31 30 31 33 34 33 32 31 29 27 26 24 23
5 3 1 1 4 3 7 7 2 1 3 6 5 7 11 6 13 8 9 10 10 12 12 13 17 22 28 33 34 32 34 34 33 33 34 34 33 31 30 29 28 26 24 23
6 5 2 5 8 13 5 5 5 3 5 5 3 7 7 12 14 14 14 14 15 14 14 13 17 23 28 32 35 34 35 35 34 35 35 34 33 30 29 28 27 26 24 23
14 3 4 9 4 5 6 8 7 5 6 4 3 18 3 3 9 9 12 13 13 14 14 12 17 23 26 30 34 36 37 37 37 36 35 33 32 31 30 29 28 26 25 22
10 5 2 4 3 2 6 8 15 5 3 9 5 14 3 2 4 8 10 10 12 14 12 12 16 21 25 27 31 33 38 39 38 37 35 33 32 32 31 29 28 27 25 24
15 6 14 17 5 7 7 12 17 20 8 8 24 24 3 3 6 7 9 11 13 14 15 13 13 21 26 28 30 31 35 40 39 37 36 36 35 34 32 29 29 28 26 25
15 12 9 19 4 7 8 15 20 23 29 13 24 24 21 14 13 13 8 8 11 14 16 18 18 16 25 27 29 32 35 40 41 39 38 37 34 32 30 30 29 27 27 25
5 13 12 17 9 8 8 13 24 25 27 27 29 34 7 9 9 8 12 14 15 16 19 19 17 19 24 29 32 32 33 39 42 40 39 36 33 32 32 31 30 28 28 27
6 9 6 22 10 6 9 37 21 20 21 21 25 36 10 19 18 12 12 15 20 20 21 20 21 22 27 31 32 33 34 37 41 40 37 35 35 34 35 33 31 31 31 29
9 12 5 12 6 12 24 8 27 30 28 23 26 32 16 19 17 13 14 17 18 18 17 17 16 23 27 28 29 28 32 39 40 39 38 37 36 37 35 33 34 33 32 31
18 15 7 9 14 12 20 7 12 13 29 29 29 32 26 10 3 12 11 17 20 19 17 21 30 29 28 34 36 36 36 37 38 39 39 38 39 37 35 36 36 34 33 32
15 18 12 5 9 13 17 4 4 6 21 15 23 28 23 9 11 21 8 8 9 10 18 21 24 27 27 29 35 36 34 35 36 38 39 38 37 36 36 37 36 35 34 34
16 15 18 17 13 7 6 6 6 9 8 3 1 8 5 11 13 1 8 5 6 11 19 23 26 25 27 33 36 30 32 35 38 36 34 33 33 34 33 33 34 34 33 32
14 10 15 13 15 20 5 3 15 4 3 1 1 1 3 4 3 4 7 8 8 9 16 22 21 21 27 32 35 29 32 32 30 29 28 29 29 30 31 31 32 31 31 31
4 2 3 6 3 1 2 2 2 2 2 4 3 3 4 5 3 4 6 7 6 10 15 20 23 24 23 27 31 30 29 26 25 25 27 27 26 28 29 30 30 30 30 31
3 1 1 1 2 2 3 3 1 4 5 5 5 3 3 4 5 6 6 6 6 10 15 20 24 22 22 24 25 24 23 22 24 26 27 26 26 27 26 26 27 29 30 31
2 4 4 1 3 2 6 5 4 3 4 5 6 4 3 4 4 4 5 5 5 12 17 23 23 22 22 22 22 20 17 21 23 25 25 25 25 24 24 25 25 26 28 27
5 6 5 3 5 3 4 10 7 4 3 3 3 2 3 1 4 4 3 5 10 13 17 17 17 18 17 17 18 18 15 18 22 24 23 23 23 23 22 21 20 18 18 18

GFSCGP_925_spd_045.txt.gz
Wind_Speed
3 3 7 12 9 4 5 4 5 4 3 4 7 10 13 7 6 10 10 11 14 17 17 26 27 25 23 22 21 21 23 24 27 28 27 25 24 20 20 19 16 15 19 21
4 7 10 4 3 3 2 3 6 5 4 5 8 12 11 5 8 13 16 15 17 13 9 20 30 30 30 29 27 26 27 28 28 29 29 26 25 22 22 21 18 19 21 21
8 5 4 8 4 5 5 6 5 8 3 3 5 8 9 10 7 7 11 19 15 19 18 14 23 34 34 33 32 31 30 31 30 29 28 26 25 24 21 22 22 21 20 21
6 4 6 5 5 8 6 8 6 5 2 4 2 6 6 6 11 8 16 15 20 15 12 13 23 26 36 39 34 32 32 33 32 31 30 33 31 27 26 27 25 23 21 22
8 7 7 6 7 8 7 4 6 2 3 3 4 4 4 1 8 13 16 17 14 13 15 18 24 35 38 37 38 35 34 34 34 32 33 34 30 29 29 27 27 25 24 25
4 0 6 7 2 6 7 5 5 4 2 4 9 9 6 7 9 6 12 13 10 10 10 10 20 24 28 36 37 37 36 36 35 35 34 35 33 30 32 31 30 29 29 28
2 5 3 4 5 2 4 6 2 4 1 8 4 5 18 9 10 13 14 12 7 3 7 8 11 20 24 35 38 38 38 39 37 36 35 35 33 34 36 36 36 35 33 31
9 7 11 7 9 8 8 8 6 7 4 5 3 7 6 10 11 9 9 8 4 5 7 12 15 22 25 30 34 37 37 36 39 38 37 34 33 35 37 38 40 39 38 35
7 6 2 2 3 10 5 6 4 1 2 2 6 10 8 11 13 9 14 7 7 8 8 9 10 20 24 31 38 41 39 37 40 39 36 35 34 36 39 39 41 41 37 35
5 3 1 1 3 2 6 7 3 2 2 5 6 7 8 6 9 15 11 11 8 7 7 7 9 17 22 29 34 38 38 41 42 39 38 37 36 37 39 40 42 41 38 37
4 4 1 3 7 11 4 5 2 4 5 5 3 9 8 14 10 10 12 10 7 9 9 8 10 20 24 28 34 39 40 41 41 40 38 36 37 38 39 42 43 41 40 38
9 4 5 9 1 2 2 2 9 4 6 5 2 18 3 8 10 8 10 9 4 7 9 8 11 19 23 28 32 35 37 40 41 39 38 38 37 39 40 44 44 42 41 39
9 4 1 5 3 4 5 7 10 2 3 17 4 16 4 2 4 8 9 6 4 6 7 7 8 15 20 25 29 34 38 40 40 39 39 38 39 41 42 44 44 42 41 40
9 5 9 15 4 6 5 7 12 14 7 14 18 31 7 4 7 7 9 8 4 7 8 8 9 11 21 26 30 33 36 41 42 40 40 42 42 43 45 46 45 44 42 41
9 8 7 19 15 5 7 8 17 23 32 13 35 18 24 14 12 10 8 6 7 8 9 11 12 13 20 23 26 30 34 39 44 43 43 44 42 43 45 46 45 43 42 41
3 8 12 24 25 17 17 9 20 27 29 24 34 31 4 5 3 7 13 11 10 9 11 13 13 11 19 27 30 30 34 39 42 41 41 40 41 43 44 43 43 42 40 39
11 7 7 14 17 13 7 31 25 16 20 23 24 38 5 18 16 16 17 9 11 12 15 12 15 17 24 30 31 33 32 33 39 38 37 41 41 42 42 40 39 39 39 37
8 14 7 9 4 12 21 20 21 22 26 20 23 34 20 18 20 15 6 10 15 14 11 12 11 18 28 28 31 30 34 38 38 35 37 39 38 38 38 37 37 37 37 36
18 15 9 8 16 13 11 11 9 10 24 25 29 28 26 23 7 26 10 14 17 11 12 15 23 22 21 30 32 32 33 33 32 33 33 35 38 38 37 37 36 34 33 34
16 15 11 5 9 13 23 10 12 7 13 21 18 28 28 6 9 22 3 3 6 7 8 11 13 16 22 25 31 30 29 31 30 31 34 40 41 41 40 37 35 33 34 37
20 17 22 17 11 5 6 3 5 9 9 4 1 10 13 10 9 3 6 4 4 4 3 3 10 13 16 23 28 21 22 24 28 32 34 35 37 37 36 34 30 33 35 33
8 5 11 12 12 16 3 4 11 4 4 1 3 3 3 5 7 4 5 5 5 5 7 11 16 16 16 22 24 21 18 19 24 27 28 29 30 30 27 26 29 32 33 31
6 7 5 8 5 4 2 1 1 3 3 1 1 3 1 2 3 4 2 5 4 5 8 11 18 17 14 19 20 21 19 20 22 24 25 26 27 29 30 32 32 33 33 31
4 3 5 2 5 5 6 4 5 5 5 3 2 2 4 4 2 4 3 3 4 5 7 13 18 17 15 15 15 13 19 20 23 23 21 23 27 29 30 29 31 31 31 29
3 7 4 4 2 1 6 5 6 3 3 3 2 1 3 6 5 4 3 3 3 6 7 9 12 14 15 12 10 7 11 16 18 19 20 21 23 25 26 26 26 27 28 29
6 6 6 5 5 3 3 12 7 6 4 1 4 3 4 3 2 6 5 4 6 9 11 14 14 17 15 15 14 12 11 12 14 15 16 18 20 20 22 23 19 18 17 16

GFSCGP_925_spd_048.txt.gz
Wind_Speed
3 4 7 11 6 2 5 3 4 4 3 3 7 9 11 9 6 11 10 10 14 15 25 25 29 29 27 26 26 26 24 23 24 26 25 25 24 21 20 20 20 21 22 21
5 7 9 4 4 3 2 3 6 5 3 2 8 14 13 7 8 10 14 14 16 11 9 16 29 32 34 33 31 28 28 27 29 30 30 25 26 22 21 21 19 18 19 21
7 4 4 7 4 5 5 6 5 6 4 4 5 8 8 7 5 6 11 15 12 17 18 13 21 35 36 38 37 35 33 31 31 32 30 23 26 21 21 21 21 19 20 22
6 3 4 3 4 8 5 7 5 3 2 4 1 6 7 7 9 9 15 13 19 18 13 9 18 25 36 45 41 38 35 34 34 35 33 33 35 26 23 27 24 21 22 23
8 8 5 5 6 7 6 4 6 3 3 3 1 2 5 2 8 14 15 15 15 13 11 13 15 28 36 34 41 39 36 35 36 36 35 34 33 32 29 29 26 25 25 24
4 1 6 8 2 4 8 6 6 4 2 5 11 8 7 6 9 6 11 14 11 7 8 7 17 23 28 32 37 39 37 37 37 37 36 36 35 33 32 32 30 29 27 26
1 5 3 3 5 3 3 6 2 3 1 9 3 4 16 6 10 9 13 14 7 6 5 7 9 15 23 30 33 37 39 38 38 38 37 37 36 36 36 37 35 32 30 30
8 7 11 7 9 8 9 8 6 7 4 5 3 8 8 10 9 10 7 12 6 7 7 8 8 15 21 26 31 35 36 36 40 40 39 37 36 37 36 38 38 38 37 36
6 6 1 3 2 9 6 8 3 1 2 3 5 8 9 8 12 10 13 8 11 8 7 8 9 18 22 26 31 35 35 37 41 42 41 38 37 37 38 38 38 39 40 40
5 4 2 0 2 2 4 6 3 2 3 5 6 7 8 7 9 12 10 11 9 5 7 7 7 16 22 26 30 34 35 37 41 42 41 41 38 37 37 38 40 40 40 42
5 4 1 3 7 10 3 4 1 4 5 5 3 9 8 10 12 9 10 8 6 6 8 7 6 14 19 22 26 32 36 38 39 41 40 39 37 37 37 38 40 41 42 44
8 4 5 10 2 3 1 5 7 4 5 4 2 15 5 8 7 6 10 7 3 4 6 6 7 13 18 23 27 32 33 37 40 41 41 40 38 38 38 38 41 42 45 45
9 4 2 7 2 3 5 6 7 4 3 13 5 15 1 1 6 5 8 8 5 5 5 5 5 8 17 23 27 31 36 40 41 40 41 40 38 39 39 39 40 42 46 46
8 5 10 15 5 4 6 8 13 14 4 21 14 34 10 2 4 7 8 10 9 8 7 6 7 8 16 21 25 29 32 36 40 40 41 42 42 41 40 39 40 43 46 45
9 8 9 22 8 3 5 5 10 17 29 12 31 20 31 15 14 15 11 8 10 9 8 9 9 9 14 20 25 29 32 36 40 39 41 44 42 41 40 39 40 43 45 44
5 6 10 20 17 9 9 8 14 23 23 17 30 28 32 20 7 8 11 13 14 10 10 11 9 7 14 23 27 28 33 37 40 40 41 40 42 41 41 40 41 44 45 45
10 8 7 16 15 7 13 25 25 21 24 21 21 36 21 21 17 19 16 11 13 13 15 9 12 13 20 26 28 32 31 32 38 38 37 41 41 40 40 39 40 43 46 45
9 13 8 10 5 14 17 8 23 25 27 23 24 34 31 24 18 15 10 11 15 11 11 12 10 14 24 26 28 26 28 34 35 34 36 38 39 37 38 39 40 41 43 44
17 15 11 14 19 17 12 11 14 12 22 23 26 31 32 24 7 27 11 14 16 11 9 10 17 19 18 22 24 26 27 29 28 30 31 35 37 35 36 36 37 38 39 39
24 21 12 8 11 20 22 25 8 6 10 17 20 26 26 6 9 21 4 5 3 5 6 9 11 10 12 14 18 24 24 25 24 25 28 30 32 34 36 35 36 36 36 36
19 18 25 21 12 4 8 3 7 13 9 2 1 10 2 10 9 2 5 2 4 4 8 7 5 4 1 8 16 18 19 19 20 23 25 27 30 31 30 32 31 32 30 28
14 11 16 15 15 13 5 2 11 4 1 2 1 2 3 4 5 0 2 3 4 4 6 6 11 12 8 10 14 15 15 14 16 19 22 24 26 27 27 28 26 27 26 21
5 5 1 6 1 3 0 5 3 6 2 5 4 3 4 3 2 2 1 4 4 4 6 8 15 16 11 9 8 13 12 13 17 19 20 21 22 23 25 23 22 21 21 24
8 5 5 1 6 8 11 4 4 6 6 6 5 5 6 5 4 4 4 4 4 6 6 10 15 15 15 11 9 11 15 16 19 20 20 20 20 19 19 21 23 26 27 23
5 8 8 5 4 1 6 5 5 3 4 5 2 0 2 6 5 5 4 4 4 7 9 11 13 15 15 13 14 12 12 15 16 17 19 20 21 23 23 24 26 26 26 26
4 6 5 8 3 4 3 11 12 11 7 6 6 4 2 3 5 5 5 5 7 9 13 17 18 19 16 17 17 13 10 10 13 14 16 18 20 20 21 22 17 17 17 18

GFSCGP_925_spd_051.txt.gz
Wind_Speed
4 4 7 11 5 3 5 3 4 4 3 3 7 10 12 13 5 10 11 12 14 15 23 24 31 31 31 30 30 31 29 27 24 25 25 24 27 25 24 23 23 25 25 28
5 7 6 6 6 4 3 2 6 5 2 4 6 15 12 9 14 11 16 16 16 13 9 17 27 31 36 37 35 34 32 30 29 29 29 27 29 26 27 25 25 24 25 30
7 4 5 7 4 6 4 5 4 6 3 3 6 8 7 6 9 8 13 17 12 18 18 11 17 30 34 39 41 39 37 35 33 32 29 25 27 24 26 27 27 27 26 27
5 3 5 4 5 7 4 7 4 2 3 4 2 5 8 7 8 8 12 12 18 18 10 7 12 22 35 43 41 41 40 38 36 34 34 36 33 28 29 32 29 28 26 25
8 8 6 4 7 7 6 5 7 3 3 3 2 3 8 3 8 11 14 17 16 10 10 13 13 26 34 35 40 42 41 39 38 37 38 38 35 34 27 30 30 28 27 25
4 1 6 7 3 2 10 6 6 4 2 4 9 7 5 5 7 6 7 10 10 6 8 8 16 19 24 26 32 36 39 40 40 39 39 40 38 34 28 33 33 30 28 27
1 4 3 4 6 4 1 6 1 3 1 8 2 4 12 7 9 8 12 12 7 6 6 6 6 10 17 22 28 31 35 36 41 41 41 41 41 38 36 36 36 34 31 31
8 6 11 7 9 9 9 8 6 7 4 4 3 8 7 9 9 10 10 12 6 3 4 7 7 12 17 21 26 29 31 32 39 43 44 42 40 39 36 38 40 38 35 33
6 6 1 3 2 9 6 8 2 4 2 2 5 9 9 8 12 11 16 4 8 8 8 9 8 15 16 19 24 29 30 29 38 41 39 41 40 38 39 39 39 39 37 35
5 3 1 2 3 2 4 6 3 1 3 4 6 6 9 5 7 10 7 9 8 6 7 8 6 12 13 17 20 24 29 29 35 38 39 39 39 38 38 38 39 39 38 37
5 4 1 3 6 10 3 4 2 4 4 5 2 8 7 8 7 9 8 6 4 5 6 5 6 10 12 16 19 23 28 30 32 37 40 40 40 39 38 38 38 39 38 38
6 4 5 9 1 1 1 4 6 4 5 3 2 12 3 6 5 4 6 7 6 4 4 5 5 8 11 17 20 24 27 31 35 37 39 40 40 40 40 38 39 39 39 38
8 4 1 6 2 3 5 6 6 4 3 8 7 13 1 5 6 6 7 5 5 6 5 5 6 7 14 19 22 24 28 32 35 37 38 40 41 41 42 41 39 39 40 40
8 5 8 12 6 5 5 5 11 13 4 21 10 30 20 3 4 7 7 9 8 8 7 6 7 8 16 20 23 24 28 30 33 37 39 42 44 44 43 42 40 40 41 43
9 10 15 21 16 5 8 5 10 17 26 16 30 22 33 17 12 14 12 11 10 13 8 9 10 8 13 20 25 26 29 31 34 37 40 44 44 44 41 41 40 39 40 43
4 13 11 18 19 19 13 8 13 22 25 18 29 26 30 11 8 6 10 9 14 12 11 13 10 9 13 21 26 25 30 31 34 36 38 35 39 41 41 40 38 38 38 40
5 2 5 17 17 7 9 26 26 19 16 18 20 33 18 20 17 19 13 12 18 15 17 13 10 10 18 23 26 27 28 29 33 35 35 37 37 38 38 38 37 37 38 40
6 14 10 10 8 17 16 11 22 27 29 25 20 25 29 25 25 20 10 11 14 13 12 13 11 14 21 22 20 21 21 26 29 30 30 34 35 35 36 37 37 36 37 40
15 14 6 8 15 17 4 10 14 11 25 22 25 30 32 22 6 25 12 14 18 11 6 7 12 16 17 15 13 15 19 23 24 26 28 31 33 32 34 34 33 33 32 32
21 19 11 6 9 13 13 27 8 7 12 23 17 25 26 6 9 20 5 3 3 2 2 3 6 6 7 6 6 12 17 19 20 21 24 25 27 28 30 30 30 30 28 24
7 9 22 23 18 9 8 6 6 11 10 3 11 20 18 11 11 1 2 1 1 2 6 4 3 3 1 3 8 10 10 13 13 14 16 19 22 26 27 26 25 26 25 23
13 9 12 10 16 24 1 3 12 5 1 3 4 5 7 7 5 2 1 3 4 2 3 5 9 9 9 8 9 11 9 7 7 11 14 16 19 21 22 25 23 23 22 21
7 9 3 6 1 2 7 12 15 4 5 5 5 5 5 5 5 2 3 4 3 4 5 8 14 17 13 9 8 13 12 12 13 15 16 17 17 19 21 24 25 23 22 21
6 9 5 4 6 16 17 20 19 11 9 5 5 7 7 6 6 5 4 5 4 4 9 13 17 15 15 14 13 14 13 14 16 18 18 19 21 21 21 20 23 24 25 25
7 3 6 12 14 8 11 9 8 7 8 6 5 6 8 8 6 5 5 4 4 8 12 14 13 14 17 18 18 13 12 12 15 16 16 16 16 18 19 18 21 21 22 25
6 16 9 13 4 4 6 6 8 13 12 9 7 3 3 2 8 5 5 4 6 11 16 17 17 20 17 18 16 12 10 9 12 14 15 15 17 17 19 18 16 16 16 16

GFSCGP_925_spd_054.txt.gz
Wind_Speed
2 5 10 13 10 0 3 2 5 2 0 3 11 18 18 18 16 17 18 18 17 18 21 19 21 24 25 25 26 27 26 26 23 21 17 17 20 28 31 28 29 31 29 30
4 10 8 5 6 4 4 5 9 3 1 5 10 21 19 20 23 18 20 21 22 22 18 19 19 22 26 28 29 27 29 28 29 23 22 16 18 25 29 29 29 29 30 30
11 2 6 8 7 8 7 10 7 6 1 7 9 15 11 7 14 17 21 23 23 24 21 16 18 22 23 27 30 33 32 30 28 25 20 16 17 22 27 28 31 31 30 32
7 4 5 7 8 10 9 10 4 3 3 5 2 8 18 13 15 14 18 17 19 18 16 16 16 19 26 32 30 30 29 29 28 27 25 26 23 24 32 31 32 29 31 33
5 10 9 7 5 13 2 4 4 1 4 5 7 6 9 2 9 15 17 17 17 14 11 14 15 20 23 21 25 27 28 29 29 31 29 28 25 23 27 29 30 31 32 32
0 2 3 2 3 4 12 6 4 2 2 8 6 8 7 7 5 3 6 10 9 5 7 8 8 7 12 13 19 23 27 29 29 30 31 31 28 25 25 26 28 31 33 34
3 5 3 3 7 4 5 9 3 4 4 9 4 7 11 9 12 7 12 17 5 5 5 6 6 7 9 12 15 18 23 27 28 31 31 31 29 27 27 27 27 26 27 33
12 10 13 10 13 9 12 9 6 6 5 5 2 10 6 9 9 13 17 17 13 11 8 9 9 8 8 10 13 16 20 23 25 28 29 27 26 26 26 32 26 28 29 34
8 8 2 1 2 11 7 10 8 6 2 4 9 18 17 14 16 15 18 9 12 12 10 11 9 7 8 10 14 17 18 19 22 25 26 28 28 29 27 32 32 34 31 31
4 6 1 3 2 1 7 7 4 5 6 8 11 12 14 5 6 7 3 7 8 8 6 9 7 7 7 7 10 13 16 18 21 23 27 29 29 29 33 33 37 33 36 34
9 4 2 3 10 14 6 8 3 3 4 5 5 9 5 8 7 6 4 6 4 6 5 3 3 1 3 5 8 11 15 18 21 22 24 26 28 28 31 35 37 37 38 37
5 2 7 9 1 2 4 11 17 6 6 4 4 13 6 5 3 3 6 5 4 4 3 3 6 5 4 7 9 12 14 18 20 20 22 25 26 27 29 36 40 39 39 37
7 3 3 3 3 2 7 9 14 15 2 10 10 12 2 3 8 11 10 4 4 4 4 2 5 8 9 11 12 14 16 19 18 20 22 25 29 30 31 32 38 39 37 36
8 8 10 14 9 3 8 12 18 17 9 20 17 28 26 12 7 7 5 8 10 9 9 9 8 10 13 12 14 15 18 18 18 21 23 27 29 29 28 28 36 39 37 36
6 13 20 25 22 7 7 8 16 20 25 18 26 25 34 20 19 19 17 18 18 13 16 13 10 11 15 15 16 17 18 18 20 23 24 27 26 26 25 28 36 38 38 38
5 5 9 18 19 18 18 19 20 24 26 22 31 28 34 23 19 13 13 11 14 17 19 20 17 11 12 18 19 18 19 21 21 24 26 22 23 26 30 32 35 36 37 36
7 5 5 13 17 17 13 27 29 25 24 25 22 33 24 25 19 18 20 12 16 18 21 21 18 14 16 18 18 18 20 19 24 27 27 28 28 30 32 32 33 35 35 35
10 7 4 7 9 17 13 18 21 28 28 27 24 27 31 27 20 24 15 15 21 22 21 17 15 19 16 11 13 13 16 19 22 25 25 27 27 28 28 29 30 29 30 33
13 14 10 8 16 15 10 12 16 15 27 24 26 30 30 27 19 27 24 21 22 21 14 11 10 12 11 9 8 8 10 13 15 16 21 23 25 25 26 27 27 27 27 27
20 20 12 11 13 20 18 19 13 5 14 20 16 23 26 22 14 21 6 2 3 1 1 5 8 9 7 6 4 4 5 7 9 12 14 16 19 22 23 23 22 22 22 22
5 8 20 21 18 10 5 10 6 7 5 9 9 18 20 18 17 14 2 2 2 2 3 3 2 3 6 6 3 4 3 4 4 5 8 10 13 16 17 17 18 20 20 20
8 5 9 10 12 20 4 1 10 4 10 8 7 6 8 9 8 3 2 3 3 3 2 3 3 5 6 6 6 8 7 4 5 7 8 9 9 11 13 17 18 19 21 20
13 12 10 6 2 4 5 5 7 2 5 12 10 13 5 8 6 5 4 4 2 3 4 3 6 9 10 9 9 13 8 9 11 11 12 11 11 13 14 17 18 15 17 17
16 4 7 2 4 7 5 11 10 15 14 16 12 11 12 13 8 7 3 4 4 5 9 12 11 11 11 13 15 14 14 13 13 14 13 12 13 12 14 15 17 18 18 15
7 4 2 10 14 16 19 15 15 16 16 15 18 12 13 9 9 7 5 4 6 9 8 11 13 12 11 13 15 14 14 14 15 14 13 11 10 9 10 8 9 9 10 11
12 19 13 15 17 12 20 5 4 9 14 20 16 14 5 8 8 5 5 5 9 11 11 13 13 14 12 12 12 11 10 11 16 16 11 10 11 10 10 10 10 7 7 8

GFSCGP_925_spd_057.txt.gz
Wind_Speed
3 8 10 15 14 10 5 6 7 2 3 4 12 18 19 17 16 18 19 19 19 20 19 22 23 25 25 26 28 30 29 27 26 25 23 22 23 22 23 27 26 24 24 29
5 12 13 3 2 7 9 12 13 8 1 3 13 22 18 20 21 19 21 20 20 19 18 17 20 22 27 30 31 29 30 29 30 25 23 19 20 21 22 25 28 29 28 31
14 2 5 6 7 10 12 13 11 8 4 12 11 18 15 12 13 15 20 21 21 19 18 16 17 22 23 28 31 34 34 32 30 28 23 21 14 16 20 25 34 37 33 33
11 7 6 8 13 12 14 8 12 6 5 6 1 9 18 17 17 13 17 16 18 16 14 14 14 18 24 27 28 28 28 30 30 30 26 28 26 21 23 25 33 36 34 33
5 9 10 11 8 11 2 3 4 3 5 9 13 7 9 11 10 15 16 14 12 11 9 9 10 14 17 20 21 23 24 26 27 29 30 28 26 21 16 19 26 34 33 34
3 1 5 5 4 6 12 7 3 1 3 8 12 12 12 14 10 6 6 3 3 3 1 3 5 6 11 14 18 20 23 26 27 28 29 28 25 23 20 19 22 35 34 37
10 9 4 4 6 4 10 7 4 5 5 9 5 6 14 13 12 10 10 14 6 2 5 5 6 8 9 13 15 18 20 23 23 25 26 27 25 23 24 21 23 27 34 38
14 10 14 13 12 8 15 13 7 6 7 10 3 9 6 7 10 11 12 12 11 7 7 8 8 7 8 10 12 14 17 19 21 23 25 27 27 27 27 25 24 29 32 39
11 11 4 2 8 12 7 10 10 9 3 4 9 19 19 11 11 14 16 13 13 10 7 7 6 5 4 7 9 12 13 16 19 22 24 26 26 27 26 24 26 25 27 27
7 14 1 3 3 7 7 3 7 6 6 9 14 18 13 6 9 6 7 6 6 4 4 3 4 2 2 3 5 9 12 14 15 18 21 24 26 27 27 24 26 26 25 26
13 7 3 4 11 15 7 7 6 4 7 7 11 11 9 5 2 1 1 1 3 6 5 3 2 2 4 4 5 8 10 12 14 17 19 22 25 27 27 28 27 28 28 32
12 4 12 11 3 4 14 18 19 7 6 6 6 16 6 1 1 2 2 3 4 2 2 0 2 5 6 7 9 12 13 14 17 17 19 21 23 25 28 29 28 26 29 33
2 3 3 4 5 2 6 14 9 18 2 11 9 11 3 4 3 5 6 5 4 3 4 5 4 7 10 10 10 12 14 17 19 18 19 21 24 25 28 28 27 26 28 33
8 6 6 10 2 4 6 13 16 16 12 20 18 25 25 17 11 8 6 4 8 8 7 11 7 9 14 12 13 15 16 18 20 20 21 23 24 25 26 25 25 27 30 34
9 6 12 20 23 23 20 19 16 19 23 22 25 24 31 23 18 15 15 14 15 15 16 18 16 10 15 17 15 19 19 18 20 21 22 25 23 23 23 25 26 27 31 34
4 4 9 16 21 20 22 20 18 21 24 24 30 28 28 24 21 18 18 18 19 15 17 20 20 18 12 19 20 20 20 21 23 23 26 22 20 22 25 25 26 28 30 31
6 3 3 10 11 10 10 20 25 24 23 22 21 27 22 26 23 21 21 17 18 18 20 20 20 17 20 20 17 15 16 18 23 26 26 24 22 23 25 26 27 28 28 29
12 8 3 8 3 13 8 8 18 25 26 25 25 28 29 26 24 27 21 17 22 20 22 20 16 23 20 12 9 10 13 13 16 19 20 20 20 23 22 23 25 24 23 25
17 13 8 10 18 20 23 16 9 10 21 18 19 22 26 25 20 28 21 18 21 19 19 17 9 11 12 10 9 8 7 6 9 11 13 15 17 18 19 20 20 19 19 20
19 21 16 16 18 21 21 18 12 17 18 15 7 12 16 17 14 17 13 10 6 4 5 6 8 9 7 6 7 5 3 4 5 5 6 8 11 14 15 16 16 17 16 16
5 9 17 18 17 14 11 22 9 12 9 3 0 9 11 8 11 15 14 11 6 6 5 5 5 4 4 5 1 2 3 4 2 4 5 6 6 9 10 11 13 14 14 13
9 6 10 12 14 20 7 4 11 4 1 6 8 7 10 11 13 10 13 9 8 10 11 6 5 3 2 0 4 8 8 6 7 8 9 9 8 8 9 11 12 13 13 14
17 15 11 6 3 3 3 5 5 3 6 14 12 12 10 12 12 12 12 8 5 5 10 8 4 1 3 3 6 11 8 9 11 13 14 13 11 11 11 11 12 11 11 13
14 6 11 15 17 11 5 9 9 13 13 16 12 14 11 14 16 15 11 12 7 2 4 5 4 4 6 8 10 13 12 15 18 19 16 14 14 14 11 11 11 11 10 10
8 5 8 12 17 11 15 12 10 10 10 16 14 12 14 13 17 12 13 7 5 6 5 8 8 3 6 9 12 12 13 15 20 21 19 16 16 14 14 13 9 7 5 5
15 17 11 13 12 10 20 20 14 7 7 10 14 20 20 5 13 11 11 6 9 10 11 9 8 12 10 10 13 11 11 13 18 17 14 13 16 16 16 16 15 11 7 5

GFSCGP_925_spd_060.txt.gz
Wind_Speed
1 3 6 9 9 6 4 7 6 4 3 1 7 12 11 9 8 9 10 10 11 12 10 24 25 33 32 30 33 34 34 34 34 32 33 32 32 30 29 31 29 29 29 30
3 5 8 3 5 3 1 6 7 6 6 1 8 13 10 11 11 11 11 11 11 9 10 13 29 30 35 35 34 34 36 37 38 36 36 31 34 34 33 32 34 32 32 34
5 1 5 5 2 2 4 6 7 5 3 6 4 10 7 9 12 11 12 12 10 10 9 9 15 30 34 36 37 36 37 38 37 34 31 25 21 26 26 31 36 39 35 36
6 3 4 4 5 6 5 4 6 4 4 3 3 6 4 10 8 9 10 9 10 10 9 8 6 15 32 37 36 36 34 32 34 34 31 34 31 25 33 35 34 35 39 35
4 6 5 4 5 6 2 3 3 3 3 5 4 2 8 7 7 7 10 9 8 5 7 7 9 11 25 29 30 30 31 33 34 36 36 33 33 33 21 29 31 31 33 41
2 0 2 3 4 3 7 4 3 2 2 5 10 9 4 6 6 3 3 4 7 6 6 5 3 1 7 19 24 27 30 33 33 33 36 34 33 29 24 22 27 29 31 37
6 5 3 2 5 5 2 4 1 2 0 7 3 5 11 8 10 5 6 5 3 6 4 2 5 6 8 11 16 21 25 27 29 32 33 35 31 30 31 28 32 32 28 35
8 4 10 7 7 8 9 7 5 6 4 3 6 7 6 9 3 3 5 5 1 5 5 7 7 9 12 12 13 15 19 22 24 28 31 33 35 32 30 31 32 33 33 33
5 6 2 4 2 6 5 7 3 4 2 3 5 7 7 6 7 7 7 6 8 7 6 6 5 6 10 10 12 13 15 17 21 24 28 29 30 32 31 29 30 29 30 31
2 5 3 3 4 4 3 1 3 2 2 4 7 7 8 2 8 10 3 3 5 5 5 4 4 7 4 6 9 11 13 16 17 21 24 27 28 31 32 30 31 31 30 29
4 4 1 4 6 8 3 4 3 3 5 5 5 7 3 2 6 8 6 6 3 2 2 3 3 3 4 6 9 11 14 16 17 19 22 26 28 29 30 32 33 31 30 29
2 2 5 7 3 3 2 6 7 4 3 3 2 15 2 7 8 8 4 4 5 5 4 2 2 4 3 6 10 12 12 14 17 20 23 26 26 27 28 31 31 30 29 31
3 2 2 3 1 2 3 4 5 6 2 7 6 11 6 3 7 3 2 1 1 2 3 5 4 5 9 12 15 17 16 18 19 21 23 25 27 27 29 31 30 29 29 30
7 4 6 6 5 4 3 3 4 6 3 16 13 21 21 9 8 7 7 4 5 5 6 6 6 6 11 15 18 21 20 21 22 24 25 27 29 29 29 28 28 29 30 32
6 7 9 11 13 11 9 8 13 14 14 8 19 16 30 16 13 9 8 7 7 8 7 7 9 10 15 15 19 21 24 25 26 27 29 32 32 29 27 27 27 28 30 32
6 3 8 9 12 12 15 15 18 20 23 21 28 26 29 23 16 16 16 8 9 8 8 8 9 8 15 19 23 23 23 25 26 27 30 31 27 25 26 25 25 26 28 28
5 4 4 11 4 6 9 20 16 20 21 21 20 24 11 13 13 15 12 10 16 14 14 11 9 9 17 18 12 12 13 13 20 25 27 25 22 21 22 21 23 24 25 25
3 3 3 4 3 10 8 2 11 15 16 13 15 16 21 20 20 19 7 12 16 16 15 10 9 9 5 12 15 16 17 17 16 18 21 20 20 21 21 20 20 21 22 22
11 5 3 4 5 9 16 15 3 6 14 7 12 17 18 10 10 15 9 9 7 7 8 10 15 16 18 12 10 11 11 11 10 11 14 15 15 16 17 17 17 18 18 17
14 15 9 7 4 6 18 14 7 3 11 7 5 6 7 10 7 10 8 7 6 11 13 16 23 23 16 14 16 14 9 7 8 8 8 8 8 11 12 12 13 14 14 13
4 3 14 14 12 7 9 12 2 5 8 2 4 5 6 5 4 10 11 11 8 7 14 15 14 15 15 17 15 12 8 5 4 5 5 6 6 7 8 9 11 11 11 10
7 5 4 4 7 13 3 3 7 3 2 2 4 6 9 9 12 9 10 9 9 9 13 15 13 11 10 13 10 6 3 3 3 6 7 7 7 8 8 10 11 10 10 11
4 7 4 8 5 3 2 3 2 3 4 5 5 11 9 9 10 10 9 12 9 14 14 13 15 12 9 6 6 8 6 7 9 10 13 13 13 12 11 13 13 13 11 13
4 1 2 3 8 11 3 4 1 4 7 7 7 10 9 9 9 10 9 11 7 14 17 16 12 8 5 3 4 5 8 13 14 17 18 17 18 17 14 14 13 15 14 12
5 2 2 5 8 4 6 5 6 4 8 10 9 7 9 7 12 11 11 9 11 17 14 13 13 8 5 3 7 10 8 13 19 20 16 16 18 20 17 14 13 12 10 9
5 9 6 9 8 4 8 7 9 9 9 12 13 13 11 7 9 11 10 13 16 12 8 8 6 8 7 7 8 7 11 14 20 20 17 16 19 19 19 16 18 14 12 10

GFSCGP_925_spd_063.txt.gz
Wind_Speed
0 4 6 10 8 6 4 3 0 2 2 3 6 8 12 11 8 10 11 11 10 12 15 22 32 38 36 37 37 39 41 41 40 40 43 35 37 35 34 33 33 35 35 34
5 4 8 6 6 5 2 2 3 1 1 2 4 12 10 11 13 11 13 10 11 8 9 16 22 34 39 39 41 39 41 41 41 41 41 35 34 39 39 38 35 33 34 34
6 3 6 5 2 4 2 4 3 2 3 2 2 9 6 6 5 7 9 11 9 12 11 10 15 28 39 40 42 43 43 42 41 40 37 35 31 34 36 39 40 40 38 35
5 4 5 3 3 4 2 1 5 3 4 3 4 6 5 7 11 7 9 10 10 9 8 8 10 17 32 42 43 42 42 42 42 42 40 40 32 30 35 34 42 41 41 38
7 6 5 3 4 6 5 0 4 3 2 2 2 1 7 5 6 10 10 6 5 6 8 9 8 10 23 35 38 38 37 37 40 42 41 39 36 34 32 33 35 39 40 42
3 1 3 6 3 1 7 5 6 5 3 3 8 8 5 4 6 2 3 3 3 4 5 5 5 4 4 20 27 30 32 34 34 35 38 38 38 37 34 31 32 33 34 37
2 2 1 4 6 7 4 6 1 3 2 6 3 2 6 8 9 3 5 4 1 2 1 2 2 2 3 8 17 22 24 28 30 31 34 37 38 38 38 37 34 32 33 36
6 4 9 6 7 8 7 7 5 7 4 5 3 6 5 10 8 2 4 4 3 5 4 6 6 8 5 5 6 11 16 21 24 28 32 33 37 36 35 36 36 36 37 38
6 5 2 3 4 8 5 5 5 4 2 3 5 6 8 7 9 9 7 6 6 4 5 6 7 1 5 5 7 10 13 17 20 23 27 31 34 36 39 36 34 36 36 37
3 3 3 2 2 4 6 5 3 2 1 4 4 5 6 7 12 9 6 6 6 6 8 7 6 5 2 1 3 7 12 15 16 21 24 29 32 35 37 36 38 38 36 34
6 4 2 1 5 8 2 3 3 4 5 5 2 6 6 7 4 8 7 5 6 7 4 2 0 2 3 4 5 8 12 14 17 18 21 26 30 33 34 36 37 37 34 33
2 4 4 7 2 2 3 7 6 4 3 4 4 13 3 8 6 7 7 5 2 4 5 5 3 2 7 8 8 12 14 16 19 19 20 24 28 31 33 34 35 33 34 34
4 1 3 4 3 3 3 4 5 4 3 7 4 12 2 9 8 7 8 6 4 1 2 4 5 9 11 13 15 15 16 21 22 22 24 25 29 31 33 34 33 32 31 32
7 2 5 7 4 3 4 3 2 6 5 9 13 17 14 14 13 6 6 7 5 5 6 6 8 9 11 13 16 17 20 24 26 26 26 27 30 32 33 33 31 29 29 30
5 6 5 6 6 3 2 6 7 4 3 4 5 9 12 10 15 14 6 8 8 7 6 7 7 7 21 24 27 25 23 23 25 27 29 31 31 30 30 30 29 28 27 28
2 5 6 3 10 6 6 14 14 15 12 14 14 21 13 15 15 11 9 7 8 8 7 8 8 11 16 24 23 20 18 17 19 24 28 30 29 28 28 27 27 25 25 26
4 4 4 4 5 4 5 14 14 15 14 14 16 20 17 18 10 3 7 8 8 8 9 9 8 12 17 17 22 26 24 22 21 22 23 25 27 27 25 23 22 23 23 24
6 5 2 3 3 5 7 4 8 13 11 10 13 18 18 14 5 3 5 6 6 7 7 6 9 16 20 20 21 22 24 25 22 21 23 20 18 20 19 20 20 20 20 21
5 4 2 3 4 5 9 3 6 4 9 11 13 14 8 9 7 3 4 3 1 4 8 13 17 17 19 19 20 23 25 23 22 20 18 18 16 17 16 17 17 17 16 16
6 5 5 3 4 8 10 5 3 4 9 2 7 5 6 7 4 4 7 7 7 8 14 17 24 23 23 24 20 21 23 21 21 19 17 15 12 11 12 11 12 13 13 11
6 6 15 12 6 7 12 7 5 4 9 2 2 3 2 2 4 9 12 10 12 11 19 23 21 23 25 22 20 22 22 21 16 14 13 11 9 7 7 7 8 8 8 7
8 8 5 8 5 11 4 4 9 4 3 6 4 6 6 7 9 8 10 9 11 16 19 22 22 28 27 18 18 21 17 14 11 8 7 6 5 4 6 8 9 9 10 10
2 6 5 9 7 5 2 3 3 4 3 3 4 5 5 7 8 11 10 9 11 16 21 23 24 29 28 23 18 17 17 11 9 6 4 2 4 5 6 10 12 12 12 13
3 1 3 4 7 2 1 4 7 7 4 4 5 7 5 8 8 10 7 10 10 17 19 23 24 22 26 21 17 17 14 11 11 10 9 9 7 10 10 10 11 13 13 14
5 3 5 3 5 3 5 4 2 6 6 7 7 7 10 7 11 8 7 6 14 18 22 24 19 21 21 16 12 11 10 11 13 14 15 14 12 13 13 13 11 10 6 8
5 7 4 4 4 4 7 8 8 8 8 8 8 8 7 7 8 7 8 14 16 19 24 20 16 16 13 11 11 8 8 12 14 15 18 18 16 16 16 18 21 14 12 12

GFSCGP_925_spd_069.txt.gz
Wind_Speed
2 4 7 10 6 3 6 4 4 0 1 2 5 7 12 10 4 10 10 10 10 13 14 27 28 31 37 37 37 39 41 43 41 39 38 38 39 40 37 35 34 33 34 36
5 4 6 6 4 4 4 3 1 1 1 1 5 11 11 11 7 8 9 10 11 7 6 14 19 23 29 37 40 39 41 41 43 42 41 34 31 34 40 39 37 35 36 36
6 2 8 6 4 5 2 4 3 3 2 3 5 8 6 5 3 5 8 8 7 9 10 7 10 17 22 27 34 40 42 43 43 43 34 30 28 30 31 37 39 39 37 37
3 2 7 5 4 5 4 5 5 4 3 3 2 5 6 5 10 7 9 7 9 8 5 5 7 9 12 22 25 31 37 40 41 37 36 38 31 28 34 36 39 42 40 39
6 7 7 4 5 5 4 4 5 3 4 3 4 1 7 4 7 8 8 5 6 8 7 8 11 6 4 3 10 18 26 31 33 35 36 36 33 34 34 31 32 31 34 36
2 1 2 5 3 2 8 6 7 5 3 1 5 5 5 3 2 2 5 6 7 8 8 7 10 12 13 11 5 4 14 21 25 27 30 34 36 37 34 33 31 31 31 33
1 1 1 3 6 4 4 6 2 3 2 5 1 2 8 6 5 3 6 6 8 8 8 8 9 13 14 14 10 6 5 11 16 20 24 29 32 33 33 33 33 33 32 32
6 3 7 4 6 8 5 6 5 7 4 3 2 5 5 5 4 2 3 3 4 7 7 7 8 9 12 11 10 8 5 4 7 13 17 20 24 28 30 31 32 33 34 34
5 4 1 1 3 6 5 3 5 7 3 3 3 6 10 5 6 6 7 7 8 8 6 7 8 11 11 11 11 9 6 4 2 6 11 15 19 23 26 27 28 31 32 32
8 4 1 1 3 3 4 7 3 3 2 3 4 4 5 3 6 4 7 6 5 5 7 7 10 13 12 11 10 8 7 7 7 8 9 11 13 17 20 23 27 29 31 32
6 4 1 3 6 8 3 3 4 4 4 5 1 5 6 5 8 9 6 6 5 4 4 5 8 9 8 8 10 11 13 13 14 15 16 16 17 17 19 21 25 27 28 30
6 5 4 5 1 1 2 6 6 5 4 2 3 5 4 9 8 9 5 6 5 3 6 6 10 13 16 15 15 14 15 16 17 19 19 19 20 21 23 26 27 29 31 31
8 3 3 3 3 2 4 4 4 5 3 7 5 5 2 4 5 4 5 1 3 5 7 7 11 14 16 16 16 16 16 17 17 18 19 19 21 23 25 28 30 31 32 31
7 4 7 11 4 6 6 6 6 6 3 5 8 5 5 9 5 2 2 3 4 5 6 6 6 9 12 13 15 17 18 18 19 19 19 20 21 23 26 28 30 31 30 29
3 4 3 3 5 4 3 5 8 10 13 8 8 10 7 8 5 3 2 5 6 7 7 6 6 9 13 15 17 21 20 21 22 23 23 22 21 22 23 25 25 26 26 27
1 3 3 1 2 2 2 7 7 3 1 5 3 8 9 8 4 7 6 6 5 4 5 7 7 15 19 22 23 28 29 29 28 28 28 28 28 28 27 26 25 24 24 24
4 5 3 3 5 5 5 12 9 5 6 6 8 5 5 3 0 2 4 6 5 4 5 6 7 13 19 23 25 30 32 33 32 31 31 30 31 31 30 30 29 27 25 24
8 7 3 3 5 5 3 1 8 16 10 10 9 2 5 4 4 5 4 4 4 5 4 5 11 19 22 23 25 29 31 32 34 36 36 34 33 31 29 26 25 26 27 25
3 6 3 5 5 6 4 5 7 8 7 12 12 6 4 2 3 2 4 2 2 3 5 8 13 16 21 23 25 29 31 32 33 34 36 37 36 35 35 34 28 24 22 21
3 3 2 3 4 8 4 1 5 5 4 4 6 8 7 6 3 3 4 2 5 8 9 11 15 16 20 23 23 25 27 30 33 33 34 34 32 31 31 31 29 26 21 19
4 3 7 3 3 7 6 6 3 6 7 3 6 6 6 4 4 3 5 6 6 9 9 12 13 17 20 21 20 22 24 29 28 29 30 30 28 27 26 26 24 23 21 17
9 7 5 3 3 9 6 3 8 4 3 6 4 4 3 2 1 3 5 5 8 10 11 12 15 17 20 21 19 21 26 28 28 30 31 31 30 27 25 24 22 19 17 15
2 6 5 8 6 1 6 3 2 4 6 4 5 3 2 4 4 5 5 6 9 11 11 15 15 19 23 24 20 22 29 29 29 30 31 31 30 27 22 22 21 18 14 14
3 2 3 4 4 4 4 4 5 4 6 5 4 3 4 4 6 7 7 6 6 9 13 15 16 19 24 26 27 27 26 25 26 27 27 28 27 23 19 18 18 17 16 13
4 7 6 4 2 3 5 2 6 2 1 0 2 2 3 5 8 7 6 6 11 12 14 14 16 20 25 28 29 29 25 25 28 26 26 26 24 21 19 17 14 13 13 12
6 6 5 5 6 5 4 6 3 4 5 6 5 6 5 5 8 9 7 12 13 15 19 23 28 29 33 32 33 32 26 23 24 26 22 18 19 19 17 13 9 5 5 2

GFSCGP_925_spd_072.txt.gz
Wind_Speed
2 5 7 9 5 4 6 5 3 1 1 3 5 7 12 9 5 10 11 9 9 11 12 23 26 26 30 34 34 34 35 37 36 35 32 30 31 32 34 34 32 30 29 28
5 5 5 7 6 5 5 4 2 1 2 2 4 10 11 10 8 7 7 9 9 7 7 15 16 19 26 30 35 36 37 36 38 38 39 31 27 26 34 35 36 34 32 30
7 2 9 6 4 6 3 6 4 3 1 3 5 8 6 4 3 5 5 6 5 8 9 8 9 8 15 22 29 34 38 38 38 40 31 30 25 25 25 31 35 37 37 34
4 2 8 7 4 5 5 6 5 6 4 3 3 5 6 5 9 5 8 7 7 8 6 6 7 4 4 12 19 24 29 32 34 34 35 36 28 25 31 31 34 36 37 36
6 7 7 5 5 6 3 4 5 4 4 3 3 2 7 4 5 5 7 8 7 6 6 8 11 11 10 6 4 12 19 23 27 29 31 34 31 31 30 28 29 30 31 31
3 0 3 4 4 2 9 7 8 5 3 1 3 4 5 3 2 3 3 7 7 8 7 8 10 12 15 13 10 3 5 12 16 20 25 28 30 32 30 29 29 29 27 27
2 1 1 4 7 5 4 6 2 2 2 5 2 2 8 4 5 3 5 6 6 6 7 7 8 15 16 17 15 12 7 3 7 12 16 20 23 25 26 26 26 27 26 26
6 3 8 5 5 8 6 6 5 7 4 2 2 5 5 2 6 1 3 3 6 8 6 8 10 14 16 17 18 16 13 9 3 2 7 11 15 19 21 22 22 23 24 25
5 3 1 2 3 5 5 4 5 7 3 3 3 6 4 5 6 5 7 7 7 7 7 7 13 15 19 19 19 17 16 15 12 9 5 5 8 12 16 18 19 21 21 22
7 4 2 1 2 4 3 8 3 3 3 3 3 4 5 1 4 4 7 7 6 6 8 8 14 16 17 18 18 18 18 17 16 14 13 12 11 11 13 16 17 18 19 20
6 4 1 3 5 8 3 3 4 5 4 5 2 5 6 8 6 7 6 3 6 6 6 6 12 17 18 18 19 18 19 18 18 16 15 14 14 14 14 16 18 19 20 21
5 5 4 6 2 1 1 6 6 5 4 1 3 5 3 8 7 6 5 5 5 6 5 6 13 18 21 21 22 21 20 20 20 19 19 18 17 17 18 19 20 20 22 23
7 2 3 4 3 3 4 4 4 5 3 7 6 5 3 3 5 2 5 5 6 6 7 7 13 17 19 19 20 21 21 21 22 22 23 23 23 24 25 25 26 26 26 26
7 3 8 11 4 7 6 6 6 6 3 5 6 7 7 8 7 3 2 4 3 6 7 6 8 13 15 16 17 19 20 21 22 22 22 23 23 23 23 25 25 26 27 28
5 6 3 3 3 5 4 8 10 9 13 8 7 10 17 16 9 4 4 5 6 6 7 6 6 10 14 16 17 18 19 20 21 21 21 22 20 21 23 23 24 24 25 25
2 3 3 2 3 3 3 6 8 6 4 2 3 5 5 5 6 6 6 6 5 5 5 5 7 12 15 16 18 20 22 24 23 23 23 22 23 26 26 26 26 25 25 25
4 5 3 4 4 4 5 11 9 5 4 8 11 8 7 4 6 7 7 7 6 5 4 5 6 9 13 16 19 23 25 27 28 29 30 30 31 33 32 30 28 27 27 27
6 4 2 3 5 7 4 3 6 8 6 8 4 5 7 6 5 5 5 7 6 4 4 4 8 13 16 19 22 25 28 30 32 33 34 35 36 37 37 37 35 32 30 28
7 5 3 4 2 3 3 5 7 8 9 13 9 7 6 6 5 1 4 4 4 2 2 2 6 11 17 20 22 25 27 29 31 33 35 36 37 38 37 37 37 36 32 30
6 5 5 3 5 8 5 3 5 5 4 4 11 9 8 7 4 4 6 2 3 3 2 4 8 11 14 17 19 21 24 26 28 31 32 34 34 35 36 35 36 34 31 31
4 3 6 4 2 6 6 5 4 6 6 2 5 8 7 5 3 5 4 2 0 3 5 5 6 10 14 16 17 19 21 24 26 29 32 33 34 34 31 32 31 30 29 28
8 5 3 3 2 7 7 3 9 4 2 5 6 5 6 6 5 4 3 3 5 7 8 7 9 13 15 17 17 18 22 26 28 30 32 33 33 33 31 30 30 26 25 24
3 5 5 7 5 1 2 2 3 4 6 4 7 6 7 6 4 4 3 4 7 9 11 10 11 14 17 18 20 22 27 27 29 31 32 34 35 34 29 27 28 27 24 23
3 1 4 4 3 1 3 3 3 4 6 7 6 6 5 3 1 2 3 4 6 10 10 10 12 17 21 22 24 26 28 27 28 31 33 34 33 33 33 28 24 25 26 24
4 6 5 2 2 1 3 2 6 6 7 7 5 5 4 3 3 4 3 4 7 7 8 10 15 21 27 29 30 31 30 27 29 29 28 25 22 23 27 28 25 24 22 19
5 6 5 5 9 5 8 8 6 7 6 6 6 4 4 3 3 3 3 3 4 7 15 19 22 24 26 28 36 36 32 27 27 29 25 22 23 23 24 28 29 19 16 14

GFSCGP_925_spd_075.txt.gz
Wind_Speed
2 5 7 10 5 4 7 5 5 1 1 2 4 7 11 7 5 9 8 8 7 9 14 16 17 19 24 31 32 32 32 35 34 33 30 26 29 28 27 26 26 26 25 27
5 4 5 10 6 7 5 6 3 2 2 3 1 10 10 7 6 4 5 8 7 6 7 14 12 12 22 26 31 33 34 33 34 35 30 23 23 26 29 29 28 30 30 29
7 2 9 6 5 6 2 6 5 4 2 3 3 7 6 2 3 5 4 4 4 5 7 7 9 5 8 17 23 27 32 34 33 33 29 24 18 22 21 27 29 31 32 33
4 2 7 8 5 5 5 4 6 7 4 2 3 4 5 3 7 5 6 6 5 6 5 6 10 10 7 2 11 18 22 26 28 28 29 28 23 23 25 23 27 27 26 29
5 8 7 5 5 6 3 5 6 4 5 3 3 2 7 3 2 3 4 5 5 5 5 6 10 12 13 11 4 6 13 16 20 24 27 28 24 28 26 24 24 24 24 23
3 1 2 4 4 2 10 7 8 5 3 1 1 4 5 3 3 2 3 4 5 6 6 8 12 16 19 18 17 11 6 5 8 12 17 22 25 26 25 25 24 23 22 22
3 1 1 3 8 6 4 6 3 2 2 4 2 3 8 3 2 2 2 5 5 5 6 7 11 19 25 26 24 21 17 13 6 4 7 13 15 16 17 18 19 20 20 21
7 3 7 3 5 8 6 6 5 7 4 2 2 5 5 2 5 2 4 5 6 7 6 7 12 19 24 25 25 25 24 21 15 10 5 1 4 8 11 12 14 15 17 18
5 4 2 2 1 3 5 5 4 8 2 3 3 6 5 3 5 5 6 6 7 6 6 7 13 19 22 24 23 22 22 21 19 16 13 10 7 5 6 7 9 11 12 14
7 5 2 1 2 3 4 8 4 3 3 3 3 5 5 5 5 5 6 7 6 5 7 7 16 21 24 24 23 24 24 24 21 20 18 15 13 11 10 9 9 10 11 13
6 4 0 3 5 8 3 3 5 5 4 5 3 6 6 9 8 10 8 6 7 7 7 6 15 21 23 24 25 24 24 23 23 21 19 18 17 16 15 14 14 14 15 15
5 5 4 5 1 1 1 6 6 5 5 1 3 5 1 6 7 7 7 7 6 7 6 8 15 20 22 23 23 23 22 23 21 20 19 18 17 18 18 19 19 19 19 19
8 2 3 3 2 3 5 5 4 5 4 7 6 5 2 4 5 6 8 7 6 6 6 6 13 16 18 19 19 21 22 22 21 21 21 21 22 23 24 23 23 23 24 23
8 4 8 12 5 7 6 6 4 4 3 6 6 6 5 7 7 6 5 8 8 7 7 6 8 13 15 16 16 18 19 20 20 20 21 21 22 23 24 24 25 25 25 26
6 7 5 1 3 5 5 11 11 10 14 8 8 11 18 17 13 8 6 6 7 7 7 6 6 10 12 13 14 15 17 18 19 19 20 20 20 21 23 24 25 25 25 26
0 3 4 2 2 2 4 9 18 19 5 1 6 7 6 10 7 6 7 8 7 6 6 6 7 9 9 10 11 13 15 16 17 18 18 19 21 23 24 25 26 26 26 27
7 6 3 4 3 5 4 15 13 7 6 12 10 7 7 6 15 10 8 8 8 7 6 6 6 7 7 10 11 14 15 15 16 17 20 22 25 28 29 29 30 31 31 29
8 6 3 3 3 5 6 1 10 16 7 7 5 7 11 8 5 6 5 7 8 7 6 6 5 4 6 8 11 13 15 17 19 21 24 26 28 30 31 32 32 32 33 32
1 6 4 5 8 4 3 5 8 10 12 12 9 7 6 8 6 4 5 5 7 6 9 7 4 3 5 8 11 15 18 20 22 24 26 29 30 31 32 33 33 34 33 33
1 6 7 3 5 13 4 3 5 5 5 8 13 12 11 7 4 4 8 6 8 9 8 5 3 5 9 13 15 17 18 21 23 26 28 29 30 32 34 35 34 34 33 34
5 3 9 4 3 6 4 4 3 7 5 2 7 9 10 6 3 6 8 6 10 9 7 4 2 4 7 9 12 13 16 19 22 24 27 29 30 31 32 35 33 33 33 34
7 7 4 3 3 6 7 4 9 4 2 4 6 6 8 9 8 8 8 7 8 5 3 2 3 5 8 10 13 15 18 23 25 27 29 31 31 32 33 33 33 32 30 31
2 3 6 6 4 2 3 2 3 4 6 5 7 6 9 9 6 7 6 5 4 3 4 4 2 5 9 12 17 20 22 24 28 30 31 33 36 36 33 32 34 33 31 30
3 2 4 5 3 3 1 2 4 5 5 7 6 8 7 8 8 6 4 2 1 2 3 4 6 11 15 17 19 20 24 27 28 30 31 33 34 34 30 25 27 30 29 28
3 5 5 2 2 1 3 4 5 7 8 9 6 6 7 9 6 5 5 5 3 4 3 6 11 14 18 22 24 25 26 26 27 29 31 31 24 24 26 25 26 29 31 26
5 6 5 5 10 5 6 8 7 9 8 10 8 7 7 7 8 7 5 6 7 3 8 10 14 19 24 26 27 26 23 22 23 28 29 26 26 25 24 26 29 25 27 23

GFSCGP_925_spd_081.txt.gz
Wind_Speed
16 11 17 21 17 13 13 17 12 7 2 6 13 11 11 6 5 7 8 8 7 7 4 4 8 12 18 20 21 22 22 21 20 20 21 21 22 22 23 23 21 20 17 18
9 18 18 14 8 6 11 15 11 4 2 4 5 12 11 10 10 8 9 8 6 4 6 5 6 10 14 18 21 21 22 22 22 20 22 18 18 21 23 24 25 24 22 21
16 15 12 8 9 12 10 14 11 3 7 2 4 9 11 5 5 4 5 5 5 4 3 2 3 5 8 13 17 20 21 21 21 20 17 18 12 14 14 20 23 24 24 25
14 6 12 14 17 15 9 3 11 11 11 5 3 3 8 9 9 6 6 5 4 3 4 3 3 3 1 4 9 15 17 19 18 18 17 19 17 15 15 16 17 17 18 18
6 10 13 16 16 8 5 8 10 8 4 1 6 5 4 7 8 8 7 6 5 4 3 5 5 5 4 3 4 10 13 14 15 16 17 16 17 14 10 11 12 12 12 12
5 3 6 4 6 2 16 13 10 6 2 5 6 7 7 6 11 10 6 6 5 5 6 8 8 8 10 9 9 9 10 10 11 11 12 11 10 10 10 9 9 9 9 10
5 7 3 7 10 10 12 16 5 5 5 4 2 4 7 5 5 10 10 7 7 6 7 8 10 12 13 13 14 13 13 11 9 8 6 8 6 5 4 6 7 7 8 8
12 7 10 9 10 9 15 16 6 7 6 6 1 8 4 7 6 4 8 8 8 8 8 9 11 14 15 16 16 17 17 16 14 13 10 8 6 4 2 1 1 2 3 4
14 6 4 2 1 9 12 9 4 6 2 2 6 5 7 7 7 9 10 11 11 10 9 10 12 14 15 16 16 16 16 17 15 14 13 12 11 10 8 7 6 5 5 6
9 6 4 3 2 2 6 11 4 3 6 5 6 5 5 10 14 13 13 14 14 11 10 10 12 13 14 14 16 16 16 17 16 15 15 14 13 12 11 10 10 9 9 10
7 3 5 5 8 12 4 6 5 3 2 4 4 5 1 11 17 18 16 15 15 14 12 10 12 12 13 13 14 15 15 15 16 15 14 16 15 13 12 13 12 12 11 13
2 5 5 7 2 2 4 8 12 6 4 0 2 2 1 4 15 15 16 15 14 13 12 12 14 13 13 13 14 14 14 14 14 14 15 15 15 14 13 13 13 13 13 13
8 3 5 2 2 1 6 8 13 8 2 5 5 4 1 5 13 13 16 16 15 14 13 12 14 13 13 13 14 14 13 13 14 13 13 14 14 13 13 13 14 14 15 15
8 3 7 11 8 10 11 17 13 13 4 7 9 7 8 12 15 17 16 16 16 15 14 12 12 13 13 13 13 13 12 11 13 12 12 14 13 13 13 14 15 16 17 18
6 8 9 10 2 7 9 14 13 14 22 13 20 14 11 17 19 20 16 16 16 15 14 12 11 13 14 13 12 12 11 11 10 11 12 13 13 14 15 17 18 19 20 20
3 2 5 3 5 1 4 12 19 20 22 20 16 11 4 16 14 17 16 16 16 15 15 14 13 15 14 13 11 11 10 11 9 12 13 12 12 15 17 18 20 22 23 23
10 5 3 8 6 4 4 16 19 19 21 21 21 21 6 13 18 20 20 19 18 16 15 15 15 16 14 12 11 11 10 9 10 11 11 12 14 16 19 20 23 24 27 27
12 7 3 3 6 7 12 8 18 21 16 20 20 13 15 17 21 19 17 19 18 17 17 15 18 17 14 13 12 11 9 9 8 9 9 12 15 18 20 22 25 27 29 31
12 10 4 5 8 7 7 6 9 12 21 17 22 18 10 9 8 12 14 15 16 16 19 19 19 18 15 13 11 10 8 7 6 7 10 14 17 20 23 25 28 30 33 35
4 10 8 4 8 11 20 8 8 6 13 17 18 15 11 13 12 9 13 14 16 23 24 23 20 19 15 11 10 9 7 5 6 10 13 16 19 21 24 27 29 30 32 35
4 2 14 13 5 8 4 7 11 11 11 5 19 19 19 16 11 10 17 16 23 24 25 25 21 17 13 10 9 7 4 4 7 11 15 18 21 23 25 27 29 31 32 34
15 11 7 5 7 18 6 4 14 3 1 2 2 6 13 9 14 16 18 18 21 23 23 23 21 17 13 9 6 5 3 6 10 13 17 19 21 23 25 27 29 30 30 31
6 5 8 11 8 1 11 2 3 1 2 4 6 9 12 14 16 17 16 17 19 22 20 21 22 18 11 6 3 3 4 9 12 15 17 20 22 24 26 29 31 28 23 23
3 1 1 2 1 2 5 2 1 1 1 3 8 14 15 17 16 16 15 13 15 18 19 21 20 15 9 3 1 2 6 9 12 15 19 22 24 27 28 28 26 24 22 23
1 4 3 5 2 2 4 6 4 4 7 9 9 11 15 17 15 15 13 11 16 17 19 18 15 12 8 4 2 4 7 10 14 17 20 22 23 23 29 30 26 26 28 24
5 5 4 3 5 2 1 5 3 7 8 11 14 10 8 13 16 14 11 16 19 19 19 16 12 8 6 4 3 4 8 12 15 18 18 19 24 23 23 25 31 27 28 27

GFSCGP_925_spd_084.txt.gz
Wind_Speed
11 11 16 16 11 7 10 6 8 6 3 4 7 5 8 9 6 6 6 8 9 9 8 12 15 16 17 18 21 23 24 24 23 25 23 20 21 19 18 16 15 15 14 15
10 18 12 10 9 9 5 13 6 6 6 3 6 9 7 6 6 8 8 8 8 9 7 9 5 8 12 18 19 21 22 25 25 24 24 20 19 19 19 19 18 17 16 17
11 10 10 7 5 6 6 10 6 6 4 2 1 5 8 6 6 4 1 2 4 6 6 7 7 6 9 14 17 21 23 23 26 20 20 18 13 14 14 16 17 17 17 18
9 5 9 9 9 8 5 3 9 12 7 4 6 4 5 7 6 6 6 4 6 6 4 6 6 5 3 6 13 14 19 19 20 22 19 18 17 14 12 12 12 12 12 12
5 6 8 9 9 7 3 8 8 4 4 3 3 2 4 8 7 7 8 7 7 7 7 7 7 5 1 4 9 16 14 15 17 18 16 15 12 11 8 6 7 8 7 7
3 3 1 3 5 6 8 10 8 4 3 1 5 6 4 6 8 8 7 8 9 8 7 8 8 10 7 7 6 9 10 10 10 13 13 12 10 10 9 6 4 2 2 1
3 2 2 1 9 4 6 8 3 2 1 5 7 3 7 3 2 9 11 9 8 8 8 7 9 12 12 13 14 16 16 14 12 12 11 11 7 6 6 6 5 4 4 4
6 3 6 4 4 8 8 7 5 6 4 4 3 6 5 3 7 8 10 10 8 8 8 8 12 13 14 17 17 18 16 14 12 11 10 9 8 7 6 5 5 6 5 1
9 2 3 4 3 7 5 5 3 7 2 4 5 5 2 5 4 7 9 9 8 8 8 8 15 15 16 18 19 21 23 22 21 20 19 17 17 14 14 12 10 9 8 8
7 5 2 1 2 3 3 7 3 1 5 3 4 2 5 7 11 10 10 10 9 7 9 8 15 17 16 19 22 23 23 23 23 23 22 21 19 17 16 15 15 13 12 11
1 5 2 3 5 8 3 3 2 5 4 5 3 6 2 10 13 13 10 9 10 9 8 7 14 17 17 19 21 23 23 23 23 23 22 22 20 18 17 17 15 14 12 13
1 6 4 2 1 3 3 4 5 4 3 2 3 5 3 3 11 12 10 10 9 9 8 9 16 18 17 18 19 21 22 23 21 21 21 20 19 17 17 16 15 14 14 14
7 3 4 3 2 2 3 4 3 4 3 5 6 5 4 1 9 10 13 12 10 9 9 8 15 17 19 19 20 20 21 21 20 20 20 19 18 17 16 15 14 14 13 13
6 4 7 8 5 8 7 11 8 7 3 4 6 4 4 7 10 10 11 11 10 11 11 9 9 17 20 20 21 21 21 19 19 19 19 18 17 15 14 13 14 14 15 16
6 7 6 3 4 6 6 9 9 8 15 8 11 8 7 11 12 14 11 12 13 12 12 10 11 15 21 22 21 20 21 18 17 18 17 16 14 12 12 13 15 15 15 17
1 3 6 1 4 4 4 9 16 19 14 8 6 8 7 12 8 13 16 16 16 15 14 13 12 17 19 22 23 22 21 19 17 16 15 12 11 11 13 14 15 16 18 19
7 5 3 3 6 6 4 13 16 12 11 19 16 21 6 7 16 17 17 19 20 19 16 15 13 18 21 24 24 23 21 18 16 15 12 11 10 11 12 13 15 17 20 22
8 6 3 2 3 3 9 11 14 20 14 18 13 5 11 9 17 18 19 22 19 18 17 14 20 23 26 25 24 23 20 17 15 12 9 8 8 10 12 15 17 19 22 24
4 5 4 7 3 8 9 7 10 9 18 11 19 20 7 5 6 6 11 15 18 17 18 23 25 29 29 26 25 23 19 16 12 9 7 7 9 11 14 17 20 22 25 28
4 8 3 4 6 11 23 6 7 7 14 13 17 11 8 9 8 10 12 17 14 25 29 30 32 32 31 26 25 23 18 13 9 5 4 5 9 13 15 18 21 23 26 29
4 1 11 6 3 8 6 6 8 9 9 6 12 12 14 12 17 6 11 8 25 29 30 34 34 29 30 27 24 21 16 11 6 3 3 6 9 12 15 19 22 25 28 30
9 8 4 2 2 15 5 4 16 6 1 1 1 6 12 6 7 11 14 17 20 26 31 32 30 28 27 25 22 19 14 8 3 1 5 7 10 13 17 20 23 25 27 30
5 5 6 10 7 2 1 2 3 2 1 2 2 1 8 10 7 13 13 15 17 26 26 29 32 30 23 21 18 18 11 5 2 4 6 9 12 15 18 21 24 27 26 28
1 1 3 3 2 2 2 2 1 1 1 2 2 6 8 9 14 14 14 15 15 23 25 30 31 27 22 17 14 11 8 5 3 5 8 11 15 18 20 23 24 26 26 27
1 2 3 4 2 4 4 6 1 1 2 3 3 4 9 14 12 15 14 14 20 23 25 30 28 25 21 16 13 10 6 3 3 6 10 12 14 19 23 26 26 24 24 21
4 4 3 3 1 2 4 5 5 5 4 5 6 6 5 9 14 13 11 18 23 22 26 27 26 25 21 16 12 8 4 3 5 7 9 12 16 20 22 26 34 26 22 19

GFSCGP_925_spd_087.txt.gz
Wind_Speed
9 6 13 7 4 3 7 6 7 1 6 5 9 6 8 8 5 8 8 9 9 9 15 18 19 25 26 27 29 29 29 28 24 25 23 21 20 18 17 16 15 14 12 13
10 21 14 8 6 9 4 8 4 4 1 3 6 9 6 7 7 8 9 9 10 6 6 11 16 19 23 26 30 31 31 29 26 27 24 19 19 17 17 15 14 14 13 14
17 12 14 14 8 11 7 7 6 7 4 2 4 5 5 7 5 6 5 6 5 10 9 6 10 10 12 16 19 25 30 30 28 25 25 19 14 15 14 17 17 16 14 14
11 16 19 15 12 8 7 5 7 12 6 4 3 4 6 7 9 9 9 8 8 8 6 5 7 6 7 10 13 14 18 25 29 27 25 24 20 15 14 13 10 9 9 9
13 17 20 9 9 6 4 9 8 4 5 5 3 2 6 6 5 8 8 8 8 8 8 8 8 6 6 10 12 15 15 16 23 27 22 19 17 14 11 8 7 5 5 5
4 2 6 7 2 7 7 8 8 5 4 1 5 6 5 6 8 5 5 7 8 8 7 8 7 6 4 5 10 14 14 16 16 25 20 17 16 12 10 8 8 6 4 4
2 1 1 4 7 4 8 7 2 2 1 5 3 4 7 5 7 9 13 9 9 8 7 6 7 9 9 9 11 17 20 19 19 18 20 15 11 9 10 9 8 7 6 3
6 4 5 2 7 8 8 7 6 6 4 3 3 6 5 1 6 8 11 11 8 8 7 7 9 10 12 13 17 21 23 22 20 19 18 15 10 11 11 10 7 7 7 5
6 4 0 2 1 9 5 4 5 7 3 4 4 4 4 0 5 5 10 9 9 8 8 8 11 13 17 17 17 19 22 22 21 21 19 18 14 13 15 14 13 13 11 10
6 5 2 1 1 2 6 7 3 3 5 3 3 3 5 8 12 8 9 10 9 8 9 7 12 16 17 20 23 24 25 27 26 26 26 24 22 20 20 19 18 15 14 12
5 4 2 2 5 8 3 3 3 5 4 5 3 6 7 13 13 16 10 10 12 11 10 9 15 19 21 23 25 27 28 29 29 29 28 28 25 23 21 21 18 16 13 12
2 5 4 5 1 2 2 6 6 5 5 1 3 5 1 3 11 15 13 12 9 10 10 9 18 23 24 25 26 27 28 30 30 30 29 28 25 23 21 19 17 14 13 11
7 1 4 3 2 1 3 4 4 5 4 7 5 5 3 2 7 9 13 13 13 11 10 9 15 18 23 25 27 27 28 29 29 29 29 26 24 21 19 17 15 13 12 11
8 4 7 9 7 7 7 7 5 6 4 5 6 5 4 6 8 8 11 14 13 14 14 11 11 17 22 26 28 28 28 28 28 28 27 25 21 19 17 14 12 12 11 11
5 6 5 3 7 8 6 9 8 12 15 10 11 10 6 10 12 15 12 13 16 15 15 14 13 17 22 26 29 29 28 28 27 26 25 22 19 16 14 12 10 10 10 11
1 3 4 2 3 4 5 10 16 15 5 7 5 6 7 8 8 11 16 16 17 17 17 15 15 21 22 24 28 30 29 27 25 25 23 19 16 13 11 9 9 9 9 10
7 5 3 4 2 6 4 12 16 14 6 17 8 13 6 5 12 15 16 19 21 20 19 18 18 24 26 28 32 33 31 27 25 24 21 17 13 10 9 7 7 8 9 11
5 6 3 3 3 3 8 9 13 18 12 17 8 6 11 8 15 15 19 23 21 19 20 18 24 26 29 35 36 34 31 27 25 22 18 14 10 8 7 6 6 8 11 14
5 4 3 5 3 5 5 6 7 9 12 7 18 15 6 3 5 7 16 18 22 24 23 28 32 34 32 37 37 35 31 27 23 20 15 11 8 6 5 4 6 9 12 16
3 3 5 2 5 8 18 7 6 7 12 11 14 13 8 8 5 10 14 19 15 22 28 30 32 35 38 39 39 37 32 27 23 18 14 9 7 4 2 4 7 11 15 18
4 2 7 4 3 9 7 8 9 7 12 7 11 12 11 10 18 13 10 8 18 25 29 34 38 37 36 42 40 36 31 25 20 16 13 9 6 3 1 5 9 13 17 21
8 7 4 2 2 17 6 4 17 9 1 3 3 7 12 10 3 5 9 13 18 22 29 34 33 30 37 42 40 34 29 23 18 15 11 8 5 2 2 6 10 14 18 21
3 5 7 12 14 1 1 1 2 2 2 2 0 3 3 6 5 6 6 11 12 25 28 30 33 32 35 37 36 33 25 20 17 13 10 7 3 1 4 9 12 16 17 18
2 1 2 3 3 1 1 3 2 2 1 1 2 2 6 5 7 7 8 10 12 20 24 29 33 30 31 29 28 26 23 18 14 12 8 5 1 3 7 9 12 14 15 16
1 2 4 5 3 3 5 5 2 4 4 1 1 3 6 8 6 7 9 10 14 19 22 28 29 28 31 28 26 22 19 16 13 10 7 2 2 6 9 10 11 12 10 10
4 5 3 2 2 2 1 5 3 2 3 4 3 3 4 6 8 7 8 13 18 21 25 25 27 32 32 28 24 20 16 14 13 8 4 1 3 6 8 12 14 11 7 10

GFSCGP_925_spd_090.txt.gz
Wind_Speed
7 6 17 28 13 11 5 4 5 2 5 5 9 5 9 8 5 8 9 9 10 11 18 29 33 33 35 36 36 38 38 36 31 28 24 23 23 22 21 19 17 16 15 14
6 18 22 20 3 13 5 7 4 2 1 4 5 9 5 6 7 9 12 10 11 7 7 17 24 30 31 34 37 37 38 36 34 31 27 23 23 21 19 17 16 16 15 13
17 5 17 10 5 10 10 5 6 6 3 3 6 6 4 6 5 5 7 7 8 12 11 8 17 25 30 32 35 36 36 35 36 32 27 20 18 18 17 18 17 16 15 15
6 9 23 12 15 10 13 8 7 10 6 5 4 5 7 7 9 7 9 9 9 10 5 6 14 17 21 24 27 31 33 35 35 31 28 28 23 18 18 16 14 12 11 11
5 11 22 20 26 16 9 7 10 7 4 6 3 2 7 3 8 10 12 9 8 8 9 9 11 13 13 15 16 18 24 31 33 33 30 30 26 18 15 13 11 10 8 8
6 6 11 12 18 15 5 6 7 4 4 3 7 7 6 6 9 8 5 9 9 8 7 9 10 10 10 11 15 17 17 26 30 33 31 28 22 18 16 14 12 11 9 8
6 10 5 11 14 5 9 9 2 1 2 8 1 3 9 5 6 7 17 13 9 9 8 7 8 10 8 10 12 17 19 24 29 32 28 25 20 20 17 16 15 14 11 7
9 8 13 9 12 8 11 11 6 7 6 4 4 7 6 4 5 7 6 11 9 8 7 7 10 11 10 9 13 19 22 23 27 30 25 23 22 19 14 15 15 13 9 7
15 8 4 4 4 10 9 10 5 7 3 4 5 6 7 2 1 3 8 13 11 8 7 7 10 12 14 14 17 22 25 26 27 30 31 26 18 13 16 16 15 14 13 12
6 4 2 4 2 3 8 8 3 2 5 4 4 4 5 6 9 7 9 13 9 8 8 6 11 13 14 16 18 22 26 28 30 31 29 26 21 18 19 19 19 19 17 15
4 5 3 4 5 7 2 3 3 5 4 6 2 6 8 14 16 20 14 8 10 10 9 7 11 16 18 20 22 24 26 27 28 28 28 27 27 25 24 23 21 19 17 14
1 5 5 5 3 1 2 7 6 5 5 1 3 5 2 5 7 8 9 11 9 10 9 8 15 20 21 23 25 26 27 29 29 30 32 32 30 28 26 23 20 17 16 13
6 1 3 3 3 1 4 4 4 5 3 7 6 5 1 3 5 9 14 9 10 10 9 7 13 17 22 24 25 27 29 32 33 34 35 33 31 28 25 21 18 15 13 11
10 3 7 14 10 6 5 4 4 6 4 5 6 4 5 6 7 7 10 12 12 13 14 11 9 15 22 25 27 29 30 32 33 34 33 32 30 27 24 21 16 14 12 9
6 6 5 14 9 14 7 17 13 12 16 12 14 10 11 10 10 12 9 12 14 14 14 14 13 14 21 26 29 31 32 33 34 34 32 30 27 24 22 19 15 12 10 8
3 4 4 1 2 10 11 12 10 14 3 9 5 7 7 2 7 8 13 15 16 16 15 15 13 19 22 25 29 31 34 34 34 33 31 28 25 22 19 17 13 11 9 7
8 5 3 4 2 4 2 11 16 19 7 15 9 15 6 4 8 11 12 16 19 19 18 19 18 24 27 29 31 34 38 36 34 32 30 27 23 20 18 15 12 10 8 5
6 7 3 2 2 1 7 4 13 19 15 13 4 5 9 8 15 10 13 19 20 18 17 18 25 28 30 31 35 38 39 36 34 32 29 26 22 19 16 14 11 8 5 2
4 4 3 5 3 5 6 7 8 9 12 12 18 18 7 2 3 5 11 14 18 21 23 32 35 33 32 36 38 41 38 37 35 32 28 24 21 19 17 14 11 6 3 2
0 2 4 2 6 12 3 6 8 6 10 10 15 13 8 7 5 11 12 17 18 21 23 26 31 32 35 37 44 44 41 39 36 32 27 22 19 16 15 12 8 4 0 4
9 2 9 5 4 7 7 5 6 6 9 5 10 10 12 9 13 5 8 11 19 20 25 30 35 36 37 43 47 38 37 37 35 29 24 21 18 15 12 9 6 2 2 4
8 8 4 3 5 14 6 4 10 7 3 2 3 7 10 13 1 1 4 6 10 13 25 34 31 30 36 45 44 34 33 36 31 27 22 19 16 13 9 6 3 2 3 4
3 7 8 13 9 3 3 1 3 4 1 1 2 2 3 6 6 2 4 6 7 16 21 27 28 27 30 42 42 37 38 35 31 26 21 18 15 12 8 4 2 1 2 6
3 1 4 3 2 4 1 3 2 3 3 4 3 2 1 4 5 5 4 5 6 15 19 25 29 28 29 38 40 42 40 34 29 25 21 18 15 10 6 3 3 1 2 5
2 5 4 4 3 1 1 2 2 2 2 2 3 3 4 4 5 4 4 4 7 14 18 24 24 25 27 38 39 39 37 31 27 23 20 16 12 8 6 5 3 1 4 6
4 4 4 3 3 3 3 3 3 2 3 2 2 3 2 1 4 4 4 7 12 15 20 21 24 28 34 38 36 35 31 28 26 23 19 15 12 9 7 5 2 3 3 3

GFSCGP_925_spd_093.txt.gz
Wind_Speed
5 5 14 19 19 8 1 4 6 4 4 5 8 8 8 7 4 8 9 8 10 13 19 26 35 35 35 36 39 38 38 37 34 31 28 23 24 22 19 16 15 15 14 12
6 18 13 13 15 8 2 2 5 2 1 2 5 13 4 7 8 10 13 12 13 7 7 19 31 36 37 38 38 39 40 39 37 36 32 28 24 24 22 21 20 17 16 15
9 3 15 16 14 11 9 5 6 7 4 3 4 7 5 6 4 4 8 7 8 13 14 10 22 32 38 37 39 40 40 40 39 38 31 24 21 20 21 20 18 16 15 14
4 8 21 19 16 14 16 7 9 3 6 8 4 6 7 8 9 8 10 9 11 12 8 7 18 24 33 37 36 38 39 39 39 38 34 32 25 19 20 19 17 16 15 15
3 15 21 22 24 19 6 3 1 3 4 4 4 1 6 2 15 9 11 12 12 10 10 11 17 27 27 31 32 34 35 36 38 39 37 34 28 23 18 18 15 13 11 9
3 1 9 12 16 21 5 9 5 3 4 6 10 8 6 7 8 13 12 13 11 10 9 8 14 17 17 20 22 27 32 34 36 37 37 34 31 27 18 17 13 13 11 10
2 3 3 10 12 13 6 8 2 1 3 12 2 5 14 5 8 9 16 17 11 9 8 9 10 16 16 18 20 22 24 31 35 36 37 34 29 25 22 22 19 16 14 12
8 5 12 12 13 12 18 12 5 8 9 13 1 8 7 7 5 6 6 8 8 8 8 8 12 18 18 18 19 22 26 26 30 31 32 33 28 25 23 22 21 19 16 11
6 4 13 14 8 16 15 13 8 3 3 2 4 7 10 4 6 5 7 7 14 13 11 10 11 15 15 15 17 21 25 27 28 27 29 30 26 26 24 22 20 18 14 12
7 5 3 4 12 12 6 10 8 2 4 4 4 5 7 6 10 7 8 12 10 8 8 7 10 15 15 14 15 17 21 25 28 30 31 32 29 26 23 20 19 18 16 16
2 4 3 7 10 19 9 11 8 4 4 5 2 6 9 12 13 13 16 12 11 11 9 7 10 15 16 15 15 18 21 26 30 33 34 33 31 26 20 20 22 22 21 19
7 2 4 5 2 5 9 16 12 11 9 1 3 6 2 7 5 4 5 6 6 7 8 6 12 16 16 18 19 22 23 27 31 33 33 33 32 26 26 26 25 23 22 18
8 3 4 2 1 4 5 6 6 3 3 11 6 6 1 4 5 6 8 9 8 7 8 7 8 13 18 20 22 24 25 27 29 32 33 32 32 32 32 29 26 23 21 17
7 4 7 12 10 7 6 6 6 9 8 5 7 4 8 6 8 6 6 8 10 10 11 10 7 11 18 22 25 25 25 28 30 32 33 34 34 34 32 29 26 22 19 16
12 7 4 6 6 13 8 7 7 8 14 8 7 7 8 9 8 6 6 7 9 11 11 10 9 11 21 25 26 27 29 31 33 35 36 36 34 32 30 27 24 21 18 15
2 1 6 4 2 9 15 15 11 16 15 12 5 9 7 2 4 5 9 11 13 15 14 11 11 16 19 23 28 30 33 34 36 37 37 36 34 32 29 26 23 19 17 15
5 6 4 8 3 6 2 17 16 15 13 17 11 18 4 6 8 9 10 14 17 14 12 14 16 22 24 26 29 31 36 35 36 37 36 34 32 30 26 24 21 19 16 13
6 5 3 4 3 2 9 7 17 21 19 20 4 6 9 9 10 5 8 15 15 14 15 16 21 25 29 30 33 34 36 37 37 36 36 34 31 29 25 22 21 18 15 12
3 6 3 4 3 7 10 5 7 8 16 16 16 21 10 1 3 5 10 9 13 15 16 26 29 27 28 33 36 39 38 38 37 38 36 33 31 28 26 24 21 18 14 10
5 4 5 3 6 12 3 9 6 5 13 8 15 15 9 7 4 14 8 10 15 20 20 21 28 29 30 33 39 40 38 39 38 40 37 33 29 27 25 22 20 16 13 8
4 3 5 4 5 7 8 5 3 9 7 3 11 13 9 9 16 3 7 8 11 15 18 24 30 31 33 36 43 35 35 37 41 39 35 30 26 24 22 21 18 14 10 6
13 8 4 3 3 11 5 4 8 2 1 2 2 3 9 9 2 1 3 1 5 8 19 30 29 29 35 41 42 35 38 40 40 38 33 29 26 24 22 19 16 12 9 6
4 8 8 10 6 5 3 2 3 2 2 1 3 3 3 4 3 1 2 3 4 8 14 25 25 25 31 39 42 34 35 43 42 39 34 29 26 23 20 17 13 10 8 6
2 2 4 4 3 3 1 2 2 3 1 1 1 2 3 3 5 5 2 3 2 7 15 23 24 21 23 34 36 34 42 45 44 40 33 29 26 22 17 14 12 10 8 6
2 6 5 3 3 1 2 3 3 2 3 3 2 2 2 3 4 4 4 1 2 6 10 20 19 19 22 31 34 36 44 47 44 38 33 29 25 21 18 14 11 8 8 9
3 4 4 3 3 3 1 1 3 4 2 1 1 1 1 1 3 2 3 2 5 7 11 15 16 19 23 30 34 36 43 46 44 38 33 30 25 20 16 12 9 10 10 10

GFSCGP_925_spd_099.txt.gz
Wind_Speed
2 5 11 17 11 2 9 3 9 4 4 2 6 10 13 5 5 7 8 10 11 14 17 23 30 31 30 29 30 31 30 30 28 27 24 21 21 19 19 17 16 16 14 12
4 10 6 10 9 6 11 8 4 3 3 4 12 22 14 6 7 9 11 9 12 6 7 18 27 33 34 33 34 34 33 32 31 31 30 26 25 22 18 17 18 17 17 16
9 3 11 12 12 12 5 12 8 3 3 3 3 15 17 7 5 5 7 7 7 14 14 12 20 30 35 36 37 38 37 36 34 33 31 27 21 20 21 20 19 18 17 17
2 8 16 14 14 15 7 4 6 7 4 4 4 6 11 9 13 8 13 10 13 14 8 11 19 24 33 38 40 40 40 39 37 36 35 33 27 22 26 23 18 20 20 17
7 10 15 14 13 15 4 12 6 5 6 2 5 4 7 7 10 11 13 14 15 16 15 15 21 30 37 39 42 42 40 39 38 39 38 38 31 32 26 24 23 18 17 16
3 1 8 7 6 13 15 13 11 6 2 5 8 10 7 10 14 8 9 16 17 15 15 16 22 28 32 34 38 42 42 42 40 39 39 40 36 37 32 24 21 19 18 17
4 4 1 5 10 10 4 13 3 2 3 6 3 7 20 9 7 9 12 14 17 16 13 13 12 23 32 36 38 40 41 39 40 40 39 40 39 39 36 33 28 25 22 20
8 7 8 4 6 7 9 1 5 7 5 2 1 10 6 15 22 15 11 8 5 9 10 14 19 26 31 37 40 42 41 36 39 39 38 39 39 38 37 34 33 31 27 24
10 4 1 2 5 12 4 4 1 4 2 2 6 8 9 11 10 7 11 7 12 10 11 16 19 26 31 35 41 42 40 38 37 35 33 33 35 36 37 33 31 31 27 24
7 5 3 5 7 4 3 6 2 1 5 4 5 5 11 3 7 10 10 14 12 8 8 9 8 16 21 29 35 34 34 37 37 29 30 32 30 34 35 33 33 32 29 28
6 5 1 7 8 10 5 4 2 2 3 4 1 6 7 13 14 9 13 9 8 8 7 5 5 13 21 23 26 29 29 30 31 32 29 30 31 31 32 32 33 33 31 29
5 6 5 3 4 8 5 8 8 4 6 2 2 9 3 7 6 3 7 8 5 5 6 7 8 15 19 24 24 25 24 24 26 28 29 30 32 30 32 34 35 35 34 30
8 3 4 2 4 2 7 7 10 1 2 6 4 11 2 3 5 5 7 8 7 5 5 5 8 11 16 20 21 21 21 22 23 23 26 29 30 30 33 35 36 36 33 30
6 4 6 10 5 9 7 15 15 15 4 8 13 24 12 10 6 6 6 8 8 5 6 5 5 10 21 22 22 21 19 19 20 22 25 28 30 33 35 39 38 35 32 32
3 4 3 3 6 5 6 10 19 19 27 10 29 20 18 16 12 4 3 3 5 6 5 6 6 5 11 16 20 20 20 19 22 24 26 28 30 33 37 39 37 33 33 33
1 2 4 2 4 6 4 13 20 24 23 23 21 25 3 4 9 8 5 5 8 8 9 9 10 10 15 20 23 23 24 24 24 26 28 29 32 36 37 37 36 36 36 33
8 6 4 4 2 5 6 16 20 20 20 24 16 33 6 5 11 9 6 8 10 10 8 9 12 12 19 26 28 28 27 25 25 26 27 29 33 34 35 37 37 37 35 33
12 6 3 3 2 3 5 3 17 23 16 23 25 24 7 13 14 9 8 8 12 12 10 9 10 16 19 25 26 26 27 28 29 29 29 31 34 36 37 38 38 37 35 33
3 7 2 5 3 9 15 4 7 10 20 20 20 21 11 9 0 16 12 12 16 9 15 13 17 19 22 29 30 29 29 31 32 32 32 34 37 39 40 40 38 36 34 31
6 7 7 3 6 10 3 3 5 8 16 8 17 21 17 8 5 12 10 7 12 11 6 11 14 19 23 27 30 32 31 32 32 35 36 36 38 41 43 41 38 35 33 31
6 2 11 4 5 8 8 1 5 6 5 2 4 13 6 8 11 1 4 5 5 4 7 8 14 20 21 22 27 27 27 31 33 33 34 36 39 42 42 39 37 34 31 28
7 8 5 3 2 12 8 3 12 5 2 2 3 3 4 5 1 4 5 5 7 8 7 4 10 13 15 21 27 24 27 30 31 32 33 37 39 39 39 38 34 31 30 28
2 7 6 12 7 2 6 3 2 2 2 1 1 2 1 3 4 4 4 7 6 9 6 3 7 10 13 20 25 23 24 27 29 32 35 38 38 37 37 36 34 32 30 29
2 1 4 4 4 5 4 1 2 2 3 1 1 2 3 4 5 5 6 6 6 11 11 8 2 8 12 16 20 22 22 25 29 32 33 35 37 35 34 34 34 34 32 29
3 6 6 3 5 3 4 4 4 3 2 3 4 4 5 4 4 4 4 4 6 9 11 10 7 4 7 10 14 17 19 23 28 31 33 34 37 37 35 33 33 32 29 28
3 5 5 5 2 3 1 3 2 4 4 4 5 5 5 5 5 4 5 7 9 11 12 11 8 4 4 6 10 13 17 22 27 27 29 31 34 34 34 32 24 20 19 20

GFSCGP_925_spd_102.txt.gz
Wind_Speed
8 8 20 21 17 11 15 15 19 9 5 8 20 22 21 19 11 13 13 14 15 16 19 22 23 23 23 22 23 24 23 23 21 19 17 16 17 17 16 16 17 18 17 15
7 20 19 15 16 14 10 14 14 6 3 6 12 18 21 23 22 16 16 16 17 14 16 21 24 27 27 27 26 25 25 24 25 22 21 17 19 19 19 20 20 19 19 19
18 12 11 15 13 10 11 18 15 5 4 1 3 14 24 26 26 24 19 18 14 18 19 18 24 29 28 29 29 28 28 27 26 25 21 18 15 13 16 17 21 21 20 20
11 11 17 14 18 17 8 4 7 10 5 4 7 8 16 17 23 24 20 18 18 18 19 18 25 29 32 32 28 29 29 29 28 27 25 26 24 22 22 22 24 23 22 21
10 17 19 21 19 18 3 9 8 4 4 2 5 5 10 11 17 18 25 22 21 20 20 21 28 32 33 30 33 32 31 30 29 30 29 28 27 25 21 23 30 25 22 23
4 1 10 10 13 18 16 12 13 7 3 5 12 10 16 15 17 15 19 21 21 21 20 22 29 26 29 30 31 32 33 33 33 33 34 32 30 28 24 22 29 30 26 22
5 8 1 9 12 17 8 11 3 2 4 8 2 13 21 11 17 19 19 19 18 18 18 18 18 25 28 32 34 34 35 36 36 36 35 36 34 32 30 28 26 32 29 26
12 7 10 5 8 8 7 8 6 9 7 6 2 10 5 13 18 18 14 14 12 16 14 16 20 27 31 35 36 36 36 36 36 36 37 36 36 34 33 30 26 31 35 31
15 6 2 4 7 16 5 5 3 4 2 1 6 7 10 16 14 11 16 18 16 14 12 14 18 24 28 29 35 39 36 35 35 37 34 34 34 34 31 29 29 28 35 34
13 7 0 4 6 5 13 13 5 2 5 7 9 7 9 11 13 16 14 16 17 17 11 11 11 16 18 19 22 25 30 34 36 34 34 33 32 32 29 27 29 31 34 33
15 6 3 6 5 9 7 6 2 1 3 5 5 7 4 8 10 9 7 6 9 11 11 10 10 14 15 18 21 24 27 30 31 31 29 28 29 32 32 31 34 33 35 36
4 6 7 3 1 6 4 9 9 7 6 5 5 12 5 3 3 3 8 9 8 7 9 8 11 13 15 19 21 25 24 26 26 26 25 28 31 32 35 36 36 34 38 39
10 6 7 4 3 3 9 10 12 5 1 8 6 10 1 5 3 3 4 8 9 9 7 7 7 10 13 15 16 18 19 21 23 22 24 28 31 33 35 35 34 36 39 42
7 5 8 12 9 12 7 17 17 15 5 17 16 29 18 9 7 2 3 9 12 6 7 8 7 8 13 12 13 14 15 16 21 22 22 22 31 33 33 34 35 38 41 44
6 5 6 4 11 11 16 21 19 21 30 14 29 26 27 21 20 20 10 9 8 8 8 7 9 9 12 14 15 14 13 14 16 17 19 22 29 31 33 34 36 37 42 45
3 5 8 3 10 8 7 19 25 29 29 25 28 24 19 10 5 9 11 9 10 9 9 8 9 9 13 16 17 15 17 19 19 18 19 21 27 31 31 32 35 38 41 42
11 6 6 7 9 7 5 20 23 22 23 25 20 32 12 10 11 15 15 11 13 11 10 11 11 10 16 20 20 20 20 21 22 22 24 25 26 30 31 32 35 39 40 38
15 6 2 4 4 7 1 2 19 24 18 24 20 24 16 16 15 14 16 18 19 12 12 12 11 12 14 16 20 22 24 24 25 25 24 26 27 28 30 32 36 38 38 39
11 7 4 6 10 5 8 6 9 13 16 21 23 26 23 22 14 22 22 16 16 16 13 16 16 9 9 14 18 23 26 24 24 24 26 27 29 30 31 34 36 36 36 37
8 8 5 4 6 9 1 1 2 10 8 16 21 22 20 11 8 15 7 1 6 9 9 10 10 6 7 10 16 23 24 26 27 31 30 29 30 31 34 35 36 36 37 37
9 7 11 4 5 4 6 4 6 6 4 2 4 12 10 11 10 3 6 5 8 9 12 7 3 3 5 10 17 19 17 22 29 30 29 29 29 32 34 36 37 38 36 35
10 8 6 3 6 12 7 6 9 2 3 2 2 1 3 5 2 3 6 7 9 11 16 13 4 3 4 9 16 18 19 19 21 24 26 28 30 32 34 37 37 37 38 36
5 6 6 10 6 2 10 3 2 2 3 1 2 2 2 2 5 6 7 8 8 12 13 14 11 6 1 6 11 14 15 16 19 21 23 26 28 31 32 35 35 34 34 33
3 2 4 4 5 4 6 3 3 2 4 3 2 2 3 3 4 6 6 7 8 11 13 16 14 12 8 5 7 12 10 13 17 21 23 25 28 30 32 32 35 35 32 29
1 9 6 2 1 2 3 3 6 6 7 8 8 8 9 5 7 7 5 7 9 11 14 15 14 13 11 8 6 7 9 11 14 17 20 22 23 27 28 28 32 31 31 33
2 2 6 4 4 3 3 7 6 8 8 7 7 8 10 10 9 7 7 10 10 12 15 15 15 13 13 10 7 6 6 9 12 15 18 20 21 21 23 24 19 21 27 27

GFSCGP_925_spd_105.txt.gz
Wind_Speed
10 11 21 21 16 13 11 15 20 11 2 10 17 18 21 23 23 19 13 12 13 14 15 20 24 26 25 25 26 27 26 24 23 23 21 18 19 18 17 17 17 16 15 15
8 20 22 17 20 18 7 17 19 5 6 6 14 21 19 23 24 22 21 17 15 13 14 18 24 26 28 27 28 28 28 26 27 24 22 21 20 19 19 19 19 18 18 19
24 16 21 19 18 21 20 17 16 8 7 5 7 20 21 23 24 23 21 22 18 15 16 16 24 29 30 30 29 29 30 30 30 28 25 21 18 18 19 20 22 21 21 22
22 19 27 20 21 19 21 9 14 9 8 5 6 8 17 18 22 22 23 22 22 19 17 16 23 27 31 32 30 31 30 31 31 32 27 28 26 23 23 23 22 23 24 24
13 21 22 24 23 19 4 9 6 3 2 1 7 5 8 13 18 19 18 23 24 20 19 18 21 29 33 33 34 33 33 32 32 33 33 31 28 27 24 24 24 26 27 26
10 4 16 18 15 15 16 10 11 6 1 7 15 10 10 13 19 15 15 17 21 21 21 19 25 25 27 31 33 34 34 35 35 35 36 34 32 28 26 25 25 23 29 28
9 11 3 8 19 16 13 12 3 6 5 6 2 11 16 16 15 12 13 14 15 18 19 19 19 23 28 31 34 35 37 37 38 36 36 37 34 32 30 28 26 24 25 31
14 6 15 10 17 10 15 18 7 8 10 8 3 10 4 8 13 12 16 13 11 10 11 14 16 23 28 33 36 36 37 39 37 38 39 37 37 34 32 30 27 26 27 35
15 6 4 12 9 16 4 9 2 2 1 2 7 9 8 12 11 14 13 11 14 13 9 9 14 21 26 28 32 35 35 35 36 40 37 37 36 36 33 31 30 28 26 26
15 7 1 2 6 1 14 10 2 2 5 7 8 11 7 6 8 8 5 9 8 8 11 9 8 15 20 23 26 28 31 33 33 33 35 36 36 35 35 31 31 29 30 31
19 9 2 8 8 9 8 7 6 3 6 4 4 5 4 6 4 1 3 3 4 5 6 7 6 12 15 18 18 25 28 30 29 30 33 33 33 34 33 32 31 31 34 38
7 7 7 3 2 10 12 11 14 6 7 5 5 8 5 7 5 6 4 5 4 4 3 5 6 6 10 13 16 20 22 26 31 30 31 32 31 30 32 33 32 34 35 37
10 7 7 4 2 0 9 17 17 10 2 13 6 8 5 7 3 3 2 3 6 4 5 4 3 5 8 10 12 14 17 21 23 26 29 30 32 32 33 33 37 38 38 34
9 10 14 16 19 10 9 16 18 17 6 13 17 17 9 7 5 4 4 4 10 11 5 5 4 5 6 8 10 11 13 15 16 20 22 24 28 29 29 33 36 37 38 35
6 5 7 2 12 18 18 22 20 22 29 14 24 24 16 14 13 13 11 12 11 11 8 4 4 4 5 7 9 10 11 12 14 16 17 18 18 29 31 32 33 33 34 34
4 4 7 2 10 14 16 20 23 27 29 22 26 24 10 12 9 7 9 11 14 12 10 8 5 4 7 9 10 12 12 12 11 12 13 15 18 22 25 27 26 27 28 31
13 7 3 5 10 8 2 24 26 25 24 28 20 31 9 8 8 10 11 12 11 10 10 11 13 9 8 10 13 14 13 13 14 16 17 18 20 21 23 24 26 29 31 32
13 8 3 4 4 5 2 5 21 26 20 24 21 13 11 13 15 10 13 14 14 14 13 10 10 18 18 10 11 13 16 18 18 19 19 19 19 21 23 25 27 28 29 32
12 6 4 6 11 1 8 5 16 16 18 18 23 19 21 19 13 18 14 14 17 14 9 10 15 16 12 8 7 12 17 19 18 19 19 18 18 20 21 22 24 26 28 30
11 11 5 4 7 11 4 9 6 14 6 15 23 19 16 10 8 8 6 7 8 9 10 12 13 10 8 5 3 10 12 13 15 17 18 17 19 21 22 23 25 25 26 30
12 9 8 6 3 3 3 8 11 7 3 2 10 10 8 9 8 5 4 5 7 8 10 13 10 9 9 6 4 5 7 13 13 15 17 18 19 21 21 21 22 23 26 27
13 12 5 3 5 7 10 10 11 3 3 5 5 3 3 0 4 4 6 7 8 7 10 11 9 10 10 9 5 5 6 9 10 10 13 15 17 18 19 20 21 22 25 24
7 8 6 9 5 1 13 1 5 2 5 3 6 4 4 6 6 7 7 9 9 13 12 12 12 12 15 13 11 11 11 10 6 7 9 12 14 17 19 21 23 24 26 24
2 2 4 5 4 3 9 4 4 4 8 8 8 8 6 9 8 9 8 8 9 12 14 17 18 17 19 20 15 10 7 7 6 5 7 9 12 14 15 17 21 22 24 24
1 7 5 1 2 4 1 2 9 8 11 11 9 9 10 12 10 8 6 5 7 9 11 15 16 15 18 20 20 18 15 10 5 3 4 6 8 11 13 15 18 18 22 25
6 4 4 1 1 1 3 10 9 9 9 9 10 8 6 8 9 7 7 7 7 6 9 12 15 15 14 14 14 14 13 10 8 7 5 3 6 8 10 12 12 11 15 18

GFSCGP_925_spd_108.txt.gz
Wind_Speed
10 7 17 17 12 10 11 8 15 6 8 8 12 16 12 12 8 8 8 8 8 7 16 28 27 27 28 28 29 30 31 33 34 36 26 23 25 24 23 22 21 20 19 20
8 18 17 13 14 12 11 8 11 8 5 2 8 14 14 12 9 12 14 10 10 8 8 18 28 29 30 32 33 33 33 33 35 35 37 31 32 29 28 26 25 26 24 22
16 14 17 16 15 15 15 10 6 7 4 2 5 9 13 12 13 13 14 13 10 10 11 10 22 30 31 31 35 36 36 36 35 32 31 28 26 26 27 27 30 29 26 25
16 13 22 17 18 14 17 9 6 5 4 4 6 6 8 9 17 18 17 15 15 16 9 9 19 25 31 32 33 37 37 37 37 35 32 32 29 28 28 29 31 30 30 29
15 24 24 24 21 17 4 13 11 5 2 2 3 3 4 9 14 15 15 21 20 18 14 13 16 31 35 35 38 39 38 38 37 39 36 34 31 28 27 28 27 30 32 33
15 6 16 18 16 12 8 7 7 4 0 6 10 7 5 9 13 8 9 10 10 16 18 16 26 29 32 37 36 35 36 39 40 40 41 36 34 30 29 31 30 31 33 33
7 14 14 23 18 8 9 9 3 6 5 11 8 10 13 11 10 7 8 10 9 8 14 13 11 17 27 33 37 37 38 38 39 39 39 42 37 36 35 32 32 31 33 35
10 11 17 12 18 9 21 18 4 8 5 5 1 7 5 19 19 10 9 8 8 5 6 10 11 19 26 31 36 39 39 39 38 40 41 38 39 35 35 35 32 37 38 40
13 5 9 14 16 14 9 12 5 4 1 2 5 5 7 9 8 7 8 8 7 7 6 3 6 13 24 30 32 33 35 36 35 38 37 38 38 39 36 35 35 35 39 41
9 5 4 1 8 6 10 7 4 2 5 4 5 5 5 5 8 6 3 5 7 5 2 5 6 9 10 17 27 29 32 34 36 35 36 38 37 37 38 35 37 37 38 40
13 5 4 5 6 14 6 12 6 5 3 4 2 4 5 5 4 7 6 5 5 4 3 4 3 6 13 16 18 27 31 33 34 34 38 37 38 40 39 39 40 42 39 40
12 6 8 11 5 2 8 12 8 6 5 2 4 5 2 9 7 7 8 7 4 3 1 1 2 4 5 9 14 17 21 27 32 32 34 35 37 36 36 39 39 37 40 40
11 6 7 5 3 2 7 12 18 7 2 7 5 5 4 6 5 5 8 5 5 5 2 3 2 3 6 7 11 15 19 23 24 27 28 31 35 34 37 39 37 36 38 40
15 6 11 18 23 11 12 18 18 17 4 5 13 3 3 8 8 7 7 7 4 1 2 3 2 3 3 5 8 12 15 17 19 22 26 24 25 28 30 32 34 35 35 36
8 5 8 1 15 14 22 22 19 18 24 10 23 19 13 7 8 6 6 4 4 4 1 3 3 3 3 5 8 11 13 14 17 19 21 26 24 25 27 29 30 32 34 36
5 3 5 4 14 19 19 20 20 21 27 24 18 10 7 8 3 4 1 6 8 6 5 5 4 4 7 9 12 11 12 14 15 16 17 18 20 22 23 25 27 27 31 32
14 6 8 4 8 10 8 23 26 25 19 29 18 21 4 4 3 2 2 7 6 7 4 5 7 6 9 12 12 12 13 12 16 15 15 15 15 16 20 22 23 24 26 27
13 8 2 5 8 5 6 19 26 31 24 26 21 7 5 5 3 3 5 3 7 7 8 6 5 11 13 10 5 6 8 11 14 13 14 14 15 15 16 16 18 21 21 22
10 6 4 5 8 3 2 6 27 21 22 19 26 20 12 8 2 7 1 5 4 5 5 6 11 11 11 9 5 2 4 7 8 9 11 12 12 13 12 13 15 18 19 22
12 4 4 4 5 10 3 10 10 7 14 15 19 15 18 9 6 4 5 4 6 9 10 11 12 12 13 13 8 5 4 3 5 7 8 10 11 12 12 12 15 15 17 19
6 3 8 8 4 6 5 7 13 10 7 6 17 15 9 6 4 6 6 7 9 10 12 12 14 16 15 12 10 12 9 9 7 5 5 7 8 10 10 10 11 12 12 14
9 9 6 3 3 7 7 3 12 4 2 1 6 5 9 11 8 8 8 7 7 8 13 13 14 14 14 14 12 13 13 9 6 4 4 4 6 6 7 9 10 11 10 14
4 6 8 7 5 2 15 5 2 4 4 2 6 5 8 10 7 8 7 7 5 9 11 13 14 16 17 17 15 15 13 11 9 7 5 3 3 4 6 9 10 10 11 14
5 2 4 5 2 4 6 3 3 4 5 5 7 6 6 9 8 8 7 6 5 9 11 11 14 17 18 17 17 15 12 10 8 8 6 5 3 3 4 7 9 11 13 15
2 3 5 2 4 2 2 3 6 7 9 9 7 5 7 10 8 7 5 5 7 11 13 14 15 16 17 16 18 16 14 11 9 7 6 3 1 2 4 6 7 9 11 14
7 6 3 2 8 5 3 6 6 7 6 7 6 6 8 6 8 7 7 9 10 12 15 17 19 20 19 20 21 20 18 14 10 10 8 5 3 1 2 5 6 5 7 10

GFSCGP_925_spd_111.txt.gz
Wind_Speed
5 6 16 15 8 3 3 5 9 4 9 9 10 8 11 11 5 8 9 8 8 13 21 31 35 38 36 31 37 40 37 39 38 34 29 32 33 31 29 30 29 26 24 26
5 14 14 8 8 8 9 5 6 6 2 7 6 15 12 8 9 10 10 9 9 7 10 23 28 34 37 38 38 40 39 41 44 43 39 30 31 33 32 32 30 28 28 26
16 9 11 12 9 12 12 9 5 5 1 1 2 8 7 6 7 9 9 10 10 13 12 15 24 32 36 37 40 43 42 40 44 40 37 32 24 27 31 31 31 32 30 30
15 12 20 14 18 11 14 9 9 3 4 5 4 7 10 10 18 16 15 13 17 14 11 11 26 29 34 38 44 44 43 42 41 44 37 37 31 29 34 36 37 34 34 34
6 16 19 21 24 15 6 9 9 4 2 2 4 4 6 8 9 9 15 21 19 14 14 15 21 34 39 36 44 45 43 42 42 43 40 36 35 31 29 32 36 37 36 37
15 4 16 17 15 14 7 6 5 4 2 8 8 8 5 7 7 11 15 13 14 16 16 15 27 32 33 39 38 40 43 45 44 43 44 41 38 33 32 35 36 38 40 41
18 21 3 9 17 4 7 10 3 7 5 10 13 9 16 7 9 12 11 9 8 8 11 14 13 19 27 33 38 37 39 39 41 43 43 43 41 38 35 35 37 32 35 39
11 11 22 13 18 13 21 17 5 9 6 8 3 8 5 18 23 13 10 9 8 8 6 9 13 21 28 33 38 38 36 37 37 39 44 42 41 37 38 35 34 36 39 42
6 5 15 10 6 15 9 13 10 4 3 3 5 6 8 7 12 7 9 7 8 7 7 8 9 17 27 31 34 38 37 37 35 37 37 38 42 40 38 39 36 40 42 41
8 3 6 7 9 2 13 18 9 3 3 4 5 5 5 6 14 7 5 9 8 5 4 3 2 6 17 27 35 40 41 41 41 43 41 40 41 43 43 35 37 39 41 41
12 7 3 1 8 16 5 14 5 7 4 5 2 6 7 12 8 9 7 5 5 4 3 4 4 2 4 7 17 31 37 39 36 39 38 37 36 39 39 38 39 41 40 41
15 5 6 15 1 5 9 13 17 10 10 4 2 5 6 9 9 9 8 7 5 5 2 2 4 5 4 4 6 11 17 27 33 37 38 40 41 40 40 41 44 44 44 44
12 6 9 5 4 3 16 6 19 3 4 9 5 5 1 3 6 6 10 8 7 5 4 2 1 2 2 3 6 10 14 20 22 26 29 34 40 42 43 46 47 46 45 45
13 6 3 10 16 7 25 24 26 23 9 13 17 10 6 8 8 7 7 7 8 7 6 5 4 3 3 4 5 8 11 14 16 19 23 26 29 32 37 37 39 40 41 41
14 9 13 16 18 19 15 22 19 21 25 15 20 13 10 10 10 10 9 7 6 6 7 7 5 5 7 6 8 9 11 12 14 16 17 19 21 21 23 28 29 29 32 31
12 5 19 19 12 19 19 21 20 19 23 15 19 16 8 7 3 6 8 8 7 6 5 7 6 5 6 7 10 11 12 11 12 13 13 12 13 14 14 15 17 23 21 22
13 9 11 12 15 16 14 25 27 26 22 28 23 25 8 8 12 10 9 8 5 5 5 4 2 1 4 7 11 11 10 8 8 9 8 8 8 9 10 12 15 18 20 23
19 18 4 5 9 11 6 21 25 30 31 29 25 10 17 9 8 8 5 3 3 4 4 5 4 6 7 8 5 5 5 5 5 6 5 6 7 8 9 10 11 13 14 15
23 7 5 6 13 3 3 10 27 21 30 27 28 16 7 6 5 3 3 3 5 5 4 5 5 7 6 7 5 1 2 3 3 3 4 5 6 7 7 7 7 8 11 13
17 14 6 4 6 11 4 7 16 4 16 24 26 20 16 6 5 8 7 6 7 8 7 7 8 9 9 8 4 4 5 3 2 2 3 4 6 6 5 5 8 11 12 13
6 3 13 9 3 6 6 7 22 12 11 7 22 20 16 18 16 7 8 6 8 8 9 10 12 12 10 8 7 11 9 8 5 2 0 1 3 4 5 7 8 8 8 8
6 8 3 4 2 11 6 17 22 3 2 2 4 9 12 10 12 11 9 8 7 7 10 11 14 14 12 10 8 10 11 7 4 3 2 2 3 4 6 6 5 5 6 6
3 6 7 9 6 1 4 4 3 3 3 1 4 6 15 15 7 9 9 8 6 11 11 12 15 16 16 15 12 14 12 9 8 6 7 5 3 1 0 1 2 2 3 4
2 4 3 4 4 3 3 2 5 4 4 4 5 8 8 10 10 11 10 8 8 12 13 14 16 16 17 16 16 16 13 11 11 12 11 10 8 6 3 3 3 3 4 5
4 8 2 1 5 3 4 7 4 7 8 8 10 6 9 14 9 11 9 9 10 12 15 16 16 15 15 14 17 15 14 11 13 14 13 13 11 9 7 5 5 3 3 5
7 6 3 3 7 6 5 11 7 6 6 6 9 10 8 9 11 12 10 12 13 14 15 16 16 17 15 16 17 17 16 13 12 15 13 12 11 9 7 5 3 4 3 2

GFSCGP_925_spd_114.txt.gz
Wind_Speed
4 5 16 17 6 5 6 5 9 4 10 5 15 20 10 12 5 8 9 8 10 15 25 30 33 36 33 35 37 37 40 41 37 35 36 31 34 33 32 30 30 30 28 28
4 16 15 6 3 4 4 2 4 4 4 7 8 17 15 7 7 9 10 11 10 7 10 18 26 31 35 39 39 39 43 45 45 38 36 34 35 37 36 34 33 32 31 30
15 4 9 10 5 10 9 8 3 5 2 3 2 9 9 7 10 8 10 14 12 14 13 13 22 30 37 35 42 44 45 44 45 43 37 32 30 33 34 35 35 35 34 32
13 6 15 8 15 13 15 8 6 6 2 5 5 8 8 9 15 10 15 13 16 15 14 13 22 28 34 39 45 46 44 45 46 45 37 35 32 29 33 35 39 37 37 36
8 12 15 17 16 12 8 8 13 7 4 3 4 4 6 5 9 14 17 18 18 17 14 15 20 30 35 37 43 47 45 45 45 45 43 37 35 32 29 31 35 40 39 40
7 2 16 11 13 18 9 5 4 3 3 12 11 8 8 11 9 8 12 13 14 13 13 15 25 31 33 36 37 40 42 45 45 44 44 41 38 35 29 32 35 37 40 41
8 15 3 6 11 8 10 9 4 7 7 17 10 9 22 7 8 14 14 14 10 10 9 11 11 18 26 31 36 38 40 40 43 45 44 45 40 36 38 35 35 31 34 37
13 8 16 7 11 6 19 16 5 7 6 9 3 9 7 12 21 21 14 9 6 8 8 9 10 18 26 32 36 37 37 39 38 43 44 43 43 40 39 38 37 38 39 42
7 10 1 10 8 8 8 16 12 3 3 2 6 8 6 8 10 15 15 8 10 9 8 9 10 16 25 28 34 37 36 37 36 42 42 43 46 44 42 41 35 38 39 37
5 2 3 7 9 11 15 7 11 4 5 6 5 6 10 3 13 15 7 9 9 8 7 5 5 6 16 28 33 36 38 39 44 46 44 41 41 42 43 36 37 38 40 40
3 5 1 3 11 20 6 13 9 6 3 5 3 7 7 18 18 19 9 7 7 8 6 4 2 2 3 8 23 27 30 31 28 34 35 34 36 39 40 39 40 43 43 42
15 5 10 14 6 2 14 12 19 10 19 3 1 11 3 8 10 7 7 6 5 6 6 5 3 3 4 7 8 12 22 28 30 31 34 34 36 37 38 41 42 41 42 41
13 8 9 3 3 4 7 15 19 19 2 18 12 10 4 5 0 3 8 7 6 4 5 2 2 4 4 4 4 6 9 14 18 24 27 30 34 35 36 37 38 40 41 42
9 6 10 13 5 5 13 18 18 23 13 22 19 19 8 6 6 5 6 6 6 5 4 2 0 1 1 1 0 1 3 6 9 14 18 22 25 27 30 31 32 33 36 38
6 12 14 14 8 3 11 19 25 24 34 17 26 21 16 12 13 11 11 8 7 7 6 5 3 3 3 3 4 5 6 7 8 11 13 16 16 18 20 21 24 27 29 31
6 7 8 16 13 12 12 16 16 26 29 25 27 18 20 12 6 8 9 9 9 8 7 7 6 5 3 5 7 9 10 9 8 9 10 9 9 10 12 12 11 13 16 19
4 2 7 19 11 14 14 28 24 24 27 30 27 38 6 10 8 9 12 14 13 9 8 7 6 5 5 5 7 9 8 8 8 7 7 7 7 7 7 8 9 10 10 11
5 6 2 8 9 17 23 15 29 31 31 29 29 17 19 15 12 6 8 10 9 8 6 5 4 4 2 3 4 5 5 5 5 5 5 5 6 6 5 6 6 7 7 8
17 8 4 5 12 4 7 9 26 22 32 29 29 31 15 5 5 7 8 4 7 7 6 9 9 6 4 1 1 1 1 2 2 1 2 3 4 5 4 2 4 4 4 6
18 18 8 9 12 9 13 7 18 11 20 32 30 26 24 8 8 16 7 7 7 9 13 14 11 8 5 3 2 4 5 5 6 3 1 2 3 1 0 1 2 4 6 8
7 12 19 16 12 8 5 7 22 15 14 11 25 23 17 17 25 8 10 6 7 8 12 12 12 11 8 7 7 11 9 11 7 5 3 3 3 2 1 2 3 4 5 5
9 6 10 9 7 14 8 20 22 11 1 3 2 14 21 27 11 13 10 9 8 8 12 13 15 13 12 12 11 13 14 10 7 6 6 6 6 4 2 2 4 4 4 5
5 8 4 11 7 2 8 6 3 0 2 2 3 6 16 10 8 10 11 10 7 12 12 14 17 17 17 15 13 14 11 9 9 8 10 9 7 5 4 4 4 5 5 5
5 4 3 3 2 6 11 8 14 7 3 2 2 4 4 10 14 14 11 9 9 11 13 17 18 18 18 17 16 16 12 10 9 12 12 11 9 7 5 4 4 3 3 3
1 8 5 1 5 3 9 16 14 10 9 7 8 7 9 16 13 13 12 9 10 13 15 17 17 17 18 17 17 14 11 9 12 13 12 12 11 10 8 7 6 5 4 3
7 5 4 3 8 7 4 14 16 10 10 10 8 9 10 10 13 13 11 11 14 14 18 19 20 21 15 15 16 16 15 12 12 15 14 13 12 10 9 8 6 7 8 7

GFSCGP_925_spd_117.txt.gz
Wind_Speed
3 4 13 15 4 0 4 4 7 2 6 4 8 17 18 13 6 9 9 9 12 14 25 24 27 33 34 33 37 37 37 39 36 37 35 34 35 34 33 33 31 31 30 28
4 17 9 7 3 1 1 1 2 4 6 5 8 14 11 11 8 10 13 11 13 8 11 16 26 31 33 39 40 38 39 39 40 39 38 33 35 36 35 35 34 32 31 30
15 2 13 8 5 7 5 7 2 3 6 3 3 10 14 7 12 12 10 13 11 15 15 12 19 30 37 36 41 43 43 42 41 40 34 34 29 32 33 36 37 36 34 34
11 5 10 8 14 11 13 8 5 5 3 4 1 7 9 5 15 11 17 16 16 14 12 14 18 24 32 39 41 46 42 44 44 42 35 36 33 30 32 36 40 39 38 37
7 11 11 12 7 9 5 6 10 6 7 5 5 6 7 6 12 11 15 17 15 16 17 18 18 25 35 38 41 46 46 43 42 43 42 38 35 31 30 33 34 38 40 39
5 2 10 9 6 14 8 4 4 4 2 11 21 9 8 10 7 8 9 14 15 15 16 15 24 29 29 37 38 37 39 44 43 44 45 40 37 34 30 32 35 37 39 41
5 7 3 1 6 4 9 5 3 5 5 10 7 8 21 7 8 11 15 13 14 11 11 9 10 17 26 29 35 35 39 40 43 45 43 46 43 39 38 35 34 31 36 40
10 5 13 6 7 2 15 13 4 6 5 6 3 8 8 11 17 17 15 14 8 9 8 9 10 18 23 29 34 36 37 40 40 44 47 45 43 40 41 38 38 40 38 39
6 7 1 6 7 10 4 15 5 3 2 2 5 9 6 8 9 9 15 16 15 10 10 9 10 17 23 26 33 37 36 37 36 43 43 40 43 42 42 41 35 39 39 39
3 1 2 3 5 9 8 7 5 6 5 6 6 6 8 1 10 12 17 16 11 8 9 8 7 14 19 24 31 32 34 35 38 43 42 43 42 42 41 35 37 41 42 37
3 3 3 3 8 13 7 7 6 2 4 4 4 8 8 16 14 15 17 9 9 9 9 7 5 8 8 12 22 28 32 32 32 36 35 33 35 39 40 37 38 40 39 38
10 2 4 8 4 7 14 18 14 6 6 3 1 13 5 6 8 8 14 9 6 6 5 3 4 6 4 6 7 18 23 28 31 33 33 35 37 36 35 37 39 38 39 38
10 6 5 3 3 3 9 12 14 21 5 16 3 19 4 5 8 7 8 7 5 5 5 3 2 0 1 3 3 3 8 17 22 22 25 29 32 33 35 36 36 36 36 37
15 4 11 18 6 4 8 15 18 14 8 25 18 36 13 8 5 8 8 8 7 7 6 4 3 3 4 3 2 2 2 3 7 11 17 22 25 27 27 27 27 30 31 34
5 7 7 14 9 3 2 9 18 22 27 10 30 27 28 14 9 10 7 7 6 6 5 6 5 5 5 4 2 1 2 2 3 6 9 11 12 14 16 18 19 21 23 23
5 3 3 14 12 19 18 13 13 25 27 24 32 28 18 8 9 8 9 8 10 9 8 7 5 5 6 5 3 3 5 5 5 6 6 7 7 7 7 7 8 8 11 14
5 4 4 7 5 7 11 32 23 17 17 22 22 36 9 13 12 14 10 11 13 10 9 8 7 8 7 2 3 7 7 6 5 4 3 3 3 3 2 2 3 4 4 5
5 4 2 4 3 7 10 3 23 29 28 22 25 29 26 25 19 10 11 12 15 10 9 7 8 6 3 0 2 4 5 4 2 0 1 1 1 1 1 2 2 3 3 4
11 5 3 3 5 10 15 22 7 10 28 27 30 35 29 16 4 15 15 12 14 13 8 9 8 6 3 2 2 1 3 4 5 5 4 3 2 3 4 6 5 5 4 4
15 15 7 2 5 10 30 4 9 6 20 29 23 33 30 9 13 27 8 8 6 8 14 16 12 9 5 4 2 6 8 8 9 7 5 3 4 6 6 5 4 5 5 6
5 7 18 16 6 10 6 8 8 12 12 3 21 32 23 18 28 10 8 5 6 10 17 17 14 13 8 6 8 13 11 11 7 5 6 8 7 7 6 4 4 5 6 6
11 8 8 11 10 18 5 6 21 13 6 4 6 17 15 24 15 7 9 9 10 11 15 18 19 14 11 11 13 14 14 8 6 7 10 10 9 8 7 6 7 6 5 6
7 7 7 11 8 0 4 3 9 10 6 6 7 8 4 9 9 11 9 10 9 13 14 17 17 16 13 14 13 15 10 9 9 10 11 11 10 8 8 7 7 7 8 9
2 6 4 1 2 7 10 10 11 17 12 11 6 8 6 5 8 8 11 11 9 13 13 17 16 16 17 15 14 14 11 10 10 14 13 11 11 10 9 9 9 8 8 8
3 6 5 6 5 9 2 15 17 19 15 12 9 6 4 8 8 12 12 11 10 14 14 17 17 17 16 15 15 13 11 9 12 14 14 14 14 13 13 12 11 10 9 7
6 5 2 1 9 7 9 16 22 19 17 14 10 9 10 4 11 14 12 12 15 14 15 17 19 20 17 18 18 15 12 10 13 15 14 13 13 11 11 12 13 12 13 11

GFSCGP_925_spd_120.txt.gz
Wind_Speed
4 4 15 13 4 3 4 2 4 2 5 2 6 13 14 12 6 8 9 9 10 12 20 24 24 30 33 31 33 34 33 35 34 34 33 31 34 33 31 32 32 31 30 28
4 14 5 8 6 4 3 2 3 5 4 3 8 15 14 9 9 11 14 12 13 8 9 19 24 28 33 38 39 37 39 39 38 37 37 34 31 34 36 34 33 34 31 31
7 6 9 7 5 6 4 10 3 3 6 3 5 10 10 8 8 12 10 14 13 14 12 12 17 29 34 37 39 42 43 42 41 40 36 32 30 29 30 36 36 36 35 33
10 4 9 5 9 9 9 7 4 4 4 4 2 7 8 4 9 9 13 11 15 14 9 12 16 22 28 38 38 41 42 43 45 41 34 36 32 29 32 36 39 38 37 37
6 6 7 8 4 7 4 6 8 5 5 3 8 5 7 2 7 9 10 11 12 12 14 15 19 26 35 37 37 43 44 42 42 43 42 40 35 33 32 35 37 37 39 38
5 1 8 9 4 10 7 4 3 3 2 5 15 10 6 6 6 6 8 10 11 10 13 15 24 24 28 34 33 35 36 42 43 45 45 42 39 34 29 34 35 38 39 39
5 4 2 4 6 3 5 7 2 3 5 9 2 8 17 10 6 7 10 12 13 10 10 10 11 16 23 27 34 36 36 39 42 42 42 44 45 39 38 35 37 31 38 41
7 6 9 4 4 5 10 7 4 5 4 6 3 7 7 13 16 17 18 17 14 10 8 9 10 17 22 28 32 34 33 37 37 41 43 43 43 38 41 36 34 39 37 38
8 5 3 4 3 6 3 12 7 1 1 1 4 9 9 8 10 9 13 12 13 14 9 9 10 19 22 23 26 33 34 35 36 41 41 39 38 38 36 37 34 38 40 38
6 3 2 4 5 7 4 2 3 5 4 5 5 6 11 6 8 13 12 16 11 6 9 9 8 15 22 23 23 24 31 35 37 36 36 35 37 39 39 32 35 38 40 35
5 2 1 6 7 10 6 5 3 1 3 2 3 7 8 14 14 9 9 10 9 10 10 8 6 10 12 12 13 19 23 29 28 31 33 33 34 36 37 34 35 37 34 34
3 3 3 7 3 2 7 8 10 5 4 2 2 18 5 9 8 6 9 10 8 10 9 7 6 5 6 6 5 7 12 18 23 25 28 30 32 33 34 35 36 36 36 36
8 3 3 3 5 3 5 7 8 9 5 14 2 18 3 0 7 8 8 9 8 8 8 6 6 4 5 7 5 3 4 10 14 18 21 26 28 30 32 32 33 33 33 33
15 4 7 12 5 5 5 11 14 11 5 14 21 39 14 8 10 12 16 8 7 6 7 6 5 4 5 3 1 3 4 3 4 10 15 18 20 22 22 23 24 26 28 29
7 4 4 4 2 2 4 6 14 18 21 11 31 24 18 14 16 14 13 14 9 8 7 8 6 4 4 3 1 1 3 3 2 2 4 7 9 12 14 16 17 16 14 15
4 1 2 3 5 6 9 17 10 16 19 24 23 30 3 13 14 17 11 14 14 9 10 8 7 7 8 7 2 2 3 2 0 1 2 3 4 4 4 4 4 4 5 7
8 6 3 4 4 3 7 17 18 18 19 16 22 38 19 21 17 13 17 13 14 11 11 10 10 10 11 7 4 2 2 1 0 0 1 1 2 2 2 2 4 3 3 2
7 6 3 3 3 2 7 6 12 18 18 21 26 36 32 28 23 21 20 18 13 12 12 12 10 13 13 11 7 4 2 3 7 6 5 4 3 5 6 6 7 7 6 6
5 5 1 3 4 8 17 5 6 7 15 19 26 31 32 24 16 31 29 19 22 19 16 16 18 16 14 11 7 7 7 7 9 8 6 6 7 9 9 9 9 8 8 8
4 1 4 3 4 7 25 9 10 5 18 11 15 26 29 8 14 26 15 19 24 13 13 17 22 20 16 10 9 12 10 10 9 7 7 8 11 11 11 9 8 9 7 9
5 3 12 11 3 10 5 7 8 8 27 7 8 16 18 14 19 25 2 2 3 6 12 21 22 18 12 12 15 13 12 9 9 10 11 12 12 12 12 11 10 10 10 10
7 8 5 5 5 13 3 2 19 7 11 9 8 6 13 17 22 19 9 5 6 8 12 17 19 15 12 13 14 14 11 9 12 15 13 13 12 12 12 12 11 10 8 9
3 6 5 9 8 1 5 3 8 11 13 11 17 20 14 17 19 10 6 7 6 9 13 14 16 15 11 12 13 14 8 10 13 16 15 13 12 11 10 10 10 10 9 10
2 6 4 2 2 4 3 2 12 15 15 18 17 20 17 15 19 10 3 6 7 9 12 16 16 14 12 11 13 13 10 10 13 17 15 14 13 13 12 12 11 11 11 11
0 5 2 7 0 12 6 13 18 23 19 19 20 20 19 12 9 4 3 6 7 10 14 17 15 14 11 12 13 12 12 14 15 18 18 17 16 15 16 16 14 12 12 10
3 1 3 3 6 4 11 16 27 21 21 20 20 22 16 13 6 3 6 9 11 11 15 18 17 17 14 13 12 13 12 14 18 19 17 16 16 16 16 17 19 17 15 15

GFSCGP_925_spd_123.txt.gz
Wind_Speed
5 6 17 13 4 5 6 3 3 2 3 2 4 8 14 10 6 7 9 10 10 13 19 23 23 23 28 31 33 34 34 35 35 35 32 32 33 33 31 30 29 30 31 30
5 17 8 9 8 5 5 3 2 4 2 1 6 11 15 8 11 11 14 13 14 12 9 18 22 26 27 33 38 37 40 39 39 38 38 28 32 35 36 32 32 31 33 32
12 3 12 8 4 7 4 9 3 5 6 3 6 8 11 7 6 8 11 14 13 14 13 13 18 26 30 33 35 39 42 40 40 40 35 33 26 25 27 33 36 38 35 34
6 1 11 7 6 7 8 5 4 3 1 6 2 7 9 5 9 7 11 10 13 15 12 13 18 20 28 34 34 39 41 43 43 40 36 37 33 30 34 36 39 39 38 37
3 7 7 5 5 6 3 6 7 4 2 3 5 4 8 2 6 8 9 11 12 14 12 13 18 27 34 35 34 37 40 40 41 41 41 37 35 35 31 32 37 39 39 38
3 1 6 8 4 7 7 5 3 2 2 5 7 9 5 5 5 4 8 11 10 10 12 12 22 25 29 32 32 33 35 39 40 42 45 40 40 37 29 33 35 35 39 39
5 4 2 5 6 2 4 6 1 3 4 7 2 5 13 9 6 7 9 11 12 7 8 9 10 15 22 28 32 32 34 36 39 41 41 43 42 37 37 35 36 31 35 40
9 6 9 4 6 7 8 7 4 5 4 4 2 8 6 14 14 9 9 14 11 10 6 7 12 20 24 26 29 31 31 35 36 39 41 43 44 39 38 35 34 38 36 39
4 3 3 2 4 6 4 8 6 2 2 1 4 9 10 8 11 8 14 9 11 7 8 10 12 19 25 27 27 29 31 32 33 37 38 36 36 37 34 35 34 35 39 35
7 4 1 3 4 3 2 4 3 4 4 5 5 6 12 7 14 13 7 9 6 6 10 12 10 18 23 26 26 23 26 31 32 32 33 34 34 33 34 30 31 34 35 34
5 4 3 6 5 9 2 3 2 2 3 4 2 7 7 12 12 9 7 5 6 9 10 10 11 20 17 14 15 18 21 25 27 27 29 31 32 34 34 32 31 36 35 34
2 3 4 2 3 4 6 9 6 3 3 3 2 10 6 9 3 4 7 8 6 7 9 7 10 13 17 14 13 12 12 16 21 23 24 27 27 30 32 34 36 36 35 34
9 4 4 2 3 3 6 7 6 4 3 9 3 9 3 7 7 6 9 15 9 6 7 7 6 7 12 12 10 9 6 6 9 14 17 21 23 24 27 29 30 31 32 32
11 4 6 8 5 6 6 7 14 14 5 6 17 30 13 15 16 19 20 21 22 15 7 7 7 6 7 9 4 3 2 2 1 6 9 12 14 17 19 21 22 23 24 25
5 5 3 1 5 3 4 6 12 16 20 9 24 17 3 5 7 7 8 10 18 19 10 10 8 7 10 10 7 4 2 2 2 3 5 7 9 12 12 12 13 13 15 18
0 5 4 2 2 4 6 8 9 11 11 16 15 31 7 3 6 7 12 14 16 18 14 11 10 9 14 16 14 9 7 4 4 4 3 4 7 9 9 10 9 10 11 13
7 5 3 2 1 3 7 15 12 8 12 16 18 35 16 9 15 18 20 19 18 17 19 16 15 13 20 21 17 15 10 7 6 7 6 6 6 7 7 8 8 8 8 8
8 5 3 2 2 3 6 1 8 15 14 18 24 24 18 18 21 27 14 19 23 22 25 21 12 19 28 23 21 16 12 10 9 9 8 8 9 9 9 8 10 10 11 10
4 5 3 5 4 7 9 5 7 8 15 17 19 16 13 15 17 20 14 19 21 23 22 27 29 28 26 24 22 18 14 12 11 10 9 10 11 13 13 12 11 10 11 12
3 4 4 3 5 7 5 6 7 5 18 7 7 13 15 9 11 9 19 21 20 23 26 26 29 23 24 26 23 19 15 13 13 12 11 11 12 13 13 13 12 11 11 13
4 1 6 3 3 9 7 9 5 6 8 9 11 11 13 7 10 21 24 26 30 25 20 13 15 19 23 22 21 18 15 13 13 12 12 14 14 13 13 12 14 14 14 14
6 7 4 3 2 11 4 2 6 5 3 9 13 16 19 19 23 20 20 22 24 15 7 4 8 8 9 13 17 15 14 13 14 15 16 15 15 16 15 16 14 15 16 15
2 5 6 9 8 4 4 6 8 9 7 8 12 16 17 21 22 24 21 23 17 13 10 1 9 11 7 6 7 11 10 14 17 18 18 17 15 16 15 17 16 16 14 14
1 3 3 2 2 4 8 11 13 14 12 14 13 15 17 19 20 23 22 18 14 9 8 6 4 9 9 8 7 8 11 15 18 18 18 18 17 15 15 15 15 15 15 15
0 4 1 6 1 5 9 11 17 18 15 17 17 15 16 18 19 17 17 13 9 7 6 7 7 8 9 7 8 8 9 14 17 17 16 17 17 17 17 16 15 16 12 12
4 3 2 3 5 5 8 14 22 18 19 19 21 22 19 18 18 17 13 11 10 5 3 10 10 9 9 9 9 8 8 11 16 17 16 16 18 19 20 20 22 18 17 17

GFSCGP_925_spd_126.txt.gz
Wind_Speed
10 8 17 28 19 14 9 12 11 4 0 3 11 13 20 13 15 17 16 18 18 17 18 15 16 17 19 23 25 28 28 28 26 26 25 24 24 24 23 23 24 23 24 23
7 23 26 19 13 15 10 12 10 2 2 3 9 15 23 19 19 19 19 20 20 19 16 19 20 18 21 25 28 29 30 29 29 28 28 25 23 26 26 28 30 31 28 27
18 15 15 15 15 18 17 16 10 6 6 11 11 21 20 21 15 18 18 20 20 20 18 18 21 24 24 26 29 31 33 33 32 31 27 25 22 22 22 27 28 32 30 29
16 11 22 18 20 18 20 12 8 4 6 8 2 9 15 17 14 15 15 14 16 17 16 18 21 23 25 28 26 31 34 33 35 34 31 31 29 28 29 27 26 27 32 32
3 5 17 23 22 17 12 11 9 8 10 5 12 6 9 5 12 14 16 16 16 15 15 15 18 22 23 22 25 27 29 31 33 34 36 35 34 34 30 27 28 28 28 34
5 4 2 6 9 11 13 9 6 2 3 7 13 14 12 12 9 4 7 12 13 11 10 11 15 15 18 18 20 23 26 29 32 34 37 38 37 37 29 29 29 28 28 28
7 7 8 9 8 7 11 10 4 5 4 8 3 8 17 16 11 12 12 15 14 9 10 11 14 17 19 20 19 21 24 27 30 33 37 38 39 37 36 35 31 28 28 28
7 6 15 9 13 9 16 7 4 5 5 5 2 9 5 10 13 10 12 15 15 13 9 11 13 16 19 20 19 19 22 26 28 31 35 37 38 37 35 34 32 30 30 29
8 6 6 13 6 14 8 11 6 1 2 5 8 16 18 18 17 14 16 9 9 9 8 11 13 14 18 19 18 18 20 23 24 28 29 31 34 35 34 33 32 31 28 28
10 5 4 4 7 6 7 11 5 4 5 7 8 13 13 9 15 7 9 6 4 6 8 9 11 15 16 16 15 13 16 20 21 22 24 26 28 31 32 31 30 31 31 28
10 5 2 7 7 9 4 6 2 3 3 4 5 7 3 10 9 5 5 6 6 11 12 11 12 17 16 15 13 11 10 14 18 19 21 23 25 26 28 28 29 30 29 26
5 3 4 2 3 2 11 10 8 6 6 4 4 12 4 8 5 4 5 11 9 8 10 11 15 19 16 15 13 10 10 11 12 15 17 20 20 21 23 24 25 26 26 25
11 5 6 4 1 2 9 14 13 6 2 9 4 6 4 7 8 15 18 18 17 14 13 14 14 15 17 14 13 10 10 9 8 9 12 15 16 18 20 21 21 22 23 24
10 3 7 10 4 11 9 17 18 16 6 12 19 23 9 13 20 19 18 21 21 18 18 18 17 18 21 14 12 10 9 8 7 8 10 12 13 15 16 16 17 17 18 20
8 7 4 2 7 8 12 16 22 23 21 11 27 21 15 10 14 17 15 16 18 18 18 18 17 15 24 20 14 12 11 10 7 6 8 9 12 13 15 17 19 20 22 22
3 3 8 5 3 4 1 9 16 22 19 23 24 32 17 22 13 13 18 18 18 20 20 19 19 17 22 23 20 17 17 14 11 10 9 8 9 12 14 16 16 15 15 17
9 6 5 5 1 4 7 19 17 13 16 19 20 26 21 20 19 16 18 17 18 20 22 21 21 20 25 26 24 21 18 16 13 13 13 11 11 11 11 11 11 13 14 14
9 5 2 3 4 8 2 3 15 21 21 21 22 24 25 20 20 18 18 15 14 19 23 22 23 30 28 28 25 23 24 21 17 15 15 13 11 11 10 10 10 9 8 9
5 6 3 4 7 7 12 6 7 10 15 14 20 19 15 13 13 16 5 12 16 19 22 28 34 37 35 29 29 27 26 23 19 18 17 15 13 13 12 11 11 11 11 10
7 2 5 3 5 8 1 2 5 2 13 6 9 8 11 14 7 9 21 25 24 28 29 30 37 36 33 30 24 24 24 22 20 18 16 13 12 14 13 12 12 11 12 12
5 4 6 4 5 6 6 3 1 8 2 6 7 7 10 7 7 18 22 25 27 30 31 32 30 27 25 22 15 14 14 15 14 14 13 12 12 14 14 13 13 14 15 16
7 7 4 2 3 9 5 1 7 5 6 10 10 10 13 14 19 18 18 21 26 29 28 29 28 23 19 17 12 6 8 10 10 10 12 13 14 14 13 13 15 15 17 15
4 3 4 9 3 5 8 10 9 9 5 9 13 15 16 19 19 20 19 19 21 28 31 26 21 19 14 15 11 7 7 6 9 11 12 13 13 13 13 15 15 15 13 11
1 4 2 1 5 4 7 9 11 12 11 12 13 17 18 20 22 23 19 17 20 23 24 23 18 14 12 12 10 6 5 6 10 13 13 13 14 13 12 12 13 14 12 12
2 4 2 3 4 6 5 6 15 16 13 14 17 18 18 19 21 21 20 18 22 23 24 19 15 11 11 11 10 6 4 6 10 13 13 13 13 14 12 10 8 9 6 8
4 2 2 1 3 4 7 10 19 13 14 16 18 20 21 21 19 25 17 24 24 22 21 18 14 11 12 12 10 7 2 4 10 12 13 12 13 15 16 18 19 17 15 14

GFSCGP_925_spd_129.txt.gz
Wind_Speed
9 6 16 31 21 21 19 18 19 17 10 5 18 18 18 17 17 16 16 18 18 18 17 18 18 19 22 23 23 26 26 25 25 26 25 25 25 24 23 24 24 24 25 26
9 19 31 16 21 19 21 22 20 13 2 8 16 20 16 21 21 19 20 20 20 19 18 21 22 21 23 28 32 30 31 30 30 29 29 28 27 25 24 25 26 27 28 29
20 21 20 20 22 17 22 24 20 18 9 14 16 23 21 26 23 23 21 21 19 19 19 18 21 23 23 26 29 32 34 35 33 33 28 26 25 24 25 28 28 30 30 30
16 23 12 23 19 19 22 22 15 8 7 12 2 12 16 16 15 11 14 15 15 15 14 16 19 20 21 24 25 27 27 30 32 32 30 30 30 30 33 30 30 29 31 32
7 4 21 19 27 17 17 15 11 15 16 13 19 6 13 15 21 14 12 15 14 13 11 10 12 14 16 17 17 22 25 28 31 32 34 33 33 31 32 28 28 30 30 33
1 1 3 11 19 22 12 11 10 10 7 6 23 16 17 16 20 13 3 7 6 5 5 6 6 7 13 15 16 19 23 27 30 32 34 37 34 34 28 29 30 31 29 30
6 10 3 2 5 2 16 16 4 5 5 11 4 11 19 14 15 11 10 13 9 9 8 7 8 10 13 15 15 16 20 24 27 31 34 37 39 36 34 32 30 29 29 30
7 6 16 14 7 6 9 14 6 7 7 13 5 10 6 4 6 7 9 9 9 7 5 6 8 11 16 16 15 15 18 20 23 26 30 33 34 34 34 33 31 30 30 30
7 4 9 21 15 13 6 7 4 1 2 2 7 12 15 13 13 11 11 9 5 4 6 6 9 13 17 17 16 13 15 18 21 23 24 27 30 32 32 33 30 31 30 29
11 3 6 8 8 12 12 10 4 2 4 7 9 12 10 8 9 10 9 8 8 6 7 9 12 14 15 17 17 13 12 16 18 19 21 23 25 28 30 30 29 29 29 29
10 8 5 6 8 15 7 11 8 5 6 6 7 6 5 5 7 11 6 6 6 8 10 11 13 16 14 16 16 16 13 13 14 16 19 20 22 23 24 26 27 29 28 27
15 7 5 5 5 7 13 12 12 7 6 6 4 7 4 2 6 7 4 7 11 12 12 13 14 18 20 22 18 16 14 12 14 14 16 19 20 21 22 23 24 24 25 26
11 5 5 2 3 1 5 10 12 13 2 12 6 5 1 5 7 6 9 10 14 12 13 13 14 17 21 23 24 20 17 13 13 12 14 16 18 19 21 21 21 22 25 25
12 4 9 11 4 10 6 16 19 16 4 13 14 20 7 9 7 13 14 14 15 17 16 16 15 17 23 26 25 26 22 15 13 10 11 12 13 14 16 16 17 18 20 21
13 12 12 11 3 10 14 18 18 17 20 12 24 23 18 17 11 10 13 14 17 15 15 16 17 17 26 28 29 27 24 21 15 13 11 10 10 11 12 14 14 16 17 18
12 3 11 3 4 6 8 15 19 22 21 21 27 23 16 17 12 7 10 13 13 16 16 16 18 21 26 30 32 31 27 23 19 18 16 13 12 12 14 15 15 16 17 18
11 5 5 6 5 2 3 18 19 19 19 22 20 28 13 17 14 12 15 14 12 13 16 18 18 23 29 34 34 35 34 27 22 24 23 19 15 13 12 13 13 14 15 15
11 7 2 4 5 6 4 3 11 18 17 17 20 24 16 9 10 10 10 11 12 15 18 19 22 28 32 38 37 35 35 30 26 26 26 22 18 16 14 13 11 9 7 8
12 7 3 5 7 8 9 4 5 8 13 10 14 12 11 11 8 5 12 14 13 15 20 24 28 30 33 34 33 34 35 30 24 27 28 25 19 17 14 12 10 9 8 7
5 6 5 3 6 7 5 8 5 3 10 10 9 9 10 12 4 3 22 22 20 23 24 27 33 32 30 33 32 32 31 27 23 18 17 19 15 14 13 11 11 10 9 8
6 4 9 6 5 3 4 5 1 6 1 8 9 8 9 6 7 17 21 22 26 26 27 28 28 29 31 33 30 30 25 21 19 20 17 13 11 11 12 11 12 10 10 8
7 8 5 3 3 8 10 2 4 4 5 8 9 9 11 12 16 16 18 21 26 27 30 29 28 29 32 31 26 25 24 23 23 18 13 12 11 11 12 12 11 11 12 12
4 1 4 3 1 6 10 12 9 8 6 9 11 12 13 16 17 18 18 19 23 29 30 31 30 32 28 27 22 24 22 27 22 18 15 12 10 10 12 13 12 13 13 13
2 3 3 5 4 7 9 10 10 9 8 10 12 14 15 17 19 20 18 17 22 27 30 31 30 29 28 25 25 24 28 26 21 17 13 9 8 8 9 11 13 14 14 12
2 2 4 4 3 6 7 7 12 12 11 13 16 17 17 18 19 19 18 19 23 26 27 28 28 26 26 26 27 27 26 23 21 16 12 7 7 8 9 8 7 9 7 8
4 3 1 2 3 3 1 12 14 12 14 15 17 18 21 21 18 24 19 24 25 23 25 24 25 25 25 25 26 27 24 19 18 15 9 6 7 10 14 17 20 16 13 10

GFSCGP_925_spd_132.txt.gz
Wind_Speed
6 6 18 17 13 13 14 14 11 9 3 2 6 11 10 12 10 9 8 9 9 9 9 16 14 24 27 26 27 29 30 32 32 32 31 29 31 32 31 29 28 28 29 30
7 19 21 8 15 16 17 17 18 10 7 2 7 14 13 15 14 11 11 11 11 10 11 17 20 24 31 31 31 32 33 34 37 33 35 32 31 30 34 33 32 31 32 32
15 14 14 14 16 16 18 17 14 13 7 2 5 15 13 14 21 22 21 18 13 13 12 9 13 20 28 31 32 32 31 30 30 31 27 26 25 27 27 31 36 40 38 36
14 18 13 18 19 17 17 10 9 10 3 6 3 10 8 8 14 14 6 7 9 9 9 8 11 17 12 27 31 32 33 34 32 31 30 29 29 28 34 33 35 34 40 41
7 9 21 16 25 10 16 5 8 12 10 4 12 5 8 3 10 10 10 9 8 8 5 4 7 9 8 7 7 18 32 31 32 31 34 33 32 30 28 30 29 35 35 41
7 2 4 11 10 10 2 7 7 5 4 8 23 8 21 12 12 12 8 5 1 8 8 8 10 7 7 10 12 15 18 21 27 30 35 36 34 32 27 29 28 30 33 36
8 5 1 2 2 3 7 8 4 6 6 11 10 10 18 10 9 4 5 6 5 7 6 5 6 8 10 11 11 13 14 21 25 27 34 35 36 34 33 32 29 28 29 30
12 10 16 9 5 7 12 13 5 5 5 6 7 9 8 2 3 2 1 4 6 8 8 6 6 9 13 14 14 14 15 18 19 23 29 34 36 34 34 33 31 29 31 32
10 9 3 14 7 10 2 10 5 1 1 2 5 6 5 8 6 3 2 7 9 8 6 6 8 14 15 17 17 16 17 18 19 21 24 29 32 34 33 34 32 33 33 33
10 5 6 7 7 9 6 9 4 2 5 3 4 5 4 6 9 8 9 9 6 4 1 3 4 9 15 15 21 15 16 19 20 20 21 23 28 30 35 34 34 34 33 34
9 4 4 4 7 8 6 4 7 6 3 1 1 4 4 7 14 10 8 5 6 7 6 6 8 18 21 24 26 27 24 20 22 20 20 20 24 26 29 32 35 35 35 33
10 3 4 9 2 4 5 4 8 3 4 2 3 5 6 10 9 9 7 6 5 6 5 4 11 19 21 25 28 31 30 28 23 22 22 21 21 23 24 28 29 29 30 32
12 4 4 4 2 3 5 9 11 6 2 6 4 4 4 8 7 7 7 6 5 4 6 8 11 15 21 24 27 29 32 34 28 24 23 22 20 18 20 22 23 24 24 26
15 4 5 8 4 7 6 10 8 5 3 2 8 6 1 7 8 3 7 6 4 5 11 9 8 12 19 23 27 30 32 33 36 28 24 24 20 17 16 16 17 18 20 23
9 6 5 5 7 6 9 13 14 13 10 6 16 19 14 7 4 4 2 2 7 12 13 13 13 13 22 26 30 35 34 34 35 36 30 27 24 20 18 17 16 16 17 18
6 1 6 2 1 6 6 16 18 22 22 14 18 18 5 7 4 10 10 12 12 12 13 14 14 19 23 26 29 35 35 36 38 36 33 31 27 26 20 17 17 16 17 19
7 5 5 6 6 6 5 11 13 14 18 15 17 20 5 5 10 11 11 13 12 13 14 14 14 20 26 29 30 31 36 39 38 35 34 34 31 30 23 19 18 15 15 15
9 8 2 3 6 8 5 6 16 16 11 8 11 14 9 6 6 12 14 12 12 13 14 13 20 24 27 30 31 33 33 34 35 35 32 34 31 30 25 20 17 13 12 9
7 4 3 4 4 5 3 3 6 7 2 10 7 10 9 9 3 8 14 12 10 12 17 20 24 25 29 28 29 34 34 33 33 31 31 34 31 27 23 18 14 11 10 10
1 3 4 2 3 6 1 2 5 5 3 8 8 9 10 11 2 3 16 14 15 19 20 23 26 28 28 30 32 32 29 32 32 30 35 33 29 24 21 18 15 12 11 10
5 4 6 4 3 3 3 8 8 5 2 6 7 7 9 4 4 15 16 17 20 23 24 26 25 26 26 30 31 31 29 28 30 36 36 34 31 27 23 19 17 14 12 10
6 7 3 3 3 6 7 3 3 3 8 7 6 8 8 9 12 12 14 16 23 24 27 27 27 26 28 29 28 29 30 31 33 33 35 34 32 26 22 18 16 14 12 11
3 3 5 2 2 6 11 14 10 8 6 7 7 8 10 12 12 13 13 14 19 25 26 27 26 29 26 27 27 30 32 34 33 34 33 32 31 25 20 17 15 13 13 14
2 3 4 5 4 7 11 11 10 8 8 8 9 9 10 12 13 14 14 15 19 22 25 28 30 28 28 28 29 30 33 32 33 32 31 30 26 24 16 14 13 14 15 14
0 3 5 5 7 9 9 10 8 8 8 9 10 10 11 13 13 13 14 18 22 24 25 27 26 27 29 31 32 33 32 33 31 29 30 26 23 18 11 7 6 10 11 13
3 2 3 3 4 2 7 7 9 9 10 10 11 12 15 15 13 19 17 20 21 24 26 25 26 26 30 31 32 34 33 31 30 27 24 22 21 12 8 10 14 10 6 7